<?xml version="1.0" encoding="UTF-8" standalone="no" ?>
<gpx xmlns="http://www.topografix.com/GPX/1/1" xmlns:xsi="http://www.w3.org/2001/XMLSchema-instance" xsi:schemaLocation="http://www.topografix.com/GPX/1/1 http://www.topografix.com/GPX/1/1/gpx.xsd" version="1.1" creator="VisuGPX - https://www.visugpx.com">
  <metadata>
    <name>Balade (au pas) 3h00</name>
    <desc><![CDATA[Beaucoup de forêts ce qui est agréable par forte chaleur ! quelques terrains caillouteux mais faisable !]]></desc>
  </metadata>
  <trk>
    <name><![CDATA[Untitled]]></name>
    <trkseg>
      <trkpt lat="48.70719" lon="1.75476">
        <ele>171.80000305176</ele>
        <time>2012-07-24T09:14:30.000Z</time>
      </trkpt>
      <trkpt lat="48.7072" lon="1.7547">
        <ele>171.60000610352</ele>
        <time>2012-07-24T09:14:33.000Z</time>
      </trkpt>
      <trkpt lat="48.70724" lon="1.7546">
        <ele>171.60000610352</ele>
        <time>2012-07-24T09:14:40.000Z</time>
      </trkpt>
      <trkpt lat="48.70725" lon="1.75458">
        <ele>171.60000610352</ele>
        <time>2012-07-24T09:14:42.000Z</time>
      </trkpt>
      <trkpt lat="48.70728" lon="1.75449">
        <ele>171.60000610352</ele>
        <time>2012-07-24T09:14:49.000Z</time>
      </trkpt>
      <trkpt lat="48.70733" lon="1.75438">
        <ele>171.60000610352</ele>
        <time>2012-07-24T09:14:57.000Z</time>
      </trkpt>
      <trkpt lat="48.70733" lon="1.75436">
        <ele>171.80000305176</ele>
        <time>2012-07-24T09:14:58.000Z</time>
      </trkpt>
      <trkpt lat="48.70734" lon="1.7542">
        <ele>171.80000305176</ele>
        <time>2012-07-24T09:15:04.000Z</time>
      </trkpt>
      <trkpt lat="48.70738" lon="1.75411">
        <ele>172</ele>
        <time>2012-07-24T09:15:08.000Z</time>
      </trkpt>
      <trkpt lat="48.70743" lon="1.75394">
        <ele>172.19999694824</ele>
        <time>2012-07-24T09:15:18.000Z</time>
      </trkpt>
      <trkpt lat="48.70743" lon="1.75393">
        <ele>172.19999694824</ele>
        <time>2012-07-24T09:15:19.000Z</time>
      </trkpt>
      <trkpt lat="48.70746" lon="1.75385">
        <ele>172.39999389648</ele>
        <time>2012-07-24T09:15:24.000Z</time>
      </trkpt>
      <trkpt lat="48.70748" lon="1.7538">
        <ele>172.39999389648</ele>
        <time>2012-07-24T09:15:28.000Z</time>
      </trkpt>
      <trkpt lat="48.7075" lon="1.75372">
        <ele>172.60000610352</ele>
        <time>2012-07-24T09:15:32.000Z</time>
      </trkpt>
      <trkpt lat="48.70755" lon="1.75363">
        <ele>172.80000305176</ele>
        <time>2012-07-24T09:15:39.000Z</time>
      </trkpt>
      <trkpt lat="48.70758" lon="1.75357">
        <ele>172.80000305176</ele>
        <time>2012-07-24T09:15:43.000Z</time>
      </trkpt>
      <trkpt lat="48.70758" lon="1.75355">
        <ele>172.80000305176</ele>
        <time>2012-07-24T09:15:44.000Z</time>
      </trkpt>
      <trkpt lat="48.70763" lon="1.75345">
        <ele>173</ele>
        <time>2012-07-24T09:15:51.000Z</time>
      </trkpt>
      <trkpt lat="48.70765" lon="1.75341">
        <ele>173</ele>
        <time>2012-07-24T09:15:54.000Z</time>
      </trkpt>
      <trkpt lat="48.70769" lon="1.7533">
        <ele>173.19999694824</ele>
        <time>2012-07-24T09:16:01.000Z</time>
      </trkpt>
      <trkpt lat="48.70772" lon="1.75322">
        <ele>173.19999694824</ele>
        <time>2012-07-24T09:16:06.000Z</time>
      </trkpt>
      <trkpt lat="48.70778" lon="1.75307">
        <ele>173.39999389648</ele>
        <time>2012-07-24T09:16:15.000Z</time>
      </trkpt>
      <trkpt lat="48.70781" lon="1.75298">
        <ele>173.39999389648</ele>
        <time>2012-07-24T09:16:21.000Z</time>
      </trkpt>
      <trkpt lat="48.70785" lon="1.75287">
        <ele>173.39999389648</ele>
        <time>2012-07-24T09:16:28.000Z</time>
      </trkpt>
      <trkpt lat="48.70788" lon="1.75282">
        <ele>173.39999389648</ele>
        <time>2012-07-24T09:16:31.000Z</time>
      </trkpt>
      <trkpt lat="48.7079" lon="1.75276">
        <ele>173.39999389648</ele>
        <time>2012-07-24T09:16:35.000Z</time>
      </trkpt>
      <trkpt lat="48.70794" lon="1.75263">
        <ele>173.60000610352</ele>
        <time>2012-07-24T09:16:43.000Z</time>
      </trkpt>
      <trkpt lat="48.70797" lon="1.75255">
        <ele>173.60000610352</ele>
        <time>2012-07-24T09:16:48.000Z</time>
      </trkpt>
      <trkpt lat="48.70798" lon="1.75254">
        <ele>173.60000610352</ele>
        <time>2012-07-24T09:16:49.000Z</time>
      </trkpt>
      <trkpt lat="48.70804" lon="1.7524">
        <ele>173.60000610352</ele>
        <time>2012-07-24T09:16:58.000Z</time>
      </trkpt>
      <trkpt lat="48.70811" lon="1.75225">
        <ele>173.80000305176</ele>
        <time>2012-07-24T09:17:08.000Z</time>
      </trkpt>
      <trkpt lat="48.70817" lon="1.75211">
        <ele>173.80000305176</ele>
        <time>2012-07-24T09:17:18.000Z</time>
      </trkpt>
      <trkpt lat="48.70823" lon="1.75199">
        <ele>173.80000305176</ele>
        <time>2012-07-24T09:17:27.000Z</time>
      </trkpt>
      <trkpt lat="48.70829" lon="1.75183">
        <ele>174</ele>
        <time>2012-07-24T09:17:37.000Z</time>
      </trkpt>
      <trkpt lat="48.70835" lon="1.7517">
        <ele>174</ele>
        <time>2012-07-24T09:17:46.000Z</time>
      </trkpt>
      <trkpt lat="48.7084" lon="1.75159">
        <ele>174</ele>
        <time>2012-07-24T09:17:53.000Z</time>
      </trkpt>
      <trkpt lat="48.70848" lon="1.75142">
        <ele>174.19999694824</ele>
        <time>2012-07-24T09:18:04.000Z</time>
      </trkpt>
      <trkpt lat="48.70853" lon="1.7513">
        <ele>174.19999694824</ele>
        <time>2012-07-24T09:18:12.000Z</time>
      </trkpt>
      <trkpt lat="48.70858" lon="1.7512">
        <ele>174.19999694824</ele>
        <time>2012-07-24T09:18:19.000Z</time>
      </trkpt>
      <trkpt lat="48.7086" lon="1.75117">
        <ele>174.19999694824</ele>
        <time>2012-07-24T09:18:22.000Z</time>
      </trkpt>
      <trkpt lat="48.70865" lon="1.75108">
        <ele>174.19999694824</ele>
        <time>2012-07-24T09:18:29.000Z</time>
      </trkpt>
      <trkpt lat="48.70871" lon="1.75098">
        <ele>174</ele>
        <time>2012-07-24T09:18:35.000Z</time>
      </trkpt>
      <trkpt lat="48.70876" lon="1.75086">
        <ele>174</ele>
        <time>2012-07-24T09:18:43.000Z</time>
      </trkpt>
      <trkpt lat="48.70879" lon="1.75078">
        <ele>174</ele>
        <time>2012-07-24T09:18:48.000Z</time>
      </trkpt>
      <trkpt lat="48.70883" lon="1.75069">
        <ele>174.19999694824</ele>
        <time>2012-07-24T09:18:55.000Z</time>
      </trkpt>
      <trkpt lat="48.70886" lon="1.75061">
        <ele>174.19999694824</ele>
        <time>2012-07-24T09:19:02.000Z</time>
      </trkpt>
      <trkpt lat="48.70892" lon="1.7505">
        <ele>174.39999389648</ele>
        <time>2012-07-24T09:19:10.000Z</time>
      </trkpt>
      <trkpt lat="48.70894" lon="1.75048">
        <ele>174.39999389648</ele>
        <time>2012-07-24T09:19:12.000Z</time>
      </trkpt>
      <trkpt lat="48.70893" lon="1.75045">
        <ele>174.39999389648</ele>
        <time>2012-07-24T09:19:17.000Z</time>
      </trkpt>
      <trkpt lat="48.70893" lon="1.75044">
        <ele>174.39999389648</ele>
        <time>2012-07-24T09:19:21.000Z</time>
      </trkpt>
      <trkpt lat="48.70905" lon="1.75018">
        <ele>174.80000305176</ele>
        <time>2012-07-24T09:19:48.000Z</time>
      </trkpt>
      <trkpt lat="48.7091" lon="1.75007">
        <ele>175</ele>
        <time>2012-07-24T09:19:54.000Z</time>
      </trkpt>
      <trkpt lat="48.70913" lon="1.74997">
        <ele>175</ele>
        <time>2012-07-24T09:20:00.000Z</time>
      </trkpt>
      <trkpt lat="48.70915" lon="1.74992">
        <ele>175</ele>
        <time>2012-07-24T09:20:05.000Z</time>
      </trkpt>
      <trkpt lat="48.70921" lon="1.74981">
        <ele>175.19999694824</ele>
        <time>2012-07-24T09:20:13.000Z</time>
      </trkpt>
      <trkpt lat="48.70931" lon="1.74965">
        <ele>175.60000610352</ele>
        <time>2012-07-24T09:20:24.000Z</time>
      </trkpt>
      <trkpt lat="48.70938" lon="1.74953">
        <ele>176</ele>
        <time>2012-07-24T09:20:33.000Z</time>
      </trkpt>
      <trkpt lat="48.70946" lon="1.7494">
        <ele>176.19999694824</ele>
        <time>2012-07-24T09:20:41.000Z</time>
      </trkpt>
      <trkpt lat="48.70953" lon="1.74932">
        <ele>176.60000610352</ele>
        <time>2012-07-24T09:20:49.000Z</time>
      </trkpt>
      <trkpt lat="48.7096" lon="1.74925">
        <ele>177</ele>
        <time>2012-07-24T09:20:56.000Z</time>
      </trkpt>
      <trkpt lat="48.70969" lon="1.74914">
        <ele>177.60000610352</ele>
        <time>2012-07-24T09:21:05.000Z</time>
      </trkpt>
      <trkpt lat="48.70974" lon="1.74905">
        <ele>177.80000305176</ele>
        <time>2012-07-24T09:21:11.000Z</time>
      </trkpt>
      <trkpt lat="48.70979" lon="1.74899">
        <ele>178.19999694824</ele>
        <time>2012-07-24T09:21:17.000Z</time>
      </trkpt>
      <trkpt lat="48.70983" lon="1.74892">
        <ele>178.39999389648</ele>
        <time>2012-07-24T09:21:22.000Z</time>
      </trkpt>
      <trkpt lat="48.7099" lon="1.74887">
        <ele>178.60000610352</ele>
        <time>2012-07-24T09:21:28.000Z</time>
      </trkpt>
      <trkpt lat="48.70994" lon="1.74881">
        <ele>178.80000305176</ele>
        <time>2012-07-24T09:21:32.000Z</time>
      </trkpt>
      <trkpt lat="48.70997" lon="1.74874">
        <ele>179</ele>
        <time>2012-07-24T09:21:35.000Z</time>
      </trkpt>
      <trkpt lat="48.71005" lon="1.74867">
        <ele>178.80000305176</ele>
        <time>2012-07-24T09:21:41.000Z</time>
      </trkpt>
      <trkpt lat="48.71008" lon="1.74862">
        <ele>178.60000610352</ele>
        <time>2012-07-24T09:21:45.000Z</time>
      </trkpt>
      <trkpt lat="48.71011" lon="1.74855">
        <ele>178.39999389648</ele>
        <time>2012-07-24T09:21:50.000Z</time>
      </trkpt>
      <trkpt lat="48.71012" lon="1.74853">
        <ele>178.39999389648</ele>
        <time>2012-07-24T09:21:51.000Z</time>
      </trkpt>
      <trkpt lat="48.71014" lon="1.7484">
        <ele>178.19999694824</ele>
        <time>2012-07-24T09:21:57.000Z</time>
      </trkpt>
      <trkpt lat="48.71008" lon="1.74832">
        <ele>178.39999389648</ele>
        <time>2012-07-24T09:22:02.000Z</time>
      </trkpt>
      <trkpt lat="48.71002" lon="1.74826">
        <ele>178.80000305176</ele>
        <time>2012-07-24T09:22:08.000Z</time>
      </trkpt>
      <trkpt lat="48.70994" lon="1.74815">
        <ele>178.80000305176</ele>
        <time>2012-07-24T09:22:17.000Z</time>
      </trkpt>
      <trkpt lat="48.70985" lon="1.74805">
        <ele>178.60000610352</ele>
        <time>2012-07-24T09:22:26.000Z</time>
      </trkpt>
      <trkpt lat="48.70976" lon="1.74794">
        <ele>178.39999389648</ele>
        <time>2012-07-24T09:22:36.000Z</time>
      </trkpt>
      <trkpt lat="48.70968" lon="1.74785">
        <ele>178.19999694824</ele>
        <time>2012-07-24T09:22:44.000Z</time>
      </trkpt>
      <trkpt lat="48.7096" lon="1.74774">
        <ele>178.19999694824</ele>
        <time>2012-07-24T09:22:53.000Z</time>
      </trkpt>
      <trkpt lat="48.70951" lon="1.74758">
        <ele>178</ele>
        <time>2012-07-24T09:23:03.000Z</time>
      </trkpt>
      <trkpt lat="48.70942" lon="1.74744">
        <ele>178</ele>
        <time>2012-07-24T09:23:13.000Z</time>
      </trkpt>
      <trkpt lat="48.70935" lon="1.74734">
        <ele>177.80000305176</ele>
        <time>2012-07-24T09:23:21.000Z</time>
      </trkpt>
      <trkpt lat="48.70925" lon="1.74718">
        <ele>177.39999389648</ele>
        <time>2012-07-24T09:23:31.000Z</time>
      </trkpt>
      <trkpt lat="48.70916" lon="1.74709">
        <ele>177</ele>
        <time>2012-07-24T09:23:40.000Z</time>
      </trkpt>
      <trkpt lat="48.70909" lon="1.747">
        <ele>176.80000305176</ele>
        <time>2012-07-24T09:23:47.000Z</time>
      </trkpt>
      <trkpt lat="48.70901" lon="1.7469">
        <ele>176.60000610352</ele>
        <time>2012-07-24T09:23:55.000Z</time>
      </trkpt>
      <trkpt lat="48.70896" lon="1.74683">
        <ele>176.60000610352</ele>
        <time>2012-07-24T09:24:01.000Z</time>
      </trkpt>
      <trkpt lat="48.70892" lon="1.74679">
        <ele>176.39999389648</ele>
        <time>2012-07-24T09:24:05.000Z</time>
      </trkpt>
      <trkpt lat="48.70882" lon="1.74667">
        <ele>176</ele>
        <time>2012-07-24T09:24:15.000Z</time>
      </trkpt>
      <trkpt lat="48.70875" lon="1.74655">
        <ele>176</ele>
        <time>2012-07-24T09:24:24.000Z</time>
      </trkpt>
      <trkpt lat="48.70866" lon="1.74644">
        <ele>175.80000305176</ele>
        <time>2012-07-24T09:24:33.000Z</time>
      </trkpt>
      <trkpt lat="48.70858" lon="1.74633">
        <ele>175.80000305176</ele>
        <time>2012-07-24T09:24:42.000Z</time>
      </trkpt>
      <trkpt lat="48.70848" lon="1.74619">
        <ele>175.80000305176</ele>
        <time>2012-07-24T09:24:52.000Z</time>
      </trkpt>
      <trkpt lat="48.7084" lon="1.74607">
        <ele>176</ele>
        <time>2012-07-24T09:25:01.000Z</time>
      </trkpt>
      <trkpt lat="48.70831" lon="1.74596">
        <ele>176</ele>
        <time>2012-07-24T09:25:10.000Z</time>
      </trkpt>
      <trkpt lat="48.70821" lon="1.74583">
        <ele>176.19999694824</ele>
        <time>2012-07-24T09:25:20.000Z</time>
      </trkpt>
      <trkpt lat="48.70814" lon="1.74573">
        <ele>176.19999694824</ele>
        <time>2012-07-24T09:25:28.000Z</time>
      </trkpt>
      <trkpt lat="48.70805" lon="1.74563">
        <ele>176.39999389648</ele>
        <time>2012-07-24T09:25:38.000Z</time>
      </trkpt>
      <trkpt lat="48.70798" lon="1.74553">
        <ele>176.39999389648</ele>
        <time>2012-07-24T09:25:46.000Z</time>
      </trkpt>
      <trkpt lat="48.70797" lon="1.74552">
        <ele>176.39999389648</ele>
        <time>2012-07-24T09:25:47.000Z</time>
      </trkpt>
      <trkpt lat="48.70789" lon="1.74542">
        <ele>176.60000610352</ele>
        <time>2012-07-24T09:25:55.000Z</time>
      </trkpt>
      <trkpt lat="48.70786" lon="1.74539">
        <ele>176.60000610352</ele>
        <time>2012-07-24T09:25:58.000Z</time>
      </trkpt>
      <trkpt lat="48.70779" lon="1.74531">
        <ele>176.60000610352</ele>
        <time>2012-07-24T09:26:05.000Z</time>
      </trkpt>
      <trkpt lat="48.70776" lon="1.74528">
        <ele>176.60000610352</ele>
        <time>2012-07-24T09:26:08.000Z</time>
      </trkpt>
      <trkpt lat="48.7077" lon="1.74519">
        <ele>176.80000305176</ele>
        <time>2012-07-24T09:26:15.000Z</time>
      </trkpt>
      <trkpt lat="48.70767" lon="1.74515">
        <ele>176.80000305176</ele>
        <time>2012-07-24T09:26:18.000Z</time>
      </trkpt>
      <trkpt lat="48.70762" lon="1.7451">
        <ele>176.80000305176</ele>
        <time>2012-07-24T09:26:22.000Z</time>
      </trkpt>
      <trkpt lat="48.70756" lon="1.74504">
        <ele>177</ele>
        <time>2012-07-24T09:26:27.000Z</time>
      </trkpt>
      <trkpt lat="48.70754" lon="1.74501">
        <ele>177</ele>
        <time>2012-07-24T09:26:29.000Z</time>
      </trkpt>
      <trkpt lat="48.7075" lon="1.74496">
        <ele>177</ele>
        <time>2012-07-24T09:26:34.000Z</time>
      </trkpt>
      <trkpt lat="48.70743" lon="1.74491">
        <ele>177.39999389648</ele>
        <time>2012-07-24T09:26:39.000Z</time>
      </trkpt>
      <trkpt lat="48.70742" lon="1.74488">
        <ele>177.39999389648</ele>
        <time>2012-07-24T09:26:41.000Z</time>
      </trkpt>
      <trkpt lat="48.70737" lon="1.74484">
        <ele>177.60000610352</ele>
        <time>2012-07-24T09:26:46.000Z</time>
      </trkpt>
      <trkpt lat="48.70733" lon="1.74479">
        <ele>177.80000305176</ele>
        <time>2012-07-24T09:26:50.000Z</time>
      </trkpt>
      <trkpt lat="48.70727" lon="1.74467">
        <ele>178.19999694824</ele>
        <time>2012-07-24T09:26:59.000Z</time>
      </trkpt>
      <trkpt lat="48.70726" lon="1.74461">
        <ele>178.39999389648</ele>
        <time>2012-07-24T09:27:02.000Z</time>
      </trkpt>
      <trkpt lat="48.70727" lon="1.74457">
        <ele>178.39999389648</ele>
        <time>2012-07-24T09:27:04.000Z</time>
      </trkpt>
      <trkpt lat="48.70733" lon="1.74452">
        <ele>178.19999694824</ele>
        <time>2012-07-24T09:27:10.000Z</time>
      </trkpt>
      <trkpt lat="48.70742" lon="1.74445">
        <ele>178</ele>
        <time>2012-07-24T09:27:17.000Z</time>
      </trkpt>
      <trkpt lat="48.70748" lon="1.74441">
        <ele>177.80000305176</ele>
        <time>2012-07-24T09:27:23.000Z</time>
      </trkpt>
      <trkpt lat="48.70754" lon="1.74439">
        <ele>177.60000610352</ele>
        <time>2012-07-24T09:27:29.000Z</time>
      </trkpt>
      <trkpt lat="48.70762" lon="1.74434">
        <ele>177.60000610352</ele>
        <time>2012-07-24T09:27:35.000Z</time>
      </trkpt>
      <trkpt lat="48.70771" lon="1.74429">
        <ele>177.39999389648</ele>
        <time>2012-07-24T09:27:42.000Z</time>
      </trkpt>
      <trkpt lat="48.70778" lon="1.74425">
        <ele>177.19999694824</ele>
        <time>2012-07-24T09:27:48.000Z</time>
      </trkpt>
      <trkpt lat="48.70779" lon="1.74425">
        <ele>177.19999694824</ele>
        <time>2012-07-24T09:27:51.000Z</time>
      </trkpt>
      <trkpt lat="48.70782" lon="1.74422">
        <ele>177.19999694824</ele>
        <time>2012-07-24T09:28:06.000Z</time>
      </trkpt>
      <trkpt lat="48.70781" lon="1.74421">
        <ele>177.19999694824</ele>
        <time>2012-07-24T09:28:09.000Z</time>
      </trkpt>
      <trkpt lat="48.70797" lon="1.74415">
        <ele>177</ele>
        <time>2012-07-24T09:30:23.000Z</time>
      </trkpt>
      <trkpt lat="48.70804" lon="1.7441">
        <ele>176.80000305176</ele>
        <time>2012-07-24T09:30:28.000Z</time>
      </trkpt>
      <trkpt lat="48.7081" lon="1.74405">
        <ele>176.80000305176</ele>
        <time>2012-07-24T09:30:34.000Z</time>
      </trkpt>
      <trkpt lat="48.7082" lon="1.74398">
        <ele>176.60000610352</ele>
        <time>2012-07-24T09:30:43.000Z</time>
      </trkpt>
      <trkpt lat="48.70829" lon="1.7439">
        <ele>176.39999389648</ele>
        <time>2012-07-24T09:30:51.000Z</time>
      </trkpt>
      <trkpt lat="48.70834" lon="1.74385">
        <ele>176.39999389648</ele>
        <time>2012-07-24T09:30:56.000Z</time>
      </trkpt>
      <trkpt lat="48.70836" lon="1.74381">
        <ele>176.39999389648</ele>
        <time>2012-07-24T09:30:59.000Z</time>
      </trkpt>
      <trkpt lat="48.70841" lon="1.74374">
        <ele>176.39999389648</ele>
        <time>2012-07-24T09:31:05.000Z</time>
      </trkpt>
      <trkpt lat="48.70849" lon="1.74362">
        <ele>176.39999389648</ele>
        <time>2012-07-24T09:31:14.000Z</time>
      </trkpt>
      <trkpt lat="48.70853" lon="1.74357">
        <ele>176.39999389648</ele>
        <time>2012-07-24T09:31:19.000Z</time>
      </trkpt>
      <trkpt lat="48.70858" lon="1.74345">
        <ele>176.60000610352</ele>
        <time>2012-07-24T09:31:27.000Z</time>
      </trkpt>
      <trkpt lat="48.70859" lon="1.74344">
        <ele>176.60000610352</ele>
        <time>2012-07-24T09:31:28.000Z</time>
      </trkpt>
      <trkpt lat="48.70862" lon="1.74337">
        <ele>176.60000610352</ele>
        <time>2012-07-24T09:31:32.000Z</time>
      </trkpt>
      <trkpt lat="48.70863" lon="1.74335">
        <ele>176.60000610352</ele>
        <time>2012-07-24T09:31:34.000Z</time>
      </trkpt>
      <trkpt lat="48.70867" lon="1.74328">
        <ele>176.80000305176</ele>
        <time>2012-07-24T09:31:39.000Z</time>
      </trkpt>
      <trkpt lat="48.70871" lon="1.74318">
        <ele>177.19999694824</ele>
        <time>2012-07-24T09:31:46.000Z</time>
      </trkpt>
      <trkpt lat="48.70877" lon="1.74307">
        <ele>177.80000305176</ele>
        <time>2012-07-24T09:31:55.000Z</time>
      </trkpt>
      <trkpt lat="48.70881" lon="1.74299">
        <ele>178.19999694824</ele>
        <time>2012-07-24T09:32:02.000Z</time>
      </trkpt>
      <trkpt lat="48.70882" lon="1.74297">
        <ele>178.19999694824</ele>
        <time>2012-07-24T09:32:04.000Z</time>
      </trkpt>
      <trkpt lat="48.70886" lon="1.74288">
        <ele>178.60000610352</ele>
        <time>2012-07-24T09:32:11.000Z</time>
      </trkpt>
      <trkpt lat="48.70888" lon="1.74286">
        <ele>178.80000305176</ele>
        <time>2012-07-24T09:32:13.000Z</time>
      </trkpt>
      <trkpt lat="48.70892" lon="1.74275">
        <ele>179.39999389648</ele>
        <time>2012-07-24T09:32:20.000Z</time>
      </trkpt>
      <trkpt lat="48.70894" lon="1.74271">
        <ele>179.60000610352</ele>
        <time>2012-07-24T09:32:23.000Z</time>
      </trkpt>
      <trkpt lat="48.70896" lon="1.7427">
        <ele>179.60000610352</ele>
        <time>2012-07-24T09:32:25.000Z</time>
      </trkpt>
      <trkpt lat="48.70901" lon="1.74258">
        <ele>180.39999389648</ele>
        <time>2012-07-24T09:32:33.000Z</time>
      </trkpt>
      <trkpt lat="48.70902" lon="1.74259">
        <ele>180.39999389648</ele>
        <time>2012-07-24T09:32:36.000Z</time>
      </trkpt>
      <trkpt lat="48.70903" lon="1.74236">
        <ele>181.19999694824</ele>
        <time>2012-07-24T09:32:57.000Z</time>
      </trkpt>
      <trkpt lat="48.70903" lon="1.74232">
        <ele>181.39999389648</ele>
        <time>2012-07-24T09:33:01.000Z</time>
      </trkpt>
      <trkpt lat="48.70919" lon="1.74198">
        <ele>182.19999694824</ele>
        <time>2012-07-24T09:34:26.000Z</time>
      </trkpt>
      <trkpt lat="48.70921" lon="1.74187">
        <ele>182.39999389648</ele>
        <time>2012-07-24T09:34:31.000Z</time>
      </trkpt>
      <trkpt lat="48.70924" lon="1.74177">
        <ele>182.39999389648</ele>
        <time>2012-07-24T09:34:37.000Z</time>
      </trkpt>
      <trkpt lat="48.70925" lon="1.74161">
        <ele>182.80000305176</ele>
        <time>2012-07-24T09:34:45.000Z</time>
      </trkpt>
      <trkpt lat="48.7093" lon="1.74145">
        <ele>182.60000610352</ele>
        <time>2012-07-24T09:34:54.000Z</time>
      </trkpt>
      <trkpt lat="48.70933" lon="1.74138">
        <ele>182.60000610352</ele>
        <time>2012-07-24T09:34:59.000Z</time>
      </trkpt>
      <trkpt lat="48.70935" lon="1.74123">
        <ele>182.60000610352</ele>
        <time>2012-07-24T09:35:07.000Z</time>
      </trkpt>
      <trkpt lat="48.70941" lon="1.74108">
        <ele>182.60000610352</ele>
        <time>2012-07-24T09:35:17.000Z</time>
      </trkpt>
      <trkpt lat="48.70943" lon="1.74095">
        <ele>182.60000610352</ele>
        <time>2012-07-24T09:35:23.000Z</time>
      </trkpt>
      <trkpt lat="48.70944" lon="1.74082">
        <ele>182.60000610352</ele>
        <time>2012-07-24T09:35:30.000Z</time>
      </trkpt>
      <trkpt lat="48.70948" lon="1.7407">
        <ele>182.60000610352</ele>
        <time>2012-07-24T09:35:37.000Z</time>
      </trkpt>
      <trkpt lat="48.70952" lon="1.74059">
        <ele>182.60000610352</ele>
        <time>2012-07-24T09:35:44.000Z</time>
      </trkpt>
      <trkpt lat="48.70953" lon="1.74047">
        <ele>182.60000610352</ele>
        <time>2012-07-24T09:35:50.000Z</time>
      </trkpt>
      <trkpt lat="48.70956" lon="1.74032">
        <ele>182.60000610352</ele>
        <time>2012-07-24T09:35:58.000Z</time>
      </trkpt>
      <trkpt lat="48.7096" lon="1.7402">
        <ele>182.39999389648</ele>
        <time>2012-07-24T09:36:05.000Z</time>
      </trkpt>
      <trkpt lat="48.70962" lon="1.74017">
        <ele>182.39999389648</ele>
        <time>2012-07-24T09:36:08.000Z</time>
      </trkpt>
      <trkpt lat="48.70962" lon="1.7401">
        <ele>182.39999389648</ele>
        <time>2012-07-24T09:36:11.000Z</time>
      </trkpt>
      <trkpt lat="48.70962" lon="1.74003">
        <ele>182.39999389648</ele>
        <time>2012-07-24T09:36:12.000Z</time>
      </trkpt>
      <trkpt lat="48.70961" lon="1.73998">
        <ele>182.60000610352</ele>
        <time>2012-07-24T09:36:17.000Z</time>
      </trkpt>
      <trkpt lat="48.70963" lon="1.73989">
        <ele>182.60000610352</ele>
        <time>2012-07-24T09:36:38.000Z</time>
      </trkpt>
      <trkpt lat="48.70965" lon="1.73981">
        <ele>182.80000305176</ele>
        <time>2012-07-24T09:36:43.000Z</time>
      </trkpt>
      <trkpt lat="48.70968" lon="1.73967">
        <ele>183.19999694824</ele>
        <time>2012-07-24T09:36:51.000Z</time>
      </trkpt>
      <trkpt lat="48.70971" lon="1.73955">
        <ele>183.39999389648</ele>
        <time>2012-07-24T09:36:57.000Z</time>
      </trkpt>
      <trkpt lat="48.70972" lon="1.73953">
        <ele>183.39999389648</ele>
        <time>2012-07-24T09:36:58.000Z</time>
      </trkpt>
      <trkpt lat="48.70975" lon="1.73939">
        <ele>183.80000305176</ele>
        <time>2012-07-24T09:37:06.000Z</time>
      </trkpt>
      <trkpt lat="48.70978" lon="1.73924">
        <ele>184.19999694824</ele>
        <time>2012-07-24T09:37:14.000Z</time>
      </trkpt>
      <trkpt lat="48.70982" lon="1.73907">
        <ele>184.39999389648</ele>
        <time>2012-07-24T09:37:24.000Z</time>
      </trkpt>
      <trkpt lat="48.70985" lon="1.73892">
        <ele>184</ele>
        <time>2012-07-24T09:37:32.000Z</time>
      </trkpt>
      <trkpt lat="48.70988" lon="1.7388">
        <ele>183.80000305176</ele>
        <time>2012-07-24T09:37:39.000Z</time>
      </trkpt>
      <trkpt lat="48.70992" lon="1.73863">
        <ele>183.39999389648</ele>
        <time>2012-07-24T09:37:47.000Z</time>
      </trkpt>
      <trkpt lat="48.70996" lon="1.73843">
        <ele>183</ele>
        <time>2012-07-24T09:37:57.000Z</time>
      </trkpt>
      <trkpt lat="48.70999" lon="1.73825">
        <ele>182.80000305176</ele>
        <time>2012-07-24T09:38:06.000Z</time>
      </trkpt>
      <trkpt lat="48.71001" lon="1.73819">
        <ele>182.60000610352</ele>
        <time>2012-07-24T09:38:09.000Z</time>
      </trkpt>
      <trkpt lat="48.71004" lon="1.73812">
        <ele>182.39999389648</ele>
        <time>2012-07-24T09:38:14.000Z</time>
      </trkpt>
      <trkpt lat="48.71011" lon="1.73802">
        <ele>182.19999694824</ele>
        <time>2012-07-24T09:38:22.000Z</time>
      </trkpt>
      <trkpt lat="48.71015" lon="1.73795">
        <ele>182.19999694824</ele>
        <time>2012-07-24T09:38:26.000Z</time>
      </trkpt>
      <trkpt lat="48.71023" lon="1.73789">
        <ele>182</ele>
        <time>2012-07-24T09:38:33.000Z</time>
      </trkpt>
      <trkpt lat="48.71031" lon="1.73781">
        <ele>182</ele>
        <time>2012-07-24T09:38:41.000Z</time>
      </trkpt>
      <trkpt lat="48.71034" lon="1.73777">
        <ele>182</ele>
        <time>2012-07-24T09:38:44.000Z</time>
      </trkpt>
      <trkpt lat="48.7104" lon="1.73769">
        <ele>182</ele>
        <time>2012-07-24T09:38:51.000Z</time>
      </trkpt>
      <trkpt lat="48.71048" lon="1.73759">
        <ele>182.19999694824</ele>
        <time>2012-07-24T09:38:58.000Z</time>
      </trkpt>
      <trkpt lat="48.71056" lon="1.7375">
        <ele>182.39999389648</ele>
        <time>2012-07-24T09:39:05.000Z</time>
      </trkpt>
      <trkpt lat="48.71064" lon="1.73743">
        <ele>182.19999694824</ele>
        <time>2012-07-24T09:39:13.000Z</time>
      </trkpt>
      <trkpt lat="48.71073" lon="1.73738">
        <ele>182.19999694824</ele>
        <time>2012-07-24T09:39:20.000Z</time>
      </trkpt>
      <trkpt lat="48.71081" lon="1.7373">
        <ele>182</ele>
        <time>2012-07-24T09:39:26.000Z</time>
      </trkpt>
      <trkpt lat="48.71091" lon="1.73717">
        <ele>181.60000610352</ele>
        <time>2012-07-24T09:39:35.000Z</time>
      </trkpt>
      <trkpt lat="48.71099" lon="1.73711">
        <ele>181.60000610352</ele>
        <time>2012-07-24T09:39:42.000Z</time>
      </trkpt>
      <trkpt lat="48.71105" lon="1.73704">
        <ele>181.39999389648</ele>
        <time>2012-07-24T09:39:48.000Z</time>
      </trkpt>
      <trkpt lat="48.71107" lon="1.73704">
        <ele>181.60000610352</ele>
        <time>2012-07-24T09:39:50.000Z</time>
      </trkpt>
      <trkpt lat="48.71115" lon="1.73695">
        <ele>181.60000610352</ele>
        <time>2012-07-24T09:39:58.000Z</time>
      </trkpt>
      <trkpt lat="48.71126" lon="1.73683">
        <ele>181.60000610352</ele>
        <time>2012-07-24T09:40:07.000Z</time>
      </trkpt>
      <trkpt lat="48.71136" lon="1.7367">
        <ele>181.60000610352</ele>
        <time>2012-07-24T09:40:16.000Z</time>
      </trkpt>
      <trkpt lat="48.71147" lon="1.73659">
        <ele>181.80000305176</ele>
        <time>2012-07-24T09:40:26.000Z</time>
      </trkpt>
      <trkpt lat="48.71157" lon="1.73648">
        <ele>182</ele>
        <time>2012-07-24T09:40:35.000Z</time>
      </trkpt>
      <trkpt lat="48.71164" lon="1.73642">
        <ele>182</ele>
        <time>2012-07-24T09:40:42.000Z</time>
      </trkpt>
      <trkpt lat="48.7117" lon="1.73636">
        <ele>182</ele>
        <time>2012-07-24T09:40:48.000Z</time>
      </trkpt>
      <trkpt lat="48.71178" lon="1.73627">
        <ele>181.80000305176</ele>
        <time>2012-07-24T09:40:56.000Z</time>
      </trkpt>
      <trkpt lat="48.71186" lon="1.73619">
        <ele>182</ele>
        <time>2012-07-24T09:41:04.000Z</time>
      </trkpt>
      <trkpt lat="48.71193" lon="1.73604">
        <ele>182</ele>
        <time>2012-07-24T09:41:13.000Z</time>
      </trkpt>
      <trkpt lat="48.71191" lon="1.73593">
        <ele>181.60000610352</ele>
        <time>2012-07-24T09:41:20.000Z</time>
      </trkpt>
      <trkpt lat="48.71188" lon="1.73585">
        <ele>181.39999389648</ele>
        <time>2012-07-24T09:41:25.000Z</time>
      </trkpt>
      <trkpt lat="48.71184" lon="1.73567">
        <ele>181</ele>
        <time>2012-07-24T09:41:34.000Z</time>
      </trkpt>
      <trkpt lat="48.71181" lon="1.7356">
        <ele>181</ele>
        <time>2012-07-24T09:41:38.000Z</time>
      </trkpt>
      <trkpt lat="48.71177" lon="1.73551">
        <ele>180.80000305176</ele>
        <time>2012-07-24T09:41:44.000Z</time>
      </trkpt>
      <trkpt lat="48.71173" lon="1.73533">
        <ele>180.80000305176</ele>
        <time>2012-07-24T09:41:53.000Z</time>
      </trkpt>
      <trkpt lat="48.71171" lon="1.73522">
        <ele>180.80000305176</ele>
        <time>2012-07-24T09:41:58.000Z</time>
      </trkpt>
      <trkpt lat="48.71169" lon="1.73513">
        <ele>180.80000305176</ele>
        <time>2012-07-24T09:42:03.000Z</time>
      </trkpt>
      <trkpt lat="48.71166" lon="1.73501">
        <ele>181</ele>
        <time>2012-07-24T09:42:10.000Z</time>
      </trkpt>
      <trkpt lat="48.71165" lon="1.73496">
        <ele>181</ele>
        <time>2012-07-24T09:42:12.000Z</time>
      </trkpt>
      <trkpt lat="48.71162" lon="1.73482">
        <ele>181.19999694824</ele>
        <time>2012-07-24T09:42:18.000Z</time>
      </trkpt>
      <trkpt lat="48.71166" lon="1.73469">
        <ele>181.80000305176</ele>
        <time>2012-07-24T09:42:26.000Z</time>
      </trkpt>
      <trkpt lat="48.71166" lon="1.73457">
        <ele>182</ele>
        <time>2012-07-24T09:42:33.000Z</time>
      </trkpt>
      <trkpt lat="48.71169" lon="1.73445">
        <ele>182.39999389648</ele>
        <time>2012-07-24T09:42:39.000Z</time>
      </trkpt>
      <trkpt lat="48.7117" lon="1.73439">
        <ele>182.39999389648</ele>
        <time>2012-07-24T09:42:42.000Z</time>
      </trkpt>
      <trkpt lat="48.71173" lon="1.73422">
        <ele>182.80000305176</ele>
        <time>2012-07-24T09:42:50.000Z</time>
      </trkpt>
      <trkpt lat="48.71173" lon="1.73407">
        <ele>183</ele>
        <time>2012-07-24T09:42:56.000Z</time>
      </trkpt>
      <trkpt lat="48.71175" lon="1.73388">
        <ele>183.19999694824</ele>
        <time>2012-07-24T09:43:04.000Z</time>
      </trkpt>
      <trkpt lat="48.71176" lon="1.73375">
        <ele>183.39999389648</ele>
        <time>2012-07-24T09:43:10.000Z</time>
      </trkpt>
      <trkpt lat="48.71176" lon="1.73373">
        <ele>183.39999389648</ele>
        <time>2012-07-24T09:43:11.000Z</time>
      </trkpt>
      <trkpt lat="48.71179" lon="1.73366">
        <ele>183.39999389648</ele>
        <time>2012-07-24T09:43:16.000Z</time>
      </trkpt>
      <trkpt lat="48.71181" lon="1.73357">
        <ele>183.39999389648</ele>
        <time>2012-07-24T09:43:21.000Z</time>
      </trkpt>
      <trkpt lat="48.71181" lon="1.73353">
        <ele>183.39999389648</ele>
        <time>2012-07-24T09:43:28.000Z</time>
      </trkpt>
      <trkpt lat="48.71184" lon="1.73346">
        <ele>183.39999389648</ele>
        <time>2012-07-24T09:43:34.000Z</time>
      </trkpt>
      <trkpt lat="48.71187" lon="1.73341">
        <ele>183.39999389648</ele>
        <time>2012-07-24T09:43:37.000Z</time>
      </trkpt>
      <trkpt lat="48.71189" lon="1.73339">
        <ele>183.39999389648</ele>
        <time>2012-07-24T09:43:39.000Z</time>
      </trkpt>
      <trkpt lat="48.71192" lon="1.73324">
        <ele>183.39999389648</ele>
        <time>2012-07-24T09:43:47.000Z</time>
      </trkpt>
      <trkpt lat="48.71195" lon="1.73313">
        <ele>183.39999389648</ele>
        <time>2012-07-24T09:43:55.000Z</time>
      </trkpt>
      <trkpt lat="48.71196" lon="1.7331">
        <ele>183.39999389648</ele>
        <time>2012-07-24T09:43:57.000Z</time>
      </trkpt>
      <trkpt lat="48.71201" lon="1.73298">
        <ele>183.39999389648</ele>
        <time>2012-07-24T09:44:06.000Z</time>
      </trkpt>
      <trkpt lat="48.71202" lon="1.73284">
        <ele>183.39999389648</ele>
        <time>2012-07-24T09:44:12.000Z</time>
      </trkpt>
      <trkpt lat="48.71205" lon="1.73268">
        <ele>183.60000610352</ele>
        <time>2012-07-24T09:44:19.000Z</time>
      </trkpt>
      <trkpt lat="48.71206" lon="1.73265">
        <ele>183.60000610352</ele>
        <time>2012-07-24T09:44:22.000Z</time>
      </trkpt>
      <trkpt lat="48.71212" lon="1.73253">
        <ele>183.39999389648</ele>
        <time>2012-07-24T09:44:32.000Z</time>
      </trkpt>
      <trkpt lat="48.71215" lon="1.73245">
        <ele>183.19999694824</ele>
        <time>2012-07-24T09:44:37.000Z</time>
      </trkpt>
      <trkpt lat="48.71215" lon="1.73244">
        <ele>183.19999694824</ele>
        <time>2012-07-24T09:44:38.000Z</time>
      </trkpt>
      <trkpt lat="48.71216" lon="1.7323">
        <ele>183.19999694824</ele>
        <time>2012-07-24T09:44:44.000Z</time>
      </trkpt>
      <trkpt lat="48.71219" lon="1.73216">
        <ele>183.19999694824</ele>
        <time>2012-07-24T09:44:51.000Z</time>
      </trkpt>
      <trkpt lat="48.7122" lon="1.73211">
        <ele>183</ele>
        <time>2012-07-24T09:44:54.000Z</time>
      </trkpt>
      <trkpt lat="48.71224" lon="1.73198">
        <ele>183</ele>
        <time>2012-07-24T09:45:02.000Z</time>
      </trkpt>
      <trkpt lat="48.71227" lon="1.73184">
        <ele>182.80000305176</ele>
        <time>2012-07-24T09:45:12.000Z</time>
      </trkpt>
      <trkpt lat="48.71228" lon="1.73171">
        <ele>182.80000305176</ele>
        <time>2012-07-24T09:45:17.000Z</time>
      </trkpt>
      <trkpt lat="48.71229" lon="1.73166">
        <ele>182.80000305176</ele>
        <time>2012-07-24T09:45:21.000Z</time>
      </trkpt>
      <trkpt lat="48.71229" lon="1.7316">
        <ele>182.80000305176</ele>
        <time>2012-07-24T09:45:27.000Z</time>
      </trkpt>
      <trkpt lat="48.71233" lon="1.73149">
        <ele>182.60000610352</ele>
        <time>2012-07-24T09:45:36.000Z</time>
      </trkpt>
      <trkpt lat="48.71235" lon="1.73142">
        <ele>182.60000610352</ele>
        <time>2012-07-24T09:45:39.000Z</time>
      </trkpt>
      <trkpt lat="48.71237" lon="1.73131">
        <ele>182.60000610352</ele>
        <time>2012-07-24T09:45:47.000Z</time>
      </trkpt>
      <trkpt lat="48.71239" lon="1.73128">
        <ele>182.60000610352</ele>
        <time>2012-07-24T09:45:49.000Z</time>
      </trkpt>
      <trkpt lat="48.71243" lon="1.73111">
        <ele>182.60000610352</ele>
        <time>2012-07-24T09:46:00.000Z</time>
      </trkpt>
      <trkpt lat="48.71246" lon="1.73098">
        <ele>182.80000305176</ele>
        <time>2012-07-24T09:46:08.000Z</time>
      </trkpt>
      <trkpt lat="48.71247" lon="1.73091">
        <ele>182.80000305176</ele>
        <time>2012-07-24T09:46:11.000Z</time>
      </trkpt>
      <trkpt lat="48.71247" lon="1.73081">
        <ele>183</ele>
        <time>2012-07-24T09:46:15.000Z</time>
      </trkpt>
      <trkpt lat="48.71248" lon="1.73068">
        <ele>182.80000305176</ele>
        <time>2012-07-24T09:46:21.000Z</time>
      </trkpt>
      <trkpt lat="48.71257" lon="1.73054">
        <ele>182.19999694824</ele>
        <time>2012-07-24T09:46:30.000Z</time>
      </trkpt>
      <trkpt lat="48.71268" lon="1.73045">
        <ele>181.60000610352</ele>
        <time>2012-07-24T09:46:40.000Z</time>
      </trkpt>
      <trkpt lat="48.71276" lon="1.7304">
        <ele>181.19999694824</ele>
        <time>2012-07-24T09:46:46.000Z</time>
      </trkpt>
      <trkpt lat="48.71287" lon="1.73035">
        <ele>180.60000610352</ele>
        <time>2012-07-24T09:46:55.000Z</time>
      </trkpt>
      <trkpt lat="48.71296" lon="1.73027">
        <ele>180.39999389648</ele>
        <time>2012-07-24T09:47:04.000Z</time>
      </trkpt>
      <trkpt lat="48.71306" lon="1.73021">
        <ele>180</ele>
        <time>2012-07-24T09:47:13.000Z</time>
      </trkpt>
      <trkpt lat="48.71316" lon="1.73014">
        <ele>180</ele>
        <time>2012-07-24T09:47:21.000Z</time>
      </trkpt>
      <trkpt lat="48.71325" lon="1.73008">
        <ele>179.80000305176</ele>
        <time>2012-07-24T09:47:29.000Z</time>
      </trkpt>
      <trkpt lat="48.71334" lon="1.73001">
        <ele>179.80000305176</ele>
        <time>2012-07-24T09:47:37.000Z</time>
      </trkpt>
      <trkpt lat="48.71339" lon="1.72994">
        <ele>178.39999389648</ele>
        <time>2012-07-24T09:47:43.000Z</time>
      </trkpt>
      <trkpt lat="48.71343" lon="1.72986">
        <ele>177</ele>
        <time>2012-07-24T09:47:49.000Z</time>
      </trkpt>
      <trkpt lat="48.71348" lon="1.72973">
        <ele>175.60000610352</ele>
        <time>2012-07-24T09:47:57.000Z</time>
      </trkpt>
      <trkpt lat="48.71347" lon="1.72959">
        <ele>175.39999389648</ele>
        <time>2012-07-24T09:48:04.000Z</time>
      </trkpt>
      <trkpt lat="48.71346" lon="1.72945">
        <ele>175.39999389648</ele>
        <time>2012-07-24T09:48:13.000Z</time>
      </trkpt>
      <trkpt lat="48.71346" lon="1.72943">
        <ele>175.39999389648</ele>
        <time>2012-07-24T09:48:14.000Z</time>
      </trkpt>
      <trkpt lat="48.71344" lon="1.72937">
        <ele>175.80000305176</ele>
        <time>2012-07-24T09:48:18.000Z</time>
      </trkpt>
      <trkpt lat="48.71342" lon="1.72933">
        <ele>176.19999694824</ele>
        <time>2012-07-24T09:48:21.000Z</time>
      </trkpt>
      <trkpt lat="48.71341" lon="1.72926">
        <ele>176.19999694824</ele>
        <time>2012-07-24T09:48:28.000Z</time>
      </trkpt>
      <trkpt lat="48.7134" lon="1.72915">
        <ele>176.19999694824</ele>
        <time>2012-07-24T09:48:35.000Z</time>
      </trkpt>
      <trkpt lat="48.71338" lon="1.72902">
        <ele>176.19999694824</ele>
        <time>2012-07-24T09:48:43.000Z</time>
      </trkpt>
      <trkpt lat="48.71336" lon="1.72896">
        <ele>176.19999694824</ele>
        <time>2012-07-24T09:48:47.000Z</time>
      </trkpt>
      <trkpt lat="48.71336" lon="1.7289">
        <ele>176</ele>
        <time>2012-07-24T09:48:52.000Z</time>
      </trkpt>
      <trkpt lat="48.71334" lon="1.72878">
        <ele>176</ele>
        <time>2012-07-24T09:49:00.000Z</time>
      </trkpt>
      <trkpt lat="48.71333" lon="1.72868">
        <ele>175.80000305176</ele>
        <time>2012-07-24T09:49:06.000Z</time>
      </trkpt>
      <trkpt lat="48.71331" lon="1.72856">
        <ele>175.19999694824</ele>
        <time>2012-07-24T09:49:14.000Z</time>
      </trkpt>
      <trkpt lat="48.7133" lon="1.72853">
        <ele>175.19999694824</ele>
        <time>2012-07-24T09:49:16.000Z</time>
      </trkpt>
      <trkpt lat="48.7133" lon="1.72849">
        <ele>175</ele>
        <time>2012-07-24T09:49:18.000Z</time>
      </trkpt>
      <trkpt lat="48.71328" lon="1.72837">
        <ele>174.60000610352</ele>
        <time>2012-07-24T09:49:25.000Z</time>
      </trkpt>
      <trkpt lat="48.71327" lon="1.72833">
        <ele>174.39999389648</ele>
        <time>2012-07-24T09:49:27.000Z</time>
      </trkpt>
      <trkpt lat="48.71326" lon="1.72829">
        <ele>174.39999389648</ele>
        <time>2012-07-24T09:49:30.000Z</time>
      </trkpt>
      <trkpt lat="48.71326" lon="1.72822">
        <ele>173.80000305176</ele>
        <time>2012-07-24T09:49:36.000Z</time>
      </trkpt>
      <trkpt lat="48.71325" lon="1.72812">
        <ele>173.19999694824</ele>
        <time>2012-07-24T09:49:43.000Z</time>
      </trkpt>
      <trkpt lat="48.71325" lon="1.72806">
        <ele>173</ele>
        <time>2012-07-24T09:49:47.000Z</time>
      </trkpt>
      <trkpt lat="48.71323" lon="1.72792">
        <ele>172.19999694824</ele>
        <time>2012-07-24T09:49:53.000Z</time>
      </trkpt>
      <trkpt lat="48.71322" lon="1.7278">
        <ele>171.60000610352</ele>
        <time>2012-07-24T09:49:58.000Z</time>
      </trkpt>
      <trkpt lat="48.71319" lon="1.72765">
        <ele>171.19999694824</ele>
        <time>2012-07-24T09:50:05.000Z</time>
      </trkpt>
      <trkpt lat="48.71319" lon="1.72762">
        <ele>171</ele>
        <time>2012-07-24T09:50:07.000Z</time>
      </trkpt>
      <trkpt lat="48.71316" lon="1.72746">
        <ele>170.60000610352</ele>
        <time>2012-07-24T09:50:15.000Z</time>
      </trkpt>
      <trkpt lat="48.71315" lon="1.72734">
        <ele>170.19999694824</ele>
        <time>2012-07-24T09:50:22.000Z</time>
      </trkpt>
      <trkpt lat="48.71314" lon="1.72727">
        <ele>170.19999694824</ele>
        <time>2012-07-24T09:50:28.000Z</time>
      </trkpt>
      <trkpt lat="48.71313" lon="1.72721">
        <ele>170.39999389648</ele>
        <time>2012-07-24T09:50:32.000Z</time>
      </trkpt>
      <trkpt lat="48.71311" lon="1.7271">
        <ele>170.19999694824</ele>
        <time>2012-07-24T09:50:38.000Z</time>
      </trkpt>
      <trkpt lat="48.71311" lon="1.72707">
        <ele>170.19999694824</ele>
        <time>2012-07-24T09:50:40.000Z</time>
      </trkpt>
      <trkpt lat="48.71309" lon="1.72695">
        <ele>170.19999694824</ele>
        <time>2012-07-24T09:50:48.000Z</time>
      </trkpt>
      <trkpt lat="48.71309" lon="1.72692">
        <ele>170.19999694824</ele>
        <time>2012-07-24T09:50:50.000Z</time>
      </trkpt>
      <trkpt lat="48.71304" lon="1.72667">
        <ele>170.60000610352</ele>
        <time>2012-07-24T09:51:01.000Z</time>
      </trkpt>
      <trkpt lat="48.71304" lon="1.72653">
        <ele>171</ele>
        <time>2012-07-24T09:51:08.000Z</time>
      </trkpt>
      <trkpt lat="48.71302" lon="1.72639">
        <ele>171.39999389648</ele>
        <time>2012-07-24T09:51:16.000Z</time>
      </trkpt>
      <trkpt lat="48.713" lon="1.72629">
        <ele>172</ele>
        <time>2012-07-24T09:51:22.000Z</time>
      </trkpt>
      <trkpt lat="48.71296" lon="1.72615">
        <ele>173.19999694824</ele>
        <time>2012-07-24T09:51:28.000Z</time>
      </trkpt>
      <trkpt lat="48.71292" lon="1.726">
        <ele>174.19999694824</ele>
        <time>2012-07-24T09:51:36.000Z</time>
      </trkpt>
      <trkpt lat="48.71292" lon="1.72587">
        <ele>174.39999389648</ele>
        <time>2012-07-24T09:51:43.000Z</time>
      </trkpt>
      <trkpt lat="48.71291" lon="1.7257">
        <ele>174.19999694824</ele>
        <time>2012-07-24T09:51:51.000Z</time>
      </trkpt>
      <trkpt lat="48.7129" lon="1.72556">
        <ele>174.19999694824</ele>
        <time>2012-07-24T09:52:00.000Z</time>
      </trkpt>
      <trkpt lat="48.71289" lon="1.72546">
        <ele>174</ele>
        <time>2012-07-24T09:52:08.000Z</time>
      </trkpt>
      <trkpt lat="48.71288" lon="1.72539">
        <ele>173.80000305176</ele>
        <time>2012-07-24T09:52:15.000Z</time>
      </trkpt>
      <trkpt lat="48.71287" lon="1.72528">
        <ele>173.80000305176</ele>
        <time>2012-07-24T09:52:22.000Z</time>
      </trkpt>
      <trkpt lat="48.71287" lon="1.72522">
        <ele>173.80000305176</ele>
        <time>2012-07-24T09:52:26.000Z</time>
      </trkpt>
      <trkpt lat="48.71287" lon="1.72519">
        <ele>173.60000610352</ele>
        <time>2012-07-24T09:52:28.000Z</time>
      </trkpt>
      <trkpt lat="48.71286" lon="1.72514">
        <ele>173.60000610352</ele>
        <time>2012-07-24T09:52:31.000Z</time>
      </trkpt>
      <trkpt lat="48.71283" lon="1.72498">
        <ele>173.80000305176</ele>
        <time>2012-07-24T09:52:38.000Z</time>
      </trkpt>
      <trkpt lat="48.71281" lon="1.72481">
        <ele>173</ele>
        <time>2012-07-24T09:52:46.000Z</time>
      </trkpt>
      <trkpt lat="48.7128" lon="1.72474">
        <ele>173</ele>
        <time>2012-07-24T09:52:50.000Z</time>
      </trkpt>
      <trkpt lat="48.71277" lon="1.72465">
        <ele>173.19999694824</ele>
        <time>2012-07-24T09:52:54.000Z</time>
      </trkpt>
      <trkpt lat="48.71269" lon="1.72448">
        <ele>173.80000305176</ele>
        <time>2012-07-24T09:53:02.000Z</time>
      </trkpt>
      <trkpt lat="48.71264" lon="1.72428">
        <ele>173.60000610352</ele>
        <time>2012-07-24T09:53:11.000Z</time>
      </trkpt>
      <trkpt lat="48.71261" lon="1.72418">
        <ele>173.60000610352</ele>
        <time>2012-07-24T09:53:17.000Z</time>
      </trkpt>
      <trkpt lat="48.71258" lon="1.72405">
        <ele>174.39999389648</ele>
        <time>2012-07-24T09:53:23.000Z</time>
      </trkpt>
      <trkpt lat="48.71252" lon="1.72389">
        <ele>175.80000305176</ele>
        <time>2012-07-24T09:53:31.000Z</time>
      </trkpt>
      <trkpt lat="48.71246" lon="1.72372">
        <ele>176.60000610352</ele>
        <time>2012-07-24T09:53:41.000Z</time>
      </trkpt>
      <trkpt lat="48.71239" lon="1.72356">
        <ele>176.60000610352</ele>
        <time>2012-07-24T09:53:50.000Z</time>
      </trkpt>
      <trkpt lat="48.71236" lon="1.72346">
        <ele>176.80000305176</ele>
        <time>2012-07-24T09:53:56.000Z</time>
      </trkpt>
      <trkpt lat="48.7123" lon="1.72331">
        <ele>177</ele>
        <time>2012-07-24T09:54:05.000Z</time>
      </trkpt>
      <trkpt lat="48.71228" lon="1.72321">
        <ele>177.19999694824</ele>
        <time>2012-07-24T09:54:10.000Z</time>
      </trkpt>
      <trkpt lat="48.71224" lon="1.72307">
        <ele>177.60000610352</ele>
        <time>2012-07-24T09:54:18.000Z</time>
      </trkpt>
      <trkpt lat="48.71219" lon="1.72293">
        <ele>177.80000305176</ele>
        <time>2012-07-24T09:54:27.000Z</time>
      </trkpt>
      <trkpt lat="48.71213" lon="1.72279">
        <ele>177.80000305176</ele>
        <time>2012-07-24T09:54:36.000Z</time>
      </trkpt>
      <trkpt lat="48.71211" lon="1.72275">
        <ele>177.80000305176</ele>
        <time>2012-07-24T09:54:38.000Z</time>
      </trkpt>
      <trkpt lat="48.71206" lon="1.72264">
        <ele>177.80000305176</ele>
        <time>2012-07-24T09:54:45.000Z</time>
      </trkpt>
      <trkpt lat="48.71201" lon="1.7225">
        <ele>177.60000610352</ele>
        <time>2012-07-24T09:54:53.000Z</time>
      </trkpt>
      <trkpt lat="48.71197" lon="1.72237">
        <ele>176.60000610352</ele>
        <time>2012-07-24T09:55:01.000Z</time>
      </trkpt>
      <trkpt lat="48.71195" lon="1.72228">
        <ele>176</ele>
        <time>2012-07-24T09:55:05.000Z</time>
      </trkpt>
      <trkpt lat="48.71192" lon="1.72223">
        <ele>175.60000610352</ele>
        <time>2012-07-24T09:55:12.000Z</time>
      </trkpt>
      <trkpt lat="48.71174" lon="1.72158">
        <ele>171.19999694824</ele>
        <time>2012-07-24T09:57:06.000Z</time>
      </trkpt>
      <trkpt lat="48.71171" lon="1.7215">
        <ele>170.39999389648</ele>
        <time>2012-07-24T09:57:09.000Z</time>
      </trkpt>
      <trkpt lat="48.7117" lon="1.7215">
        <ele>170.39999389648</ele>
        <time>2012-07-24T09:57:10.000Z</time>
      </trkpt>
      <trkpt lat="48.71169" lon="1.72149">
        <ele>170.39999389648</ele>
        <time>2012-07-24T09:57:12.000Z</time>
      </trkpt>
      <trkpt lat="48.71169" lon="1.72142">
        <ele>169.60000610352</ele>
        <time>2012-07-24T09:57:17.000Z</time>
      </trkpt>
      <trkpt lat="48.71169" lon="1.72138">
        <ele>169.19999694824</ele>
        <time>2012-07-24T09:57:22.000Z</time>
      </trkpt>
      <trkpt lat="48.71166" lon="1.72134">
        <ele>169</ele>
        <time>2012-07-24T09:57:27.000Z</time>
      </trkpt>
      <trkpt lat="48.71165" lon="1.72132">
        <ele>169</ele>
        <time>2012-07-24T09:57:29.000Z</time>
      </trkpt>
      <trkpt lat="48.71162" lon="1.72123">
        <ele>168.39999389648</ele>
        <time>2012-07-24T09:57:36.000Z</time>
      </trkpt>
      <trkpt lat="48.7116" lon="1.72112">
        <ele>167.60000610352</ele>
        <time>2012-07-24T09:57:42.000Z</time>
      </trkpt>
      <trkpt lat="48.7116" lon="1.72104">
        <ele>166.80000305176</ele>
        <time>2012-07-24T09:57:45.000Z</time>
      </trkpt>
      <trkpt lat="48.71155" lon="1.72089">
        <ele>166</ele>
        <time>2012-07-24T09:57:52.000Z</time>
      </trkpt>
      <trkpt lat="48.71148" lon="1.72071">
        <ele>166</ele>
        <time>2012-07-24T09:58:00.000Z</time>
      </trkpt>
      <trkpt lat="48.71144" lon="1.72063">
        <ele>166.19999694824</ele>
        <time>2012-07-24T09:58:05.000Z</time>
      </trkpt>
      <trkpt lat="48.7114" lon="1.72051">
        <ele>166.39999389648</ele>
        <time>2012-07-24T09:58:11.000Z</time>
      </trkpt>
      <trkpt lat="48.71135" lon="1.72039">
        <ele>166.19999694824</ele>
        <time>2012-07-24T09:58:16.000Z</time>
      </trkpt>
      <trkpt lat="48.71129" lon="1.7203">
        <ele>166.19999694824</ele>
        <time>2012-07-24T09:58:23.000Z</time>
      </trkpt>
      <trkpt lat="48.71123" lon="1.72016">
        <ele>165.80000305176</ele>
        <time>2012-07-24T09:58:30.000Z</time>
      </trkpt>
      <trkpt lat="48.71117" lon="1.72">
        <ele>165</ele>
        <time>2012-07-24T09:58:38.000Z</time>
      </trkpt>
      <trkpt lat="48.7111" lon="1.71983">
        <ele>166.39999389648</ele>
        <time>2012-07-24T09:58:44.000Z</time>
      </trkpt>
      <trkpt lat="48.71105" lon="1.71964">
        <ele>167.80000305176</ele>
        <time>2012-07-24T09:58:49.000Z</time>
      </trkpt>
      <trkpt lat="48.71101" lon="1.71947">
        <ele>169</ele>
        <time>2012-07-24T09:58:57.000Z</time>
      </trkpt>
      <trkpt lat="48.71098" lon="1.71935">
        <ele>169.80000305176</ele>
        <time>2012-07-24T09:59:04.000Z</time>
      </trkpt>
      <trkpt lat="48.71092" lon="1.7192">
        <ele>170.80000305176</ele>
        <time>2012-07-24T09:59:12.000Z</time>
      </trkpt>
      <trkpt lat="48.71088" lon="1.71904">
        <ele>172.39999389648</ele>
        <time>2012-07-24T09:59:20.000Z</time>
      </trkpt>
      <trkpt lat="48.71083" lon="1.71893">
        <ele>173.60000610352</ele>
        <time>2012-07-24T09:59:26.000Z</time>
      </trkpt>
      <trkpt lat="48.71079" lon="1.7188">
        <ele>175.19999694824</ele>
        <time>2012-07-24T09:59:33.000Z</time>
      </trkpt>
      <trkpt lat="48.71075" lon="1.71869">
        <ele>176.60000610352</ele>
        <time>2012-07-24T09:59:39.000Z</time>
      </trkpt>
      <trkpt lat="48.71071" lon="1.71857">
        <ele>178</ele>
        <time>2012-07-24T09:59:43.000Z</time>
      </trkpt>
      <trkpt lat="48.71068" lon="1.71851">
        <ele>178.80000305176</ele>
        <time>2012-07-24T09:59:47.000Z</time>
      </trkpt>
      <trkpt lat="48.71064" lon="1.71841">
        <ele>180.19999694824</ele>
        <time>2012-07-24T09:59:53.000Z</time>
      </trkpt>
      <trkpt lat="48.71062" lon="1.7183">
        <ele>181.19999694824</ele>
        <time>2012-07-24T09:59:59.000Z</time>
      </trkpt>
      <trkpt lat="48.71061" lon="1.71827">
        <ele>181.19999694824</ele>
        <time>2012-07-24T10:00:01.000Z</time>
      </trkpt>
      <trkpt lat="48.7106" lon="1.71825">
        <ele>181.39999389648</ele>
        <time>2012-07-24T10:00:03.000Z</time>
      </trkpt>
      <trkpt lat="48.71059" lon="1.71815">
        <ele>181.80000305176</ele>
        <time>2012-07-24T10:00:10.000Z</time>
      </trkpt>
      <trkpt lat="48.71058" lon="1.71808">
        <ele>182</ele>
        <time>2012-07-24T10:00:15.000Z</time>
      </trkpt>
      <trkpt lat="48.71055" lon="1.71798">
        <ele>182.39999389648</ele>
        <time>2012-07-24T10:00:21.000Z</time>
      </trkpt>
      <trkpt lat="48.71051" lon="1.71787">
        <ele>183.19999694824</ele>
        <time>2012-07-24T10:00:27.000Z</time>
      </trkpt>
      <trkpt lat="48.71046" lon="1.71774">
        <ele>183.80000305176</ele>
        <time>2012-07-24T10:00:34.000Z</time>
      </trkpt>
      <trkpt lat="48.71044" lon="1.71763">
        <ele>184.39999389648</ele>
        <time>2012-07-24T10:00:40.000Z</time>
      </trkpt>
      <trkpt lat="48.71039" lon="1.7175">
        <ele>185.19999694824</ele>
        <time>2012-07-24T10:00:49.000Z</time>
      </trkpt>
      <trkpt lat="48.71033" lon="1.71735">
        <ele>185</ele>
        <time>2012-07-24T10:00:57.000Z</time>
      </trkpt>
      <trkpt lat="48.7103" lon="1.71729">
        <ele>185</ele>
        <time>2012-07-24T10:01:01.000Z</time>
      </trkpt>
      <trkpt lat="48.71027" lon="1.7172">
        <ele>184.80000305176</ele>
        <time>2012-07-24T10:01:08.000Z</time>
      </trkpt>
      <trkpt lat="48.71028" lon="1.71713">
        <ele>184.60000610352</ele>
        <time>2012-07-24T10:01:12.000Z</time>
      </trkpt>
      <trkpt lat="48.71026" lon="1.71704">
        <ele>184.39999389648</ele>
        <time>2012-07-24T10:01:19.000Z</time>
      </trkpt>
      <trkpt lat="48.71021" lon="1.7169">
        <ele>184.39999389648</ele>
        <time>2012-07-24T10:01:26.000Z</time>
      </trkpt>
      <trkpt lat="48.71018" lon="1.71684">
        <ele>184.39999389648</ele>
        <time>2012-07-24T10:01:30.000Z</time>
      </trkpt>
      <trkpt lat="48.71014" lon="1.71671">
        <ele>184.39999389648</ele>
        <time>2012-07-24T10:01:38.000Z</time>
      </trkpt>
      <trkpt lat="48.71008" lon="1.71653">
        <ele>184.60000610352</ele>
        <time>2012-07-24T10:01:49.000Z</time>
      </trkpt>
      <trkpt lat="48.71002" lon="1.71638">
        <ele>184.80000305176</ele>
        <time>2012-07-24T10:01:58.000Z</time>
      </trkpt>
      <trkpt lat="48.70993" lon="1.71623">
        <ele>184.60000610352</ele>
        <time>2012-07-24T10:02:08.000Z</time>
      </trkpt>
      <trkpt lat="48.70985" lon="1.71607">
        <ele>184.60000610352</ele>
        <time>2012-07-24T10:02:18.000Z</time>
      </trkpt>
      <trkpt lat="48.70977" lon="1.71599">
        <ele>184.80000305176</ele>
        <time>2012-07-24T10:02:26.000Z</time>
      </trkpt>
      <trkpt lat="48.70971" lon="1.71592">
        <ele>185</ele>
        <time>2012-07-24T10:02:32.000Z</time>
      </trkpt>
      <trkpt lat="48.70962" lon="1.71583">
        <ele>185.19999694824</ele>
        <time>2012-07-24T10:02:39.000Z</time>
      </trkpt>
      <trkpt lat="48.70952" lon="1.71575">
        <ele>185.60000610352</ele>
        <time>2012-07-24T10:02:46.000Z</time>
      </trkpt>
      <trkpt lat="48.70938" lon="1.71562">
        <ele>186.39999389648</ele>
        <time>2012-07-24T10:02:57.000Z</time>
      </trkpt>
      <trkpt lat="48.70926" lon="1.71551">
        <ele>187.19999694824</ele>
        <time>2012-07-24T10:03:07.000Z</time>
      </trkpt>
      <trkpt lat="48.70915" lon="1.71541">
        <ele>188</ele>
        <time>2012-07-24T10:03:15.000Z</time>
      </trkpt>
      <trkpt lat="48.70905" lon="1.71532">
        <ele>187.39999389648</ele>
        <time>2012-07-24T10:03:24.000Z</time>
      </trkpt>
      <trkpt lat="48.70893" lon="1.71521">
        <ele>186.80000305176</ele>
        <time>2012-07-24T10:03:34.000Z</time>
      </trkpt>
      <trkpt lat="48.70878" lon="1.71508">
        <ele>186</ele>
        <time>2012-07-24T10:03:46.000Z</time>
      </trkpt>
      <trkpt lat="48.70866" lon="1.71498">
        <ele>185.60000610352</ele>
        <time>2012-07-24T10:03:55.000Z</time>
      </trkpt>
      <trkpt lat="48.70861" lon="1.71493">
        <ele>185.19999694824</ele>
        <time>2012-07-24T10:03:59.000Z</time>
      </trkpt>
      <trkpt lat="48.70854" lon="1.71486">
        <ele>185</ele>
        <time>2012-07-24T10:04:05.000Z</time>
      </trkpt>
      <trkpt lat="48.70853" lon="1.71485">
        <ele>185</ele>
        <time>2012-07-24T10:04:06.000Z</time>
      </trkpt>
      <trkpt lat="48.70848" lon="1.71481">
        <ele>184.80000305176</ele>
        <time>2012-07-24T10:04:10.000Z</time>
      </trkpt>
      <trkpt lat="48.70838" lon="1.71474">
        <ele>184.39999389648</ele>
        <time>2012-07-24T10:04:18.000Z</time>
      </trkpt>
      <trkpt lat="48.70832" lon="1.71468">
        <ele>184.39999389648</ele>
        <time>2012-07-24T10:04:23.000Z</time>
      </trkpt>
      <trkpt lat="48.70825" lon="1.71463">
        <ele>184.39999389648</ele>
        <time>2012-07-24T10:04:28.000Z</time>
      </trkpt>
      <trkpt lat="48.70824" lon="1.71462">
        <ele>184.39999389648</ele>
        <time>2012-07-24T10:04:31.000Z</time>
      </trkpt>
      <trkpt lat="48.70818" lon="1.71458">
        <ele>184.39999389648</ele>
        <time>2012-07-24T10:04:38.000Z</time>
      </trkpt>
      <trkpt lat="48.7081" lon="1.7145">
        <ele>184.39999389648</ele>
        <time>2012-07-24T10:04:44.000Z</time>
      </trkpt>
      <trkpt lat="48.70797" lon="1.71439">
        <ele>184.39999389648</ele>
        <time>2012-07-24T10:04:55.000Z</time>
      </trkpt>
      <trkpt lat="48.70791" lon="1.7143">
        <ele>184.39999389648</ele>
        <time>2012-07-24T10:05:02.000Z</time>
      </trkpt>
      <trkpt lat="48.70779" lon="1.71422">
        <ele>184.39999389648</ele>
        <time>2012-07-24T10:05:12.000Z</time>
      </trkpt>
      <trkpt lat="48.70767" lon="1.71413">
        <ele>184.19999694824</ele>
        <time>2012-07-24T10:05:22.000Z</time>
      </trkpt>
      <trkpt lat="48.70758" lon="1.71405">
        <ele>184.39999389648</ele>
        <time>2012-07-24T10:05:29.000Z</time>
      </trkpt>
      <trkpt lat="48.70746" lon="1.71394">
        <ele>184.60000610352</ele>
        <time>2012-07-24T10:05:40.000Z</time>
      </trkpt>
      <trkpt lat="48.70732" lon="1.71382">
        <ele>185.19999694824</ele>
        <time>2012-07-24T10:05:51.000Z</time>
      </trkpt>
      <trkpt lat="48.70723" lon="1.71375">
        <ele>185.39999389648</ele>
        <time>2012-07-24T10:05:59.000Z</time>
      </trkpt>
      <trkpt lat="48.70709" lon="1.71363">
        <ele>186</ele>
        <time>2012-07-24T10:06:10.000Z</time>
      </trkpt>
      <trkpt lat="48.70699" lon="1.71353">
        <ele>186.19999694824</ele>
        <time>2012-07-24T10:06:19.000Z</time>
      </trkpt>
      <trkpt lat="48.70691" lon="1.71346">
        <ele>186.60000610352</ele>
        <time>2012-07-24T10:06:26.000Z</time>
      </trkpt>
      <trkpt lat="48.70682" lon="1.71339">
        <ele>186.80000305176</ele>
        <time>2012-07-24T10:06:34.000Z</time>
      </trkpt>
      <trkpt lat="48.70671" lon="1.71329">
        <ele>186.80000305176</ele>
        <time>2012-07-24T10:06:43.000Z</time>
      </trkpt>
      <trkpt lat="48.70663" lon="1.7132">
        <ele>186.80000305176</ele>
        <time>2012-07-24T10:06:51.000Z</time>
      </trkpt>
      <trkpt lat="48.70654" lon="1.71313">
        <ele>186.80000305176</ele>
        <time>2012-07-24T10:06:59.000Z</time>
      </trkpt>
      <trkpt lat="48.70648" lon="1.71307">
        <ele>186.60000610352</ele>
        <time>2012-07-24T10:07:04.000Z</time>
      </trkpt>
      <trkpt lat="48.70639" lon="1.71301">
        <ele>186.60000610352</ele>
        <time>2012-07-24T10:07:10.000Z</time>
      </trkpt>
      <trkpt lat="48.70629" lon="1.7129">
        <ele>186.39999389648</ele>
        <time>2012-07-24T10:07:17.000Z</time>
      </trkpt>
      <trkpt lat="48.7062" lon="1.71282">
        <ele>186.19999694824</ele>
        <time>2012-07-24T10:07:25.000Z</time>
      </trkpt>
      <trkpt lat="48.70611" lon="1.71273">
        <ele>186</ele>
        <time>2012-07-24T10:07:33.000Z</time>
      </trkpt>
      <trkpt lat="48.70603" lon="1.71265">
        <ele>185.60000610352</ele>
        <time>2012-07-24T10:07:40.000Z</time>
      </trkpt>
      <trkpt lat="48.706" lon="1.71262">
        <ele>185.60000610352</ele>
        <time>2012-07-24T10:07:42.000Z</time>
      </trkpt>
      <trkpt lat="48.70594" lon="1.71257">
        <ele>185.39999389648</ele>
        <time>2012-07-24T10:07:48.000Z</time>
      </trkpt>
      <trkpt lat="48.70588" lon="1.71254">
        <ele>185.19999694824</ele>
        <time>2012-07-24T10:07:53.000Z</time>
      </trkpt>
      <trkpt lat="48.70587" lon="1.71254">
        <ele>185.19999694824</ele>
        <time>2012-07-24T10:07:54.000Z</time>
      </trkpt>
      <trkpt lat="48.7058" lon="1.71248">
        <ele>185</ele>
        <time>2012-07-24T10:08:00.000Z</time>
      </trkpt>
      <trkpt lat="48.70573" lon="1.71241">
        <ele>185</ele>
        <time>2012-07-24T10:08:06.000Z</time>
      </trkpt>
      <trkpt lat="48.70563" lon="1.71231">
        <ele>184.80000305176</ele>
        <time>2012-07-24T10:08:13.000Z</time>
      </trkpt>
      <trkpt lat="48.70553" lon="1.71223">
        <ele>184.80000305176</ele>
        <time>2012-07-24T10:08:20.000Z</time>
      </trkpt>
      <trkpt lat="48.70543" lon="1.71216">
        <ele>184.80000305176</ele>
        <time>2012-07-24T10:08:27.000Z</time>
      </trkpt>
      <trkpt lat="48.70529" lon="1.71204">
        <ele>185</ele>
        <time>2012-07-24T10:08:37.000Z</time>
      </trkpt>
      <trkpt lat="48.70516" lon="1.71189">
        <ele>185</ele>
        <time>2012-07-24T10:08:47.000Z</time>
      </trkpt>
      <trkpt lat="48.7051" lon="1.71189">
        <ele>185</ele>
        <time>2012-07-24T10:08:54.000Z</time>
      </trkpt>
      <trkpt lat="48.70509" lon="1.71191">
        <ele>185.19999694824</ele>
        <time>2012-07-24T10:08:57.000Z</time>
      </trkpt>
      <trkpt lat="48.7049" lon="1.71189">
        <ele>185.39999389648</ele>
        <time>2012-07-24T10:09:59.000Z</time>
      </trkpt>
      <trkpt lat="48.70487" lon="1.71183">
        <ele>185.39999389648</ele>
        <time>2012-07-24T10:10:02.000Z</time>
      </trkpt>
      <trkpt lat="48.70484" lon="1.71179">
        <ele>185.39999389648</ele>
        <time>2012-07-24T10:10:05.000Z</time>
      </trkpt>
      <trkpt lat="48.7048" lon="1.71169">
        <ele>185.19999694824</ele>
        <time>2012-07-24T10:10:12.000Z</time>
      </trkpt>
      <trkpt lat="48.70477" lon="1.71161">
        <ele>185.19999694824</ele>
        <time>2012-07-24T10:10:17.000Z</time>
      </trkpt>
      <trkpt lat="48.70472" lon="1.71147">
        <ele>185.19999694824</ele>
        <time>2012-07-24T10:10:25.000Z</time>
      </trkpt>
      <trkpt lat="48.70465" lon="1.71138">
        <ele>185.19999694824</ele>
        <time>2012-07-24T10:10:33.000Z</time>
      </trkpt>
      <trkpt lat="48.70459" lon="1.71125">
        <ele>185.19999694824</ele>
        <time>2012-07-24T10:10:41.000Z</time>
      </trkpt>
      <trkpt lat="48.70456" lon="1.71118">
        <ele>185.19999694824</ele>
        <time>2012-07-24T10:10:46.000Z</time>
      </trkpt>
      <trkpt lat="48.70452" lon="1.71114">
        <ele>185.19999694824</ele>
        <time>2012-07-24T10:10:51.000Z</time>
      </trkpt>
      <trkpt lat="48.70447" lon="1.71101">
        <ele>185.19999694824</ele>
        <time>2012-07-24T10:10:58.000Z</time>
      </trkpt>
      <trkpt lat="48.70441" lon="1.71087">
        <ele>185</ele>
        <time>2012-07-24T10:11:07.000Z</time>
      </trkpt>
      <trkpt lat="48.70436" lon="1.71073">
        <ele>185.19999694824</ele>
        <time>2012-07-24T10:11:15.000Z</time>
      </trkpt>
      <trkpt lat="48.70432" lon="1.71058">
        <ele>185.39999389648</ele>
        <time>2012-07-24T10:11:24.000Z</time>
      </trkpt>
      <trkpt lat="48.70426" lon="1.71043">
        <ele>185.80000305176</ele>
        <time>2012-07-24T10:11:33.000Z</time>
      </trkpt>
      <trkpt lat="48.70421" lon="1.71029">
        <ele>186.19999694824</ele>
        <time>2012-07-24T10:11:40.000Z</time>
      </trkpt>
      <trkpt lat="48.70417" lon="1.71016">
        <ele>186.60000610352</ele>
        <time>2012-07-24T10:11:48.000Z</time>
      </trkpt>
      <trkpt lat="48.70416" lon="1.71013">
        <ele>186.60000610352</ele>
        <time>2012-07-24T10:11:50.000Z</time>
      </trkpt>
      <trkpt lat="48.70411" lon="1.71">
        <ele>187</ele>
        <time>2012-07-24T10:11:57.000Z</time>
      </trkpt>
      <trkpt lat="48.70407" lon="1.70985">
        <ele>187</ele>
        <time>2012-07-24T10:12:05.000Z</time>
      </trkpt>
      <trkpt lat="48.70403" lon="1.70975">
        <ele>186.80000305176</ele>
        <time>2012-07-24T10:12:12.000Z</time>
      </trkpt>
      <trkpt lat="48.70402" lon="1.70966">
        <ele>186.80000305176</ele>
        <time>2012-07-24T10:12:17.000Z</time>
      </trkpt>
      <trkpt lat="48.70397" lon="1.70953">
        <ele>186.80000305176</ele>
        <time>2012-07-24T10:12:25.000Z</time>
      </trkpt>
      <trkpt lat="48.70391" lon="1.70939">
        <ele>187</ele>
        <time>2012-07-24T10:12:32.000Z</time>
      </trkpt>
      <trkpt lat="48.70386" lon="1.70923">
        <ele>187</ele>
        <time>2012-07-24T10:12:41.000Z</time>
      </trkpt>
      <trkpt lat="48.70381" lon="1.7091">
        <ele>187</ele>
        <time>2012-07-24T10:12:48.000Z</time>
      </trkpt>
      <trkpt lat="48.7038" lon="1.70905">
        <ele>187</ele>
        <time>2012-07-24T10:12:51.000Z</time>
      </trkpt>
      <trkpt lat="48.70376" lon="1.709">
        <ele>187</ele>
        <time>2012-07-24T10:12:55.000Z</time>
      </trkpt>
      <trkpt lat="48.70373" lon="1.7089">
        <ele>186.80000305176</ele>
        <time>2012-07-24T10:13:01.000Z</time>
      </trkpt>
      <trkpt lat="48.70369" lon="1.70876">
        <ele>186.80000305176</ele>
        <time>2012-07-24T10:13:09.000Z</time>
      </trkpt>
      <trkpt lat="48.70362" lon="1.70859">
        <ele>186.60000610352</ele>
        <time>2012-07-24T10:13:16.000Z</time>
      </trkpt>
      <trkpt lat="48.70359" lon="1.70848">
        <ele>186.39999389648</ele>
        <time>2012-07-24T10:13:23.000Z</time>
      </trkpt>
      <trkpt lat="48.70355" lon="1.70835">
        <ele>186.19999694824</ele>
        <time>2012-07-24T10:13:31.000Z</time>
      </trkpt>
      <trkpt lat="48.70351" lon="1.70824">
        <ele>186</ele>
        <time>2012-07-24T10:13:37.000Z</time>
      </trkpt>
      <trkpt lat="48.70347" lon="1.70812">
        <ele>185.80000305176</ele>
        <time>2012-07-24T10:13:44.000Z</time>
      </trkpt>
      <trkpt lat="48.70343" lon="1.70801">
        <ele>185.39999389648</ele>
        <time>2012-07-24T10:13:51.000Z</time>
      </trkpt>
      <trkpt lat="48.70339" lon="1.7079">
        <ele>185</ele>
        <time>2012-07-24T10:13:58.000Z</time>
      </trkpt>
      <trkpt lat="48.70334" lon="1.70777">
        <ele>184.60000610352</ele>
        <time>2012-07-24T10:14:05.000Z</time>
      </trkpt>
      <trkpt lat="48.70328" lon="1.70764">
        <ele>184.19999694824</ele>
        <time>2012-07-24T10:14:12.000Z</time>
      </trkpt>
      <trkpt lat="48.70323" lon="1.70753">
        <ele>184</ele>
        <time>2012-07-24T10:14:20.000Z</time>
      </trkpt>
      <trkpt lat="48.7032" lon="1.70743">
        <ele>184</ele>
        <time>2012-07-24T10:14:28.000Z</time>
      </trkpt>
      <trkpt lat="48.70316" lon="1.70735">
        <ele>184</ele>
        <time>2012-07-24T10:14:33.000Z</time>
      </trkpt>
      <trkpt lat="48.70315" lon="1.70731">
        <ele>184</ele>
        <time>2012-07-24T10:14:35.000Z</time>
      </trkpt>
      <trkpt lat="48.70311" lon="1.70719">
        <ele>184</ele>
        <time>2012-07-24T10:14:42.000Z</time>
      </trkpt>
      <trkpt lat="48.70307" lon="1.70704">
        <ele>184</ele>
        <time>2012-07-24T10:14:51.000Z</time>
      </trkpt>
      <trkpt lat="48.70306" lon="1.70702">
        <ele>184</ele>
        <time>2012-07-24T10:14:55.000Z</time>
      </trkpt>
      <trkpt lat="48.70301" lon="1.70689">
        <ele>184</ele>
        <time>2012-07-24T10:15:14.000Z</time>
      </trkpt>
      <trkpt lat="48.70298" lon="1.7068">
        <ele>183.80000305176</ele>
        <time>2012-07-24T10:15:19.000Z</time>
      </trkpt>
      <trkpt lat="48.70296" lon="1.70673">
        <ele>183.80000305176</ele>
        <time>2012-07-24T10:15:24.000Z</time>
      </trkpt>
      <trkpt lat="48.70295" lon="1.70667">
        <ele>183.80000305176</ele>
        <time>2012-07-24T10:15:28.000Z</time>
      </trkpt>
      <trkpt lat="48.70292" lon="1.7066">
        <ele>183.60000610352</ele>
        <time>2012-07-24T10:15:33.000Z</time>
      </trkpt>
      <trkpt lat="48.70286" lon="1.70645">
        <ele>183.19999694824</ele>
        <time>2012-07-24T10:15:42.000Z</time>
      </trkpt>
      <trkpt lat="48.70284" lon="1.7064">
        <ele>183</ele>
        <time>2012-07-24T10:15:45.000Z</time>
      </trkpt>
      <trkpt lat="48.70282" lon="1.7063">
        <ele>183</ele>
        <time>2012-07-24T10:15:50.000Z</time>
      </trkpt>
      <trkpt lat="48.70276" lon="1.70616">
        <ele>182.60000610352</ele>
        <time>2012-07-24T10:15:58.000Z</time>
      </trkpt>
      <trkpt lat="48.70271" lon="1.70603">
        <ele>182.19999694824</ele>
        <time>2012-07-24T10:16:06.000Z</time>
      </trkpt>
      <trkpt lat="48.70268" lon="1.70592">
        <ele>182</ele>
        <time>2012-07-24T10:16:12.000Z</time>
      </trkpt>
      <trkpt lat="48.70265" lon="1.70581">
        <ele>182</ele>
        <time>2012-07-24T10:16:18.000Z</time>
      </trkpt>
      <trkpt lat="48.70258" lon="1.70565">
        <ele>181.60000610352</ele>
        <time>2012-07-24T10:16:26.000Z</time>
      </trkpt>
      <trkpt lat="48.70254" lon="1.70553">
        <ele>181.60000610352</ele>
        <time>2012-07-24T10:16:32.000Z</time>
      </trkpt>
      <trkpt lat="48.70252" lon="1.70547">
        <ele>181.60000610352</ele>
        <time>2012-07-24T10:16:35.000Z</time>
      </trkpt>
      <trkpt lat="48.70249" lon="1.70539">
        <ele>181.39999389648</ele>
        <time>2012-07-24T10:16:40.000Z</time>
      </trkpt>
      <trkpt lat="48.70241" lon="1.7052">
        <ele>181.19999694824</ele>
        <time>2012-07-24T10:16:49.000Z</time>
      </trkpt>
      <trkpt lat="48.70234" lon="1.70502">
        <ele>181.19999694824</ele>
        <time>2012-07-24T10:16:57.000Z</time>
      </trkpt>
      <trkpt lat="48.70231" lon="1.70488">
        <ele>181.39999389648</ele>
        <time>2012-07-24T10:17:05.000Z</time>
      </trkpt>
      <trkpt lat="48.70223" lon="1.70466">
        <ele>181.39999389648</ele>
        <time>2012-07-24T10:17:17.000Z</time>
      </trkpt>
      <trkpt lat="48.70219" lon="1.70453">
        <ele>181.39999389648</ele>
        <time>2012-07-24T10:17:24.000Z</time>
      </trkpt>
      <trkpt lat="48.70215" lon="1.70441">
        <ele>181.39999389648</ele>
        <time>2012-07-24T10:17:30.000Z</time>
      </trkpt>
      <trkpt lat="48.70211" lon="1.70429">
        <ele>181.39999389648</ele>
        <time>2012-07-24T10:17:37.000Z</time>
      </trkpt>
      <trkpt lat="48.70204" lon="1.7041">
        <ele>181.19999694824</ele>
        <time>2012-07-24T10:17:46.000Z</time>
      </trkpt>
      <trkpt lat="48.702" lon="1.70398">
        <ele>180.80000305176</ele>
        <time>2012-07-24T10:17:53.000Z</time>
      </trkpt>
      <trkpt lat="48.70197" lon="1.70392">
        <ele>180.60000610352</ele>
        <time>2012-07-24T10:18:00.000Z</time>
      </trkpt>
      <trkpt lat="48.70195" lon="1.70385">
        <ele>180.39999389648</ele>
        <time>2012-07-24T10:18:06.000Z</time>
      </trkpt>
      <trkpt lat="48.70191" lon="1.70375">
        <ele>180</ele>
        <time>2012-07-24T10:18:12.000Z</time>
      </trkpt>
      <trkpt lat="48.70185" lon="1.70359">
        <ele>179.39999389648</ele>
        <time>2012-07-24T10:18:21.000Z</time>
      </trkpt>
      <trkpt lat="48.7018" lon="1.70344">
        <ele>179</ele>
        <time>2012-07-24T10:18:30.000Z</time>
      </trkpt>
      <trkpt lat="48.70178" lon="1.70337">
        <ele>178.80000305176</ele>
        <time>2012-07-24T10:18:34.000Z</time>
      </trkpt>
      <trkpt lat="48.70179" lon="1.70332">
        <ele>178.80000305176</ele>
        <time>2012-07-24T10:18:38.000Z</time>
      </trkpt>
      <trkpt lat="48.70179" lon="1.7033">
        <ele>178.80000305176</ele>
        <time>2012-07-24T10:18:40.000Z</time>
      </trkpt>
      <trkpt lat="48.70174" lon="1.70323">
        <ele>178.39999389648</ele>
        <time>2012-07-24T10:18:47.000Z</time>
      </trkpt>
      <trkpt lat="48.70174" lon="1.70315">
        <ele>178.19999694824</ele>
        <time>2012-07-24T10:18:52.000Z</time>
      </trkpt>
      <trkpt lat="48.70168" lon="1.70302">
        <ele>177.60000610352</ele>
        <time>2012-07-24T10:19:00.000Z</time>
      </trkpt>
      <trkpt lat="48.7016" lon="1.70289">
        <ele>177.39999389648</ele>
        <time>2012-07-24T10:19:08.000Z</time>
      </trkpt>
      <trkpt lat="48.70154" lon="1.70274">
        <ele>177</ele>
        <time>2012-07-24T10:19:17.000Z</time>
      </trkpt>
      <trkpt lat="48.70152" lon="1.70267">
        <ele>177</ele>
        <time>2012-07-24T10:19:21.000Z</time>
      </trkpt>
      <trkpt lat="48.70155" lon="1.70263">
        <ele>177</ele>
        <time>2012-07-24T10:19:28.000Z</time>
      </trkpt>
      <trkpt lat="48.70164" lon="1.70263">
        <ele>177.19999694824</ele>
        <time>2012-07-24T10:19:44.000Z</time>
      </trkpt>
      <trkpt lat="48.70156" lon="1.70251">
        <ele>176.80000305176</ele>
        <time>2012-07-24T10:19:57.000Z</time>
      </trkpt>
      <trkpt lat="48.70149" lon="1.70238">
        <ele>177</ele>
        <time>2012-07-24T10:20:04.000Z</time>
      </trkpt>
      <trkpt lat="48.70147" lon="1.70227">
        <ele>177.39999389648</ele>
        <time>2012-07-24T10:20:11.000Z</time>
      </trkpt>
      <trkpt lat="48.70141" lon="1.70215">
        <ele>177.60000610352</ele>
        <time>2012-07-24T10:20:18.000Z</time>
      </trkpt>
      <trkpt lat="48.70137" lon="1.70209">
        <ele>177.60000610352</ele>
        <time>2012-07-24T10:20:24.000Z</time>
      </trkpt>
      <trkpt lat="48.70133" lon="1.70197">
        <ele>177.80000305176</ele>
        <time>2012-07-24T10:20:31.000Z</time>
      </trkpt>
      <trkpt lat="48.70132" lon="1.70194">
        <ele>178</ele>
        <time>2012-07-24T10:20:34.000Z</time>
      </trkpt>
      <trkpt lat="48.70127" lon="1.70189">
        <ele>178</ele>
        <time>2012-07-24T10:20:39.000Z</time>
      </trkpt>
      <trkpt lat="48.70124" lon="1.70181">
        <ele>178.19999694824</ele>
        <time>2012-07-24T10:20:43.000Z</time>
      </trkpt>
      <trkpt lat="48.7012" lon="1.70174">
        <ele>178.19999694824</ele>
        <time>2012-07-24T10:20:46.000Z</time>
      </trkpt>
      <trkpt lat="48.70115" lon="1.70166">
        <ele>178.39999389648</ele>
        <time>2012-07-24T10:20:52.000Z</time>
      </trkpt>
      <trkpt lat="48.70114" lon="1.70164">
        <ele>178.39999389648</ele>
        <time>2012-07-24T10:20:55.000Z</time>
      </trkpt>
      <trkpt lat="48.70114" lon="1.70162">
        <ele>178.60000610352</ele>
        <time>2012-07-24T10:20:58.000Z</time>
      </trkpt>
      <trkpt lat="48.7011" lon="1.70154">
        <ele>178.80000305176</ele>
        <time>2012-07-24T10:21:01.000Z</time>
      </trkpt>
      <trkpt lat="48.70107" lon="1.70149">
        <ele>179</ele>
        <time>2012-07-24T10:21:07.000Z</time>
      </trkpt>
      <trkpt lat="48.70103" lon="1.70137">
        <ele>179.39999389648</ele>
        <time>2012-07-24T10:21:14.000Z</time>
      </trkpt>
      <trkpt lat="48.70096" lon="1.70121">
        <ele>179.80000305176</ele>
        <time>2012-07-24T10:21:24.000Z</time>
      </trkpt>
      <trkpt lat="48.70091" lon="1.70111">
        <ele>180.19999694824</ele>
        <time>2012-07-24T10:21:31.000Z</time>
      </trkpt>
      <trkpt lat="48.70086" lon="1.70101">
        <ele>180.39999389648</ele>
        <time>2012-07-24T10:21:39.000Z</time>
      </trkpt>
      <trkpt lat="48.70082" lon="1.70093">
        <ele>180.60000610352</ele>
        <time>2012-07-24T10:21:44.000Z</time>
      </trkpt>
      <trkpt lat="48.70078" lon="1.70087">
        <ele>180.60000610352</ele>
        <time>2012-07-24T10:21:48.000Z</time>
      </trkpt>
      <trkpt lat="48.70069" lon="1.70076">
        <ele>180.39999389648</ele>
        <time>2012-07-24T10:21:56.000Z</time>
      </trkpt>
      <trkpt lat="48.70063" lon="1.70072">
        <ele>180.19999694824</ele>
        <time>2012-07-24T10:22:02.000Z</time>
      </trkpt>
      <trkpt lat="48.70061" lon="1.70064">
        <ele>180.19999694824</ele>
        <time>2012-07-24T10:22:08.000Z</time>
      </trkpt>
      <trkpt lat="48.70054" lon="1.70053">
        <ele>179.80000305176</ele>
        <time>2012-07-24T10:22:15.000Z</time>
      </trkpt>
      <trkpt lat="48.70044" lon="1.70037">
        <ele>179.39999389648</ele>
        <time>2012-07-24T10:22:25.000Z</time>
      </trkpt>
      <trkpt lat="48.70039" lon="1.70028">
        <ele>179</ele>
        <time>2012-07-24T10:22:31.000Z</time>
      </trkpt>
      <trkpt lat="48.70036" lon="1.70017">
        <ele>178.80000305176</ele>
        <time>2012-07-24T10:22:37.000Z</time>
      </trkpt>
      <trkpt lat="48.70028" lon="1.70007">
        <ele>178.39999389648</ele>
        <time>2012-07-24T10:22:46.000Z</time>
      </trkpt>
      <trkpt lat="48.70022" lon="1.69999">
        <ele>178</ele>
        <time>2012-07-24T10:22:53.000Z</time>
      </trkpt>
      <trkpt lat="48.70021" lon="1.69997">
        <ele>178</ele>
        <time>2012-07-24T10:22:54.000Z</time>
      </trkpt>
      <trkpt lat="48.70014" lon="1.6999">
        <ele>177.39999389648</ele>
        <time>2012-07-24T10:23:00.000Z</time>
      </trkpt>
      <trkpt lat="48.7001" lon="1.69981">
        <ele>177</ele>
        <time>2012-07-24T10:23:05.000Z</time>
      </trkpt>
      <trkpt lat="48.70004" lon="1.6997">
        <ele>176.39999389648</ele>
        <time>2012-07-24T10:23:11.000Z</time>
      </trkpt>
      <trkpt lat="48.69998" lon="1.6996">
        <ele>176</ele>
        <time>2012-07-24T10:23:18.000Z</time>
      </trkpt>
      <trkpt lat="48.69988" lon="1.6995">
        <ele>176</ele>
        <time>2012-07-24T10:23:26.000Z</time>
      </trkpt>
      <trkpt lat="48.69981" lon="1.69944">
        <ele>175.80000305176</ele>
        <time>2012-07-24T10:23:32.000Z</time>
      </trkpt>
      <trkpt lat="48.69974" lon="1.69935">
        <ele>175.80000305176</ele>
        <time>2012-07-24T10:23:39.000Z</time>
      </trkpt>
      <trkpt lat="48.69969" lon="1.6993">
        <ele>175.60000610352</ele>
        <time>2012-07-24T10:23:44.000Z</time>
      </trkpt>
      <trkpt lat="48.69965" lon="1.69919">
        <ele>175.39999389648</ele>
        <time>2012-07-24T10:23:50.000Z</time>
      </trkpt>
      <trkpt lat="48.69961" lon="1.69908">
        <ele>175.19999694824</ele>
        <time>2012-07-24T10:23:56.000Z</time>
      </trkpt>
      <trkpt lat="48.69959" lon="1.69899">
        <ele>175</ele>
        <time>2012-07-24T10:24:00.000Z</time>
      </trkpt>
      <trkpt lat="48.69956" lon="1.69887">
        <ele>174.60000610352</ele>
        <time>2012-07-24T10:24:06.000Z</time>
      </trkpt>
      <trkpt lat="48.69955" lon="1.69884">
        <ele>174.60000610352</ele>
        <time>2012-07-24T10:24:07.000Z</time>
      </trkpt>
      <trkpt lat="48.69951" lon="1.69872">
        <ele>174.19999694824</ele>
        <time>2012-07-24T10:24:14.000Z</time>
      </trkpt>
      <trkpt lat="48.69946" lon="1.69863">
        <ele>174</ele>
        <time>2012-07-24T10:24:20.000Z</time>
      </trkpt>
      <trkpt lat="48.69945" lon="1.6986">
        <ele>173.80000305176</ele>
        <time>2012-07-24T10:24:23.000Z</time>
      </trkpt>
      <trkpt lat="48.69942" lon="1.69853">
        <ele>173.60000610352</ele>
        <time>2012-07-24T10:24:27.000Z</time>
      </trkpt>
      <trkpt lat="48.69939" lon="1.69839">
        <ele>173.19999694824</ele>
        <time>2012-07-24T10:24:34.000Z</time>
      </trkpt>
      <trkpt lat="48.69934" lon="1.69828">
        <ele>172.80000305176</ele>
        <time>2012-07-24T10:24:41.000Z</time>
      </trkpt>
      <trkpt lat="48.6993" lon="1.69816">
        <ele>172.19999694824</ele>
        <time>2012-07-24T10:24:47.000Z</time>
      </trkpt>
      <trkpt lat="48.69926" lon="1.69805">
        <ele>171.60000610352</ele>
        <time>2012-07-24T10:24:53.000Z</time>
      </trkpt>
      <trkpt lat="48.69922" lon="1.69794">
        <ele>170.80000305176</ele>
        <time>2012-07-24T10:25:00.000Z</time>
      </trkpt>
      <trkpt lat="48.69919" lon="1.69788">
        <ele>170.39999389648</ele>
        <time>2012-07-24T10:25:06.000Z</time>
      </trkpt>
      <trkpt lat="48.69917" lon="1.69778">
        <ele>169.60000610352</ele>
        <time>2012-07-24T10:25:13.000Z</time>
      </trkpt>
      <trkpt lat="48.69915" lon="1.69775">
        <ele>169.39999389648</ele>
        <time>2012-07-24T10:25:15.000Z</time>
      </trkpt>
      <trkpt lat="48.6991" lon="1.69763">
        <ele>168.60000610352</ele>
        <time>2012-07-24T10:25:22.000Z</time>
      </trkpt>
      <trkpt lat="48.69905" lon="1.69751">
        <ele>167.60000610352</ele>
        <time>2012-07-24T10:25:29.000Z</time>
      </trkpt>
      <trkpt lat="48.69904" lon="1.69747">
        <ele>167.39999389648</ele>
        <time>2012-07-24T10:25:31.000Z</time>
      </trkpt>
      <trkpt lat="48.699" lon="1.69733">
        <ele>166.60000610352</ele>
        <time>2012-07-24T10:25:39.000Z</time>
      </trkpt>
      <trkpt lat="48.69896" lon="1.69721">
        <ele>165.80000305176</ele>
        <time>2012-07-24T10:25:45.000Z</time>
      </trkpt>
      <trkpt lat="48.69887" lon="1.69704">
        <ele>164.80000305176</ele>
        <time>2012-07-24T10:25:53.000Z</time>
      </trkpt>
      <trkpt lat="48.69883" lon="1.6969">
        <ele>164</ele>
        <time>2012-07-24T10:26:00.000Z</time>
      </trkpt>
      <trkpt lat="48.69881" lon="1.69684">
        <ele>163.60000610352</ele>
        <time>2012-07-24T10:26:04.000Z</time>
      </trkpt>
      <trkpt lat="48.69878" lon="1.6967">
        <ele>162.80000305176</ele>
        <time>2012-07-24T10:26:12.000Z</time>
      </trkpt>
      <trkpt lat="48.69878" lon="1.69669">
        <ele>162.80000305176</ele>
        <time>2012-07-24T10:26:13.000Z</time>
      </trkpt>
      <trkpt lat="48.69872" lon="1.69653">
        <ele>162.39999389648</ele>
        <time>2012-07-24T10:26:22.000Z</time>
      </trkpt>
      <trkpt lat="48.69871" lon="1.69648">
        <ele>162.39999389648</ele>
        <time>2012-07-24T10:26:25.000Z</time>
      </trkpt>
      <trkpt lat="48.69867" lon="1.69636">
        <ele>162.39999389648</ele>
        <time>2012-07-24T10:26:30.000Z</time>
      </trkpt>
      <trkpt lat="48.69865" lon="1.69627">
        <ele>162.39999389648</ele>
        <time>2012-07-24T10:26:34.000Z</time>
      </trkpt>
      <trkpt lat="48.69862" lon="1.69613">
        <ele>162.39999389648</ele>
        <time>2012-07-24T10:26:41.000Z</time>
      </trkpt>
      <trkpt lat="48.69857" lon="1.69598">
        <ele>162.39999389648</ele>
        <time>2012-07-24T10:26:49.000Z</time>
      </trkpt>
      <trkpt lat="48.69852" lon="1.69584">
        <ele>162.39999389648</ele>
        <time>2012-07-24T10:26:56.000Z</time>
      </trkpt>
      <trkpt lat="48.69849" lon="1.69569">
        <ele>162.80000305176</ele>
        <time>2012-07-24T10:27:03.000Z</time>
      </trkpt>
      <trkpt lat="48.6984" lon="1.69548">
        <ele>163</ele>
        <time>2012-07-24T10:27:13.000Z</time>
      </trkpt>
      <trkpt lat="48.69835" lon="1.69532">
        <ele>163.19999694824</ele>
        <time>2012-07-24T10:27:22.000Z</time>
      </trkpt>
      <trkpt lat="48.69829" lon="1.69517">
        <ele>163.19999694824</ele>
        <time>2012-07-24T10:27:29.000Z</time>
      </trkpt>
      <trkpt lat="48.69823" lon="1.69504">
        <ele>162.80000305176</ele>
        <time>2012-07-24T10:27:35.000Z</time>
      </trkpt>
      <trkpt lat="48.69817" lon="1.69486">
        <ele>161.80000305176</ele>
        <time>2012-07-24T10:27:45.000Z</time>
      </trkpt>
      <trkpt lat="48.69815" lon="1.69478">
        <ele>161.39999389648</ele>
        <time>2012-07-24T10:27:49.000Z</time>
      </trkpt>
      <trkpt lat="48.69813" lon="1.69472">
        <ele>161.19999694824</ele>
        <time>2012-07-24T10:27:53.000Z</time>
      </trkpt>
      <trkpt lat="48.69816" lon="1.69459">
        <ele>161.19999694824</ele>
        <time>2012-07-24T10:28:01.000Z</time>
      </trkpt>
      <trkpt lat="48.69819" lon="1.69459">
        <ele>161.60000610352</ele>
        <time>2012-07-24T10:28:04.000Z</time>
      </trkpt>
      <trkpt lat="48.69818" lon="1.69452">
        <ele>161.19999694824</ele>
        <time>2012-07-24T10:28:11.000Z</time>
      </trkpt>
      <trkpt lat="48.69813" lon="1.6944">
        <ele>160.60000610352</ele>
        <time>2012-07-24T10:28:18.000Z</time>
      </trkpt>
      <trkpt lat="48.6981" lon="1.69426">
        <ele>160.19999694824</ele>
        <time>2012-07-24T10:28:26.000Z</time>
      </trkpt>
      <trkpt lat="48.69808" lon="1.69421">
        <ele>160</ele>
        <time>2012-07-24T10:28:29.000Z</time>
      </trkpt>
      <trkpt lat="48.69807" lon="1.69414">
        <ele>159.80000305176</ele>
        <time>2012-07-24T10:28:35.000Z</time>
      </trkpt>
      <trkpt lat="48.69805" lon="1.69409">
        <ele>159.39999389648</ele>
        <time>2012-07-24T10:28:37.000Z</time>
      </trkpt>
      <trkpt lat="48.69801" lon="1.69397">
        <ele>158.80000305176</ele>
        <time>2012-07-24T10:28:43.000Z</time>
      </trkpt>
      <trkpt lat="48.69798" lon="1.69387">
        <ele>158.39999389648</ele>
        <time>2012-07-24T10:28:48.000Z</time>
      </trkpt>
      <trkpt lat="48.69795" lon="1.69376">
        <ele>158</ele>
        <time>2012-07-24T10:28:54.000Z</time>
      </trkpt>
      <trkpt lat="48.69794" lon="1.69363">
        <ele>157.60000610352</ele>
        <time>2012-07-24T10:29:00.000Z</time>
      </trkpt>
      <trkpt lat="48.69794" lon="1.69358">
        <ele>157.60000610352</ele>
        <time>2012-07-24T10:29:02.000Z</time>
      </trkpt>
      <trkpt lat="48.69791" lon="1.69345">
        <ele>157.19999694824</ele>
        <time>2012-07-24T10:29:08.000Z</time>
      </trkpt>
      <trkpt lat="48.69789" lon="1.69342">
        <ele>157</ele>
        <time>2012-07-24T10:29:10.000Z</time>
      </trkpt>
      <trkpt lat="48.6979" lon="1.69338">
        <ele>157</ele>
        <time>2012-07-24T10:29:12.000Z</time>
      </trkpt>
      <trkpt lat="48.69787" lon="1.69325">
        <ele>156.80000305176</ele>
        <time>2012-07-24T10:29:19.000Z</time>
      </trkpt>
      <trkpt lat="48.69784" lon="1.69314">
        <ele>156.60000610352</ele>
        <time>2012-07-24T10:29:25.000Z</time>
      </trkpt>
      <trkpt lat="48.69781" lon="1.69301">
        <ele>156.60000610352</ele>
        <time>2012-07-24T10:29:31.000Z</time>
      </trkpt>
      <trkpt lat="48.69779" lon="1.69289">
        <ele>156.60000610352</ele>
        <time>2012-07-24T10:29:37.000Z</time>
      </trkpt>
      <trkpt lat="48.69775" lon="1.69277">
        <ele>156.39999389648</ele>
        <time>2012-07-24T10:29:43.000Z</time>
      </trkpt>
      <trkpt lat="48.69771" lon="1.69261">
        <ele>156.39999389648</ele>
        <time>2012-07-24T10:29:51.000Z</time>
      </trkpt>
      <trkpt lat="48.6977" lon="1.69255">
        <ele>156.39999389648</ele>
        <time>2012-07-24T10:29:55.000Z</time>
      </trkpt>
      <trkpt lat="48.6977" lon="1.69239">
        <ele>156.39999389648</ele>
        <time>2012-07-24T10:30:03.000Z</time>
      </trkpt>
      <trkpt lat="48.69769" lon="1.69227">
        <ele>156.19999694824</ele>
        <time>2012-07-24T10:30:10.000Z</time>
      </trkpt>
      <trkpt lat="48.69766" lon="1.69213">
        <ele>156.19999694824</ele>
        <time>2012-07-24T10:30:17.000Z</time>
      </trkpt>
      <trkpt lat="48.69765" lon="1.69202">
        <ele>156</ele>
        <time>2012-07-24T10:30:23.000Z</time>
      </trkpt>
      <trkpt lat="48.69761" lon="1.69188">
        <ele>156</ele>
        <time>2012-07-24T10:30:31.000Z</time>
      </trkpt>
      <trkpt lat="48.69759" lon="1.69178">
        <ele>156</ele>
        <time>2012-07-24T10:30:37.000Z</time>
      </trkpt>
      <trkpt lat="48.69755" lon="1.69161">
        <ele>155.80000305176</ele>
        <time>2012-07-24T10:30:46.000Z</time>
      </trkpt>
      <trkpt lat="48.69752" lon="1.69146">
        <ele>155.80000305176</ele>
        <time>2012-07-24T10:30:54.000Z</time>
      </trkpt>
      <trkpt lat="48.69751" lon="1.6913">
        <ele>155.60000610352</ele>
        <time>2012-07-24T10:31:02.000Z</time>
      </trkpt>
      <trkpt lat="48.69751" lon="1.69122">
        <ele>155.39999389648</ele>
        <time>2012-07-24T10:31:07.000Z</time>
      </trkpt>
      <trkpt lat="48.69749" lon="1.69116">
        <ele>155.39999389648</ele>
        <time>2012-07-24T10:31:10.000Z</time>
      </trkpt>
      <trkpt lat="48.69747" lon="1.69103">
        <ele>155.19999694824</ele>
        <time>2012-07-24T10:31:18.000Z</time>
      </trkpt>
      <trkpt lat="48.69747" lon="1.69091">
        <ele>155</ele>
        <time>2012-07-24T10:31:25.000Z</time>
      </trkpt>
      <trkpt lat="48.69746" lon="1.69075">
        <ele>154.80000305176</ele>
        <time>2012-07-24T10:31:32.000Z</time>
      </trkpt>
      <trkpt lat="48.69749" lon="1.69066">
        <ele>154.39999389648</ele>
        <time>2012-07-24T10:31:37.000Z</time>
      </trkpt>
      <trkpt lat="48.69749" lon="1.69064">
        <ele>154.39999389648</ele>
        <time>2012-07-24T10:31:38.000Z</time>
      </trkpt>
      <trkpt lat="48.69749" lon="1.69052">
        <ele>153.80000305176</ele>
        <time>2012-07-24T10:31:45.000Z</time>
      </trkpt>
      <trkpt lat="48.6975" lon="1.69045">
        <ele>153.60000610352</ele>
        <time>2012-07-24T10:31:48.000Z</time>
      </trkpt>
      <trkpt lat="48.69751" lon="1.6903">
        <ele>153</ele>
        <time>2012-07-24T10:31:54.000Z</time>
      </trkpt>
      <trkpt lat="48.69751" lon="1.69027">
        <ele>153</ele>
        <time>2012-07-24T10:31:56.000Z</time>
      </trkpt>
      <trkpt lat="48.69753" lon="1.69018">
        <ele>152.60000610352</ele>
        <time>2012-07-24T10:32:00.000Z</time>
      </trkpt>
      <trkpt lat="48.69753" lon="1.69009">
        <ele>152.19999694824</ele>
        <time>2012-07-24T10:32:04.000Z</time>
      </trkpt>
      <trkpt lat="48.69752" lon="1.68995">
        <ele>151.80000305176</ele>
        <time>2012-07-24T10:32:11.000Z</time>
      </trkpt>
      <trkpt lat="48.69753" lon="1.68992">
        <ele>151.80000305176</ele>
        <time>2012-07-24T10:32:13.000Z</time>
      </trkpt>
      <trkpt lat="48.69752" lon="1.68979">
        <ele>151.60000610352</ele>
        <time>2012-07-24T10:32:19.000Z</time>
      </trkpt>
      <trkpt lat="48.69749" lon="1.6897">
        <ele>151.60000610352</ele>
        <time>2012-07-24T10:32:23.000Z</time>
      </trkpt>
      <trkpt lat="48.69747" lon="1.68964">
        <ele>151.60000610352</ele>
        <time>2012-07-24T10:32:27.000Z</time>
      </trkpt>
      <trkpt lat="48.69746" lon="1.68953">
        <ele>151.60000610352</ele>
        <time>2012-07-24T10:32:33.000Z</time>
      </trkpt>
      <trkpt lat="48.69745" lon="1.68942">
        <ele>151.39999389648</ele>
        <time>2012-07-24T10:32:39.000Z</time>
      </trkpt>
      <trkpt lat="48.69746" lon="1.68935">
        <ele>151.39999389648</ele>
        <time>2012-07-24T10:32:42.000Z</time>
      </trkpt>
      <trkpt lat="48.69746" lon="1.68922">
        <ele>151.19999694824</ele>
        <time>2012-07-24T10:32:48.000Z</time>
      </trkpt>
      <trkpt lat="48.69746" lon="1.68909">
        <ele>151</ele>
        <time>2012-07-24T10:32:54.000Z</time>
      </trkpt>
      <trkpt lat="48.69746" lon="1.68894">
        <ele>150.80000305176</ele>
        <time>2012-07-24T10:33:01.000Z</time>
      </trkpt>
      <trkpt lat="48.69746" lon="1.68893">
        <ele>150.80000305176</ele>
        <time>2012-07-24T10:33:02.000Z</time>
      </trkpt>
      <trkpt lat="48.69746" lon="1.68884">
        <ele>150.80000305176</ele>
        <time>2012-07-24T10:33:07.000Z</time>
      </trkpt>
      <trkpt lat="48.69747" lon="1.68879">
        <ele>150.60000610352</ele>
        <time>2012-07-24T10:33:10.000Z</time>
      </trkpt>
      <trkpt lat="48.69747" lon="1.68874">
        <ele>150.60000610352</ele>
        <time>2012-07-24T10:33:15.000Z</time>
      </trkpt>
      <trkpt lat="48.69747" lon="1.68865">
        <ele>150.60000610352</ele>
        <time>2012-07-24T10:33:26.000Z</time>
      </trkpt>
      <trkpt lat="48.69746" lon="1.68854">
        <ele>150.39999389648</ele>
        <time>2012-07-24T10:33:31.000Z</time>
      </trkpt>
      <trkpt lat="48.69744" lon="1.6885">
        <ele>150.39999389648</ele>
        <time>2012-07-24T10:33:33.000Z</time>
      </trkpt>
      <trkpt lat="48.69742" lon="1.68844">
        <ele>150.39999389648</ele>
        <time>2012-07-24T10:33:36.000Z</time>
      </trkpt>
      <trkpt lat="48.69741" lon="1.68826">
        <ele>150.39999389648</ele>
        <time>2012-07-24T10:33:45.000Z</time>
      </trkpt>
      <trkpt lat="48.6974" lon="1.6882">
        <ele>150.39999389648</ele>
        <time>2012-07-24T10:33:50.000Z</time>
      </trkpt>
      <trkpt lat="48.6974" lon="1.68812">
        <ele>150.39999389648</ele>
        <time>2012-07-24T10:33:54.000Z</time>
      </trkpt>
      <trkpt lat="48.69741" lon="1.68804">
        <ele>150.39999389648</ele>
        <time>2012-07-24T10:33:58.000Z</time>
      </trkpt>
      <trkpt lat="48.69741" lon="1.688">
        <ele>150.39999389648</ele>
        <time>2012-07-24T10:34:00.000Z</time>
      </trkpt>
      <trkpt lat="48.69741" lon="1.68788">
        <ele>150.39999389648</ele>
        <time>2012-07-24T10:34:06.000Z</time>
      </trkpt>
      <trkpt lat="48.69741" lon="1.6878">
        <ele>150.39999389648</ele>
        <time>2012-07-24T10:34:10.000Z</time>
      </trkpt>
      <trkpt lat="48.69741" lon="1.68759">
        <ele>150.39999389648</ele>
        <time>2012-07-24T10:34:21.000Z</time>
      </trkpt>
      <trkpt lat="48.69739" lon="1.68738">
        <ele>150</ele>
        <time>2012-07-24T10:34:32.000Z</time>
      </trkpt>
      <trkpt lat="48.69739" lon="1.68722">
        <ele>149.80000305176</ele>
        <time>2012-07-24T10:34:40.000Z</time>
      </trkpt>
      <trkpt lat="48.69739" lon="1.68708">
        <ele>149.39999389648</ele>
        <time>2012-07-24T10:34:48.000Z</time>
      </trkpt>
      <trkpt lat="48.69741" lon="1.68693">
        <ele>148.80000305176</ele>
        <time>2012-07-24T10:34:56.000Z</time>
      </trkpt>
      <trkpt lat="48.6974" lon="1.68677">
        <ele>148.60000610352</ele>
        <time>2012-07-24T10:35:04.000Z</time>
      </trkpt>
      <trkpt lat="48.6974" lon="1.68665">
        <ele>148.19999694824</ele>
        <time>2012-07-24T10:35:10.000Z</time>
      </trkpt>
      <trkpt lat="48.6974" lon="1.68652">
        <ele>148.60000610352</ele>
        <time>2012-07-24T10:35:17.000Z</time>
      </trkpt>
      <trkpt lat="48.69742" lon="1.68632">
        <ele>149</ele>
        <time>2012-07-24T10:35:27.000Z</time>
      </trkpt>
      <trkpt lat="48.69743" lon="1.68622">
        <ele>149.19999694824</ele>
        <time>2012-07-24T10:35:32.000Z</time>
      </trkpt>
      <trkpt lat="48.6974" lon="1.68607">
        <ele>149.60000610352</ele>
        <time>2012-07-24T10:35:39.000Z</time>
      </trkpt>
      <trkpt lat="48.6974" lon="1.68594">
        <ele>150</ele>
        <time>2012-07-24T10:35:46.000Z</time>
      </trkpt>
      <trkpt lat="48.6974" lon="1.6859">
        <ele>150</ele>
        <time>2012-07-24T10:35:48.000Z</time>
      </trkpt>
      <trkpt lat="48.69739" lon="1.68582">
        <ele>150.19999694824</ele>
        <time>2012-07-24T10:35:52.000Z</time>
      </trkpt>
      <trkpt lat="48.69741" lon="1.68576">
        <ele>150.19999694824</ele>
        <time>2012-07-24T10:35:56.000Z</time>
      </trkpt>
      <trkpt lat="48.69742" lon="1.68563">
        <ele>150.19999694824</ele>
        <time>2012-07-24T10:36:02.000Z</time>
      </trkpt>
      <trkpt lat="48.69742" lon="1.68548">
        <ele>150.19999694824</ele>
        <time>2012-07-24T10:36:08.000Z</time>
      </trkpt>
      <trkpt lat="48.69741" lon="1.68546">
        <ele>150.19999694824</ele>
        <time>2012-07-24T10:36:09.000Z</time>
      </trkpt>
      <trkpt lat="48.69738" lon="1.68538">
        <ele>150.19999694824</ele>
        <time>2012-07-24T10:36:14.000Z</time>
      </trkpt>
      <trkpt lat="48.69733" lon="1.68535">
        <ele>150.19999694824</ele>
        <time>2012-07-24T10:36:18.000Z</time>
      </trkpt>
      <trkpt lat="48.69723" lon="1.68527">
        <ele>150.19999694824</ele>
        <time>2012-07-24T10:36:26.000Z</time>
      </trkpt>
      <trkpt lat="48.69714" lon="1.68525">
        <ele>150.19999694824</ele>
        <time>2012-07-24T10:36:33.000Z</time>
      </trkpt>
      <trkpt lat="48.69708" lon="1.6852">
        <ele>150.19999694824</ele>
        <time>2012-07-24T10:36:39.000Z</time>
      </trkpt>
      <trkpt lat="48.69705" lon="1.68519">
        <ele>150.19999694824</ele>
        <time>2012-07-24T10:36:41.000Z</time>
      </trkpt>
      <trkpt lat="48.69701" lon="1.68519">
        <ele>150.19999694824</ele>
        <time>2012-07-24T10:36:45.000Z</time>
      </trkpt>
      <trkpt lat="48.69689" lon="1.68516">
        <ele>150.19999694824</ele>
        <time>2012-07-24T10:36:53.000Z</time>
      </trkpt>
      <trkpt lat="48.69677" lon="1.68514">
        <ele>150.19999694824</ele>
        <time>2012-07-24T10:37:01.000Z</time>
      </trkpt>
      <trkpt lat="48.69668" lon="1.68511">
        <ele>150.19999694824</ele>
        <time>2012-07-24T10:37:08.000Z</time>
      </trkpt>
      <trkpt lat="48.69658" lon="1.68508">
        <ele>149.80000305176</ele>
        <time>2012-07-24T10:37:15.000Z</time>
      </trkpt>
      <trkpt lat="48.69651" lon="1.68507">
        <ele>149.60000610352</ele>
        <time>2012-07-24T10:37:21.000Z</time>
      </trkpt>
      <trkpt lat="48.69638" lon="1.68504">
        <ele>149</ele>
        <time>2012-07-24T10:37:30.000Z</time>
      </trkpt>
      <trkpt lat="48.69623" lon="1.68499">
        <ele>148.39999389648</ele>
        <time>2012-07-24T10:37:40.000Z</time>
      </trkpt>
      <trkpt lat="48.69613" lon="1.68496">
        <ele>148</ele>
        <time>2012-07-24T10:37:48.000Z</time>
      </trkpt>
      <trkpt lat="48.69602" lon="1.68492">
        <ele>147.39999389648</ele>
        <time>2012-07-24T10:37:56.000Z</time>
      </trkpt>
      <trkpt lat="48.69593" lon="1.68489">
        <ele>147</ele>
        <time>2012-07-24T10:38:03.000Z</time>
      </trkpt>
      <trkpt lat="48.69585" lon="1.68486">
        <ele>146.60000610352</ele>
        <time>2012-07-24T10:38:11.000Z</time>
      </trkpt>
      <trkpt lat="48.69582" lon="1.68485">
        <ele>146.39999389648</ele>
        <time>2012-07-24T10:38:13.000Z</time>
      </trkpt>
      <trkpt lat="48.69576" lon="1.68484">
        <ele>146.39999389648</ele>
        <time>2012-07-24T10:38:18.000Z</time>
      </trkpt>
      <trkpt lat="48.69574" lon="1.68483">
        <ele>146.39999389648</ele>
        <time>2012-07-24T10:38:20.000Z</time>
      </trkpt>
      <trkpt lat="48.69565" lon="1.68479">
        <ele>146.19999694824</ele>
        <time>2012-07-24T10:38:28.000Z</time>
      </trkpt>
      <trkpt lat="48.69555" lon="1.68476">
        <ele>146</ele>
        <time>2012-07-24T10:38:35.000Z</time>
      </trkpt>
      <trkpt lat="48.69546" lon="1.68472">
        <ele>145.80000305176</ele>
        <time>2012-07-24T10:38:42.000Z</time>
      </trkpt>
      <trkpt lat="48.69546" lon="1.68471">
        <ele>145.80000305176</ele>
        <time>2012-07-24T10:38:43.000Z</time>
      </trkpt>
      <trkpt lat="48.69539" lon="1.6847">
        <ele>145.80000305176</ele>
        <time>2012-07-24T10:38:48.000Z</time>
      </trkpt>
      <trkpt lat="48.69528" lon="1.68467">
        <ele>145.60000610352</ele>
        <time>2012-07-24T10:38:56.000Z</time>
      </trkpt>
      <trkpt lat="48.69517" lon="1.68462">
        <ele>145.60000610352</ele>
        <time>2012-07-24T10:39:04.000Z</time>
      </trkpt>
      <trkpt lat="48.69503" lon="1.68461">
        <ele>145.60000610352</ele>
        <time>2012-07-24T10:39:12.000Z</time>
      </trkpt>
      <trkpt lat="48.69498" lon="1.68462">
        <ele>145.39999389648</ele>
        <time>2012-07-24T10:39:18.000Z</time>
      </trkpt>
      <trkpt lat="48.6949" lon="1.68464">
        <ele>145.19999694824</ele>
        <time>2012-07-24T10:39:26.000Z</time>
      </trkpt>
      <trkpt lat="48.69479" lon="1.6846">
        <ele>144.60000610352</ele>
        <time>2012-07-24T10:39:34.000Z</time>
      </trkpt>
      <trkpt lat="48.69465" lon="1.68455">
        <ele>144</ele>
        <time>2012-07-24T10:39:44.000Z</time>
      </trkpt>
      <trkpt lat="48.69458" lon="1.68451">
        <ele>143.60000610352</ele>
        <time>2012-07-24T10:39:51.000Z</time>
      </trkpt>
      <trkpt lat="48.69453" lon="1.68451">
        <ele>143.39999389648</ele>
        <time>2012-07-24T10:39:55.000Z</time>
      </trkpt>
      <trkpt lat="48.69448" lon="1.68449">
        <ele>143.19999694824</ele>
        <time>2012-07-24T10:40:02.000Z</time>
      </trkpt>
      <trkpt lat="48.69443" lon="1.68446">
        <ele>142.80000305176</ele>
        <time>2012-07-24T10:40:08.000Z</time>
      </trkpt>
      <trkpt lat="48.69439" lon="1.68445">
        <ele>142.60000610352</ele>
        <time>2012-07-24T10:40:12.000Z</time>
      </trkpt>
      <trkpt lat="48.69432" lon="1.68443">
        <ele>142.39999389648</ele>
        <time>2012-07-24T10:40:16.000Z</time>
      </trkpt>
      <trkpt lat="48.69424" lon="1.68441">
        <ele>142</ele>
        <time>2012-07-24T10:40:21.000Z</time>
      </trkpt>
      <trkpt lat="48.69413" lon="1.68438">
        <ele>141.39999389648</ele>
        <time>2012-07-24T10:40:28.000Z</time>
      </trkpt>
      <trkpt lat="48.69406" lon="1.68431">
        <ele>141.19999694824</ele>
        <time>2012-07-24T10:40:34.000Z</time>
      </trkpt>
      <trkpt lat="48.69399" lon="1.68423">
        <ele>141</ele>
        <time>2012-07-24T10:40:40.000Z</time>
      </trkpt>
      <trkpt lat="48.69394" lon="1.68418">
        <ele>140.80000305176</ele>
        <time>2012-07-24T10:40:45.000Z</time>
      </trkpt>
      <trkpt lat="48.69388" lon="1.68409">
        <ele>140.60000610352</ele>
        <time>2012-07-24T10:40:51.000Z</time>
      </trkpt>
      <trkpt lat="48.69378" lon="1.684">
        <ele>140.60000610352</ele>
        <time>2012-07-24T10:40:59.000Z</time>
      </trkpt>
      <trkpt lat="48.69366" lon="1.68398">
        <ele>140.39999389648</ele>
        <time>2012-07-24T10:41:08.000Z</time>
      </trkpt>
      <trkpt lat="48.69354" lon="1.68396">
        <ele>140.19999694824</ele>
        <time>2012-07-24T10:41:18.000Z</time>
      </trkpt>
      <trkpt lat="48.69346" lon="1.68395">
        <ele>140</ele>
        <time>2012-07-24T10:41:25.000Z</time>
      </trkpt>
      <trkpt lat="48.69334" lon="1.68394">
        <ele>139.80000305176</ele>
        <time>2012-07-24T10:41:34.000Z</time>
      </trkpt>
      <trkpt lat="48.69321" lon="1.68393">
        <ele>140</ele>
        <time>2012-07-24T10:41:43.000Z</time>
      </trkpt>
      <trkpt lat="48.69312" lon="1.68395">
        <ele>140.19999694824</ele>
        <time>2012-07-24T10:41:50.000Z</time>
      </trkpt>
      <trkpt lat="48.69307" lon="1.68394">
        <ele>140.39999389648</ele>
        <time>2012-07-24T10:41:54.000Z</time>
      </trkpt>
      <trkpt lat="48.69298" lon="1.68396">
        <ele>140.60000610352</ele>
        <time>2012-07-24T10:42:02.000Z</time>
      </trkpt>
      <trkpt lat="48.69292" lon="1.68397">
        <ele>140.80000305176</ele>
        <time>2012-07-24T10:42:06.000Z</time>
      </trkpt>
      <trkpt lat="48.69287" lon="1.684">
        <ele>141</ele>
        <time>2012-07-24T10:42:10.000Z</time>
      </trkpt>
      <trkpt lat="48.69282" lon="1.68401">
        <ele>141</ele>
        <time>2012-07-24T10:42:13.000Z</time>
      </trkpt>
      <trkpt lat="48.69278" lon="1.68403">
        <ele>141.19999694824</ele>
        <time>2012-07-24T10:42:17.000Z</time>
      </trkpt>
      <trkpt lat="48.69266" lon="1.68407">
        <ele>141.39999389648</ele>
        <time>2012-07-24T10:42:27.000Z</time>
      </trkpt>
      <trkpt lat="48.69257" lon="1.68415">
        <ele>141.80000305176</ele>
        <time>2012-07-24T10:42:34.000Z</time>
      </trkpt>
      <trkpt lat="48.69253" lon="1.68418">
        <ele>142</ele>
        <time>2012-07-24T10:42:38.000Z</time>
      </trkpt>
      <trkpt lat="48.69252" lon="1.68434">
        <ele>142.60000610352</ele>
        <time>2012-07-24T10:42:46.000Z</time>
      </trkpt>
      <trkpt lat="48.69251" lon="1.68437">
        <ele>142.60000610352</ele>
        <time>2012-07-24T10:42:47.000Z</time>
      </trkpt>
      <trkpt lat="48.69251" lon="1.68445">
        <ele>143</ele>
        <time>2012-07-24T10:42:51.000Z</time>
      </trkpt>
      <trkpt lat="48.69255" lon="1.68457">
        <ele>143.39999389648</ele>
        <time>2012-07-24T10:42:58.000Z</time>
      </trkpt>
      <trkpt lat="48.69253" lon="1.6847">
        <ele>143.80000305176</ele>
        <time>2012-07-24T10:43:04.000Z</time>
      </trkpt>
      <trkpt lat="48.69251" lon="1.68479">
        <ele>144.19999694824</ele>
        <time>2012-07-24T10:43:10.000Z</time>
      </trkpt>
      <trkpt lat="48.69249" lon="1.68493">
        <ele>144.80000305176</ele>
        <time>2012-07-24T10:43:18.000Z</time>
      </trkpt>
      <trkpt lat="48.69247" lon="1.68507">
        <ele>144.80000305176</ele>
        <time>2012-07-24T10:43:25.000Z</time>
      </trkpt>
      <trkpt lat="48.69244" lon="1.68518">
        <ele>144.80000305176</ele>
        <time>2012-07-24T10:43:31.000Z</time>
      </trkpt>
      <trkpt lat="48.69242" lon="1.68529">
        <ele>144.39999389648</ele>
        <time>2012-07-24T10:43:37.000Z</time>
      </trkpt>
      <trkpt lat="48.69239" lon="1.6854">
        <ele>144.19999694824</ele>
        <time>2012-07-24T10:43:43.000Z</time>
      </trkpt>
      <trkpt lat="48.69234" lon="1.68554">
        <ele>144</ele>
        <time>2012-07-24T10:43:50.000Z</time>
      </trkpt>
      <trkpt lat="48.69229" lon="1.68568">
        <ele>143.80000305176</ele>
        <time>2012-07-24T10:43:57.000Z</time>
      </trkpt>
      <trkpt lat="48.69225" lon="1.68582">
        <ele>143.60000610352</ele>
        <time>2012-07-24T10:44:04.000Z</time>
      </trkpt>
      <trkpt lat="48.69222" lon="1.68589">
        <ele>143.60000610352</ele>
        <time>2012-07-24T10:44:08.000Z</time>
      </trkpt>
      <trkpt lat="48.69213" lon="1.68611">
        <ele>143.60000610352</ele>
        <time>2012-07-24T10:44:17.000Z</time>
      </trkpt>
      <trkpt lat="48.69209" lon="1.6862">
        <ele>143.60000610352</ele>
        <time>2012-07-24T10:44:21.000Z</time>
      </trkpt>
      <trkpt lat="48.69202" lon="1.68633">
        <ele>143.60000610352</ele>
        <time>2012-07-24T10:44:29.000Z</time>
      </trkpt>
      <trkpt lat="48.69196" lon="1.68642">
        <ele>143.60000610352</ele>
        <time>2012-07-24T10:44:35.000Z</time>
      </trkpt>
      <trkpt lat="48.69191" lon="1.68653">
        <ele>143.60000610352</ele>
        <time>2012-07-24T10:44:40.000Z</time>
      </trkpt>
      <trkpt lat="48.69183" lon="1.68667">
        <ele>143.60000610352</ele>
        <time>2012-07-24T10:44:48.000Z</time>
      </trkpt>
      <trkpt lat="48.69177" lon="1.68677">
        <ele>143.60000610352</ele>
        <time>2012-07-24T10:44:55.000Z</time>
      </trkpt>
      <trkpt lat="48.69171" lon="1.68688">
        <ele>143.60000610352</ele>
        <time>2012-07-24T10:45:02.000Z</time>
      </trkpt>
      <trkpt lat="48.69165" lon="1.68696">
        <ele>143.60000610352</ele>
        <time>2012-07-24T10:45:08.000Z</time>
      </trkpt>
      <trkpt lat="48.6916" lon="1.68704">
        <ele>143.60000610352</ele>
        <time>2012-07-24T10:45:14.000Z</time>
      </trkpt>
      <trkpt lat="48.69154" lon="1.68716">
        <ele>143.60000610352</ele>
        <time>2012-07-24T10:45:22.000Z</time>
      </trkpt>
      <trkpt lat="48.69147" lon="1.68731">
        <ele>143.60000610352</ele>
        <time>2012-07-24T10:45:31.000Z</time>
      </trkpt>
      <trkpt lat="48.69139" lon="1.68742">
        <ele>143.80000305176</ele>
        <time>2012-07-24T10:45:39.000Z</time>
      </trkpt>
      <trkpt lat="48.69133" lon="1.68752">
        <ele>143.80000305176</ele>
        <time>2012-07-24T10:45:46.000Z</time>
      </trkpt>
      <trkpt lat="48.69129" lon="1.68763">
        <ele>143.80000305176</ele>
        <time>2012-07-24T10:45:53.000Z</time>
      </trkpt>
      <trkpt lat="48.69128" lon="1.68764">
        <ele>143.80000305176</ele>
        <time>2012-07-24T10:45:54.000Z</time>
      </trkpt>
      <trkpt lat="48.69123" lon="1.68779">
        <ele>143.60000610352</ele>
        <time>2012-07-24T10:46:02.000Z</time>
      </trkpt>
      <trkpt lat="48.6912" lon="1.68793">
        <ele>143.60000610352</ele>
        <time>2012-07-24T10:46:08.000Z</time>
      </trkpt>
      <trkpt lat="48.69112" lon="1.68818">
        <ele>143.39999389648</ele>
        <time>2012-07-24T10:46:18.000Z</time>
      </trkpt>
      <trkpt lat="48.69108" lon="1.68829">
        <ele>143.39999389648</ele>
        <time>2012-07-24T10:46:25.000Z</time>
      </trkpt>
      <trkpt lat="48.69107" lon="1.68836">
        <ele>143.39999389648</ele>
        <time>2012-07-24T10:46:29.000Z</time>
      </trkpt>
      <trkpt lat="48.69099" lon="1.68845">
        <ele>143.39999389648</ele>
        <time>2012-07-24T10:46:35.000Z</time>
      </trkpt>
      <trkpt lat="48.69092" lon="1.68853">
        <ele>143.39999389648</ele>
        <time>2012-07-24T10:46:39.000Z</time>
      </trkpt>
      <trkpt lat="48.69082" lon="1.68864">
        <ele>143.19999694824</ele>
        <time>2012-07-24T10:46:46.000Z</time>
      </trkpt>
      <trkpt lat="48.69073" lon="1.68869">
        <ele>143.39999389648</ele>
        <time>2012-07-24T10:46:53.000Z</time>
      </trkpt>
      <trkpt lat="48.69068" lon="1.68876">
        <ele>143.19999694824</ele>
        <time>2012-07-24T10:46:58.000Z</time>
      </trkpt>
      <trkpt lat="48.69067" lon="1.68885">
        <ele>143</ele>
        <time>2012-07-24T10:47:03.000Z</time>
      </trkpt>
      <trkpt lat="48.69062" lon="1.68898">
        <ele>143</ele>
        <time>2012-07-24T10:47:10.000Z</time>
      </trkpt>
      <trkpt lat="48.69057" lon="1.6891">
        <ele>142.80000305176</ele>
        <time>2012-07-24T10:47:17.000Z</time>
      </trkpt>
      <trkpt lat="48.69053" lon="1.68919">
        <ele>142.80000305176</ele>
        <time>2012-07-24T10:47:22.000Z</time>
      </trkpt>
      <trkpt lat="48.6905" lon="1.68932">
        <ele>142.80000305176</ele>
        <time>2012-07-24T10:47:28.000Z</time>
      </trkpt>
      <trkpt lat="48.69048" lon="1.68938">
        <ele>142.80000305176</ele>
        <time>2012-07-24T10:47:31.000Z</time>
      </trkpt>
      <trkpt lat="48.69043" lon="1.68956">
        <ele>143</ele>
        <time>2012-07-24T10:47:41.000Z</time>
      </trkpt>
      <trkpt lat="48.69037" lon="1.6897">
        <ele>143.19999694824</ele>
        <time>2012-07-24T10:47:49.000Z</time>
      </trkpt>
      <trkpt lat="48.69031" lon="1.68978">
        <ele>143.39999389648</ele>
        <time>2012-07-24T10:47:55.000Z</time>
      </trkpt>
      <trkpt lat="48.6903" lon="1.68979">
        <ele>143.39999389648</ele>
        <time>2012-07-24T10:47:56.000Z</time>
      </trkpt>
      <trkpt lat="48.69024" lon="1.68984">
        <ele>143.80000305176</ele>
        <time>2012-07-24T10:48:02.000Z</time>
      </trkpt>
      <trkpt lat="48.69023" lon="1.68985">
        <ele>143.80000305176</ele>
        <time>2012-07-24T10:48:03.000Z</time>
      </trkpt>
      <trkpt lat="48.69009" lon="1.68995">
        <ele>144.60000610352</ele>
        <time>2012-07-24T10:48:13.000Z</time>
      </trkpt>
      <trkpt lat="48.68996" lon="1.69007">
        <ele>145.39999389648</ele>
        <time>2012-07-24T10:48:23.000Z</time>
      </trkpt>
      <trkpt lat="48.68985" lon="1.69019">
        <ele>146.60000610352</ele>
        <time>2012-07-24T10:48:32.000Z</time>
      </trkpt>
      <trkpt lat="48.68978" lon="1.69029">
        <ele>147.39999389648</ele>
        <time>2012-07-24T10:48:39.000Z</time>
      </trkpt>
      <trkpt lat="48.6897" lon="1.69041">
        <ele>148</ele>
        <time>2012-07-24T10:48:47.000Z</time>
      </trkpt>
      <trkpt lat="48.68962" lon="1.69053">
        <ele>148.60000610352</ele>
        <time>2012-07-24T10:48:54.000Z</time>
      </trkpt>
      <trkpt lat="48.68956" lon="1.69061">
        <ele>149.19999694824</ele>
        <time>2012-07-24T10:49:00.000Z</time>
      </trkpt>
      <trkpt lat="48.68949" lon="1.69069">
        <ele>149.60000610352</ele>
        <time>2012-07-24T10:49:06.000Z</time>
      </trkpt>
      <trkpt lat="48.68939" lon="1.6908">
        <ele>150.19999694824</ele>
        <time>2012-07-24T10:49:16.000Z</time>
      </trkpt>
      <trkpt lat="48.68928" lon="1.69091">
        <ele>150.80000305176</ele>
        <time>2012-07-24T10:49:25.000Z</time>
      </trkpt>
      <trkpt lat="48.68923" lon="1.69099">
        <ele>151.19999694824</ele>
        <time>2012-07-24T10:49:32.000Z</time>
      </trkpt>
      <trkpt lat="48.68915" lon="1.6911">
        <ele>151.39999389648</ele>
        <time>2012-07-24T10:49:40.000Z</time>
      </trkpt>
      <trkpt lat="48.68905" lon="1.69121">
        <ele>151.19999694824</ele>
        <time>2012-07-24T10:49:49.000Z</time>
      </trkpt>
      <trkpt lat="48.68897" lon="1.69133">
        <ele>151</ele>
        <time>2012-07-24T10:49:56.000Z</time>
      </trkpt>
      <trkpt lat="48.68884" lon="1.69151">
        <ele>150.19999694824</ele>
        <time>2012-07-24T10:50:04.000Z</time>
      </trkpt>
      <trkpt lat="48.68878" lon="1.6916">
        <ele>149.80000305176</ele>
        <time>2012-07-24T10:50:09.000Z</time>
      </trkpt>
      <trkpt lat="48.68873" lon="1.69174">
        <ele>149.39999389648</ele>
        <time>2012-07-24T10:50:16.000Z</time>
      </trkpt>
      <trkpt lat="48.68866" lon="1.69188">
        <ele>149</ele>
        <time>2012-07-24T10:50:23.000Z</time>
      </trkpt>
      <trkpt lat="48.68857" lon="1.69209">
        <ele>148.60000610352</ele>
        <time>2012-07-24T10:50:33.000Z</time>
      </trkpt>
      <trkpt lat="48.6885" lon="1.69224">
        <ele>148.39999389648</ele>
        <time>2012-07-24T10:50:41.000Z</time>
      </trkpt>
      <trkpt lat="48.68842" lon="1.6924">
        <ele>148.19999694824</ele>
        <time>2012-07-24T10:50:50.000Z</time>
      </trkpt>
      <trkpt lat="48.68833" lon="1.69258">
        <ele>148</ele>
        <time>2012-07-24T10:51:00.000Z</time>
      </trkpt>
      <trkpt lat="48.68825" lon="1.69277">
        <ele>148.19999694824</ele>
        <time>2012-07-24T10:51:10.000Z</time>
      </trkpt>
      <trkpt lat="48.6882" lon="1.69289">
        <ele>148.39999389648</ele>
        <time>2012-07-24T10:51:16.000Z</time>
      </trkpt>
      <trkpt lat="48.68811" lon="1.6931">
        <ele>148.39999389648</ele>
        <time>2012-07-24T10:51:27.000Z</time>
      </trkpt>
      <trkpt lat="48.68806" lon="1.69321">
        <ele>148.19999694824</ele>
        <time>2012-07-24T10:51:33.000Z</time>
      </trkpt>
      <trkpt lat="48.68799" lon="1.69338">
        <ele>148.39999389648</ele>
        <time>2012-07-24T10:51:42.000Z</time>
      </trkpt>
      <trkpt lat="48.68791" lon="1.69353">
        <ele>148.80000305176</ele>
        <time>2012-07-24T10:51:50.000Z</time>
      </trkpt>
      <trkpt lat="48.68784" lon="1.69364">
        <ele>149</ele>
        <time>2012-07-24T10:51:56.000Z</time>
      </trkpt>
      <trkpt lat="48.68778" lon="1.69378">
        <ele>149</ele>
        <time>2012-07-24T10:52:04.000Z</time>
      </trkpt>
      <trkpt lat="48.68773" lon="1.69386">
        <ele>149</ele>
        <time>2012-07-24T10:52:09.000Z</time>
      </trkpt>
      <trkpt lat="48.68771" lon="1.69388">
        <ele>148.80000305176</ele>
        <time>2012-07-24T10:52:10.000Z</time>
      </trkpt>
      <trkpt lat="48.68763" lon="1.69403">
        <ele>148.39999389648</ele>
        <time>2012-07-24T10:52:19.000Z</time>
      </trkpt>
      <trkpt lat="48.68759" lon="1.69414">
        <ele>148</ele>
        <time>2012-07-24T10:52:25.000Z</time>
      </trkpt>
      <trkpt lat="48.68751" lon="1.69425">
        <ele>147.60000610352</ele>
        <time>2012-07-24T10:52:32.000Z</time>
      </trkpt>
      <trkpt lat="48.68745" lon="1.69438">
        <ele>148.60000610352</ele>
        <time>2012-07-24T10:52:39.000Z</time>
      </trkpt>
      <trkpt lat="48.68738" lon="1.69453">
        <ele>149.80000305176</ele>
        <time>2012-07-24T10:52:47.000Z</time>
      </trkpt>
      <trkpt lat="48.68736" lon="1.69456">
        <ele>150</ele>
        <time>2012-07-24T10:52:52.000Z</time>
      </trkpt>
      <trkpt lat="48.68728" lon="1.6947">
        <ele>151</ele>
        <time>2012-07-24T10:53:01.000Z</time>
      </trkpt>
      <trkpt lat="48.6872" lon="1.69481">
        <ele>151.60000610352</ele>
        <time>2012-07-24T10:53:08.000Z</time>
      </trkpt>
      <trkpt lat="48.68709" lon="1.69501">
        <ele>152.60000610352</ele>
        <time>2012-07-24T10:53:20.000Z</time>
      </trkpt>
      <trkpt lat="48.687" lon="1.69519">
        <ele>152.80000305176</ele>
        <time>2012-07-24T10:53:29.000Z</time>
      </trkpt>
      <trkpt lat="48.68696" lon="1.69533">
        <ele>152.80000305176</ele>
        <time>2012-07-24T10:53:37.000Z</time>
      </trkpt>
      <trkpt lat="48.68691" lon="1.69549">
        <ele>152.80000305176</ele>
        <time>2012-07-24T10:53:45.000Z</time>
      </trkpt>
      <trkpt lat="48.68686" lon="1.69562">
        <ele>152.60000610352</ele>
        <time>2012-07-24T10:53:52.000Z</time>
      </trkpt>
      <trkpt lat="48.68683" lon="1.69574">
        <ele>152.39999389648</ele>
        <time>2012-07-24T10:53:58.000Z</time>
      </trkpt>
      <trkpt lat="48.6868" lon="1.69588">
        <ele>152.19999694824</ele>
        <time>2012-07-24T10:54:04.000Z</time>
      </trkpt>
      <trkpt lat="48.68674" lon="1.69603">
        <ele>152</ele>
        <time>2012-07-24T10:54:12.000Z</time>
      </trkpt>
      <trkpt lat="48.6867" lon="1.69616">
        <ele>151.80000305176</ele>
        <time>2012-07-24T10:54:20.000Z</time>
      </trkpt>
      <trkpt lat="48.6867" lon="1.69633">
        <ele>152</ele>
        <time>2012-07-24T10:54:27.000Z</time>
      </trkpt>
      <trkpt lat="48.6867" lon="1.69644">
        <ele>152</ele>
        <time>2012-07-24T10:54:32.000Z</time>
      </trkpt>
      <trkpt lat="48.6867" lon="1.69655">
        <ele>152.19999694824</ele>
        <time>2012-07-24T10:54:37.000Z</time>
      </trkpt>
      <trkpt lat="48.6867" lon="1.69674">
        <ele>152.80000305176</ele>
        <time>2012-07-24T10:54:46.000Z</time>
      </trkpt>
      <trkpt lat="48.68671" lon="1.69688">
        <ele>153.60000610352</ele>
        <time>2012-07-24T10:54:52.000Z</time>
      </trkpt>
      <trkpt lat="48.68674" lon="1.69702">
        <ele>154.60000610352</ele>
        <time>2012-07-24T10:54:58.000Z</time>
      </trkpt>
      <trkpt lat="48.68673" lon="1.6972">
        <ele>155.19999694824</ele>
        <time>2012-07-24T10:55:06.000Z</time>
      </trkpt>
      <trkpt lat="48.68674" lon="1.69733">
        <ele>156</ele>
        <time>2012-07-24T10:55:13.000Z</time>
      </trkpt>
      <trkpt lat="48.68674" lon="1.69744">
        <ele>156.60000610352</ele>
        <time>2012-07-24T10:55:18.000Z</time>
      </trkpt>
      <trkpt lat="48.68674" lon="1.69757">
        <ele>157.19999694824</ele>
        <time>2012-07-24T10:55:25.000Z</time>
      </trkpt>
      <trkpt lat="48.68674" lon="1.69768">
        <ele>157.60000610352</ele>
        <time>2012-07-24T10:55:31.000Z</time>
      </trkpt>
      <trkpt lat="48.68677" lon="1.69784">
        <ele>158.39999389648</ele>
        <time>2012-07-24T10:55:39.000Z</time>
      </trkpt>
      <trkpt lat="48.68677" lon="1.698">
        <ele>158.80000305176</ele>
        <time>2012-07-24T10:55:47.000Z</time>
      </trkpt>
      <trkpt lat="48.68678" lon="1.69812">
        <ele>159.39999389648</ele>
        <time>2012-07-24T10:55:53.000Z</time>
      </trkpt>
      <trkpt lat="48.6868" lon="1.69826">
        <ele>160</ele>
        <time>2012-07-24T10:56:00.000Z</time>
      </trkpt>
      <trkpt lat="48.68682" lon="1.69844">
        <ele>160.60000610352</ele>
        <time>2012-07-24T10:56:07.000Z</time>
      </trkpt>
      <trkpt lat="48.68686" lon="1.69864">
        <ele>161.39999389648</ele>
        <time>2012-07-24T10:56:15.000Z</time>
      </trkpt>
      <trkpt lat="48.68691" lon="1.69877">
        <ele>162</ele>
        <time>2012-07-24T10:56:23.000Z</time>
      </trkpt>
      <trkpt lat="48.687" lon="1.69883">
        <ele>163</ele>
        <time>2012-07-24T10:56:31.000Z</time>
      </trkpt>
      <trkpt lat="48.68713" lon="1.69889">
        <ele>164</ele>
        <time>2012-07-24T10:56:40.000Z</time>
      </trkpt>
      <trkpt lat="48.6872" lon="1.69894">
        <ele>164.60000610352</ele>
        <time>2012-07-24T10:56:47.000Z</time>
      </trkpt>
      <trkpt lat="48.68729" lon="1.69904">
        <ele>165.39999389648</ele>
        <time>2012-07-24T10:56:55.000Z</time>
      </trkpt>
      <trkpt lat="48.68731" lon="1.69905">
        <ele>165.60000610352</ele>
        <time>2012-07-24T10:56:56.000Z</time>
      </trkpt>
      <trkpt lat="48.68736" lon="1.69926">
        <ele>166.19999694824</ele>
        <time>2012-07-24T10:57:06.000Z</time>
      </trkpt>
      <trkpt lat="48.68737" lon="1.69939">
        <ele>166.39999389648</ele>
        <time>2012-07-24T10:57:13.000Z</time>
      </trkpt>
      <trkpt lat="48.68734" lon="1.69956">
        <ele>166.60000610352</ele>
        <time>2012-07-24T10:57:23.000Z</time>
      </trkpt>
      <trkpt lat="48.68734" lon="1.6997">
        <ele>166.80000305176</ele>
        <time>2012-07-24T10:57:31.000Z</time>
      </trkpt>
      <trkpt lat="48.68734" lon="1.69985">
        <ele>167.19999694824</ele>
        <time>2012-07-24T10:57:38.000Z</time>
      </trkpt>
      <trkpt lat="48.68732" lon="1.70003">
        <ele>167.39999389648</ele>
        <time>2012-07-24T10:57:47.000Z</time>
      </trkpt>
      <trkpt lat="48.68729" lon="1.70024">
        <ele>167.80000305176</ele>
        <time>2012-07-24T10:57:57.000Z</time>
      </trkpt>
      <trkpt lat="48.68729" lon="1.70039">
        <ele>168.19999694824</ele>
        <time>2012-07-24T10:58:04.000Z</time>
      </trkpt>
      <trkpt lat="48.68729" lon="1.70048">
        <ele>168.39999389648</ele>
        <time>2012-07-24T10:58:08.000Z</time>
      </trkpt>
      <trkpt lat="48.6873" lon="1.70056">
        <ele>168.60000610352</ele>
        <time>2012-07-24T10:58:12.000Z</time>
      </trkpt>
      <trkpt lat="48.68729" lon="1.70071">
        <ele>169</ele>
        <time>2012-07-24T10:58:20.000Z</time>
      </trkpt>
      <trkpt lat="48.68728" lon="1.7009">
        <ele>169.39999389648</ele>
        <time>2012-07-24T10:58:29.000Z</time>
      </trkpt>
      <trkpt lat="48.68727" lon="1.70105">
        <ele>170</ele>
        <time>2012-07-24T10:58:36.000Z</time>
      </trkpt>
      <trkpt lat="48.68726" lon="1.70124">
        <ele>170.80000305176</ele>
        <time>2012-07-24T10:58:46.000Z</time>
      </trkpt>
      <trkpt lat="48.68724" lon="1.70139">
        <ele>171.19999694824</ele>
        <time>2012-07-24T10:58:54.000Z</time>
      </trkpt>
      <trkpt lat="48.68723" lon="1.70147">
        <ele>171.60000610352</ele>
        <time>2012-07-24T10:58:58.000Z</time>
      </trkpt>
      <trkpt lat="48.68722" lon="1.70164">
        <ele>172.19999694824</ele>
        <time>2012-07-24T10:59:06.000Z</time>
      </trkpt>
      <trkpt lat="48.68721" lon="1.70184">
        <ele>172.60000610352</ele>
        <time>2012-07-24T10:59:15.000Z</time>
      </trkpt>
      <trkpt lat="48.68719" lon="1.70203">
        <ele>173</ele>
        <time>2012-07-24T10:59:24.000Z</time>
      </trkpt>
      <trkpt lat="48.68717" lon="1.70219">
        <ele>173.39999389648</ele>
        <time>2012-07-24T10:59:32.000Z</time>
      </trkpt>
      <trkpt lat="48.68716" lon="1.70235">
        <ele>173.60000610352</ele>
        <time>2012-07-24T10:59:40.000Z</time>
      </trkpt>
      <trkpt lat="48.68715" lon="1.70253">
        <ele>174</ele>
        <time>2012-07-24T10:59:48.000Z</time>
      </trkpt>
      <trkpt lat="48.68713" lon="1.7027">
        <ele>174.19999694824</ele>
        <time>2012-07-24T10:59:56.000Z</time>
      </trkpt>
      <trkpt lat="48.68714" lon="1.70285">
        <ele>174.19999694824</ele>
        <time>2012-07-24T11:00:02.000Z</time>
      </trkpt>
      <trkpt lat="48.68714" lon="1.70306">
        <ele>174.39999389648</ele>
        <time>2012-07-24T11:00:11.000Z</time>
      </trkpt>
      <trkpt lat="48.68713" lon="1.70314">
        <ele>174.39999389648</ele>
        <time>2012-07-24T11:00:15.000Z</time>
      </trkpt>
      <trkpt lat="48.68713" lon="1.70327">
        <ele>174.60000610352</ele>
        <time>2012-07-24T11:00:21.000Z</time>
      </trkpt>
      <trkpt lat="48.68713" lon="1.70342">
        <ele>174.60000610352</ele>
        <time>2012-07-24T11:00:28.000Z</time>
      </trkpt>
      <trkpt lat="48.68714" lon="1.70354">
        <ele>174.80000305176</ele>
        <time>2012-07-24T11:00:33.000Z</time>
      </trkpt>
      <trkpt lat="48.68712" lon="1.7037">
        <ele>174.80000305176</ele>
        <time>2012-07-24T11:00:40.000Z</time>
      </trkpt>
      <trkpt lat="48.68709" lon="1.70381">
        <ele>174.80000305176</ele>
        <time>2012-07-24T11:00:46.000Z</time>
      </trkpt>
      <trkpt lat="48.68707" lon="1.70385">
        <ele>174.80000305176</ele>
        <time>2012-07-24T11:00:48.000Z</time>
      </trkpt>
      <trkpt lat="48.68701" lon="1.70402">
        <ele>174.80000305176</ele>
        <time>2012-07-24T11:00:57.000Z</time>
      </trkpt>
      <trkpt lat="48.68699" lon="1.70408">
        <ele>174.80000305176</ele>
        <time>2012-07-24T11:01:01.000Z</time>
      </trkpt>
      <trkpt lat="48.68696" lon="1.70421">
        <ele>174.80000305176</ele>
        <time>2012-07-24T11:01:07.000Z</time>
      </trkpt>
      <trkpt lat="48.68694" lon="1.70426">
        <ele>174.60000610352</ele>
        <time>2012-07-24T11:01:10.000Z</time>
      </trkpt>
      <trkpt lat="48.68692" lon="1.70428">
        <ele>174.60000610352</ele>
        <time>2012-07-24T11:01:14.000Z</time>
      </trkpt>
      <trkpt lat="48.68676" lon="1.70425">
        <ele>174.39999389648</ele>
        <time>2012-07-24T11:02:00.000Z</time>
      </trkpt>
      <trkpt lat="48.68669" lon="1.70421">
        <ele>174.19999694824</ele>
        <time>2012-07-24T11:02:04.000Z</time>
      </trkpt>
      <trkpt lat="48.68664" lon="1.70418">
        <ele>174</ele>
        <time>2012-07-24T11:02:07.000Z</time>
      </trkpt>
      <trkpt lat="48.68659" lon="1.70416">
        <ele>174</ele>
        <time>2012-07-24T11:02:10.000Z</time>
      </trkpt>
      <trkpt lat="48.68647" lon="1.70419">
        <ele>173.80000305176</ele>
        <time>2012-07-24T11:02:20.000Z</time>
      </trkpt>
      <trkpt lat="48.68635" lon="1.70425">
        <ele>173.80000305176</ele>
        <time>2012-07-24T11:02:29.000Z</time>
      </trkpt>
      <trkpt lat="48.68625" lon="1.7043">
        <ele>173.80000305176</ele>
        <time>2012-07-24T11:02:37.000Z</time>
      </trkpt>
      <trkpt lat="48.68617" lon="1.70434">
        <ele>173.80000305176</ele>
        <time>2012-07-24T11:02:42.000Z</time>
      </trkpt>
      <trkpt lat="48.68609" lon="1.70439">
        <ele>173.80000305176</ele>
        <time>2012-07-24T11:02:49.000Z</time>
      </trkpt>
      <trkpt lat="48.68598" lon="1.70445">
        <ele>173.80000305176</ele>
        <time>2012-07-24T11:02:56.000Z</time>
      </trkpt>
      <trkpt lat="48.68586" lon="1.70452">
        <ele>173.80000305176</ele>
        <time>2012-07-24T11:03:04.000Z</time>
      </trkpt>
      <trkpt lat="48.68573" lon="1.70458">
        <ele>173.19999694824</ele>
        <time>2012-07-24T11:03:13.000Z</time>
      </trkpt>
      <trkpt lat="48.68564" lon="1.70463">
        <ele>172.80000305176</ele>
        <time>2012-07-24T11:03:20.000Z</time>
      </trkpt>
      <trkpt lat="48.68554" lon="1.70466">
        <ele>172</ele>
        <time>2012-07-24T11:03:26.000Z</time>
      </trkpt>
      <trkpt lat="48.68546" lon="1.70468">
        <ele>171.39999389648</ele>
        <time>2012-07-24T11:03:33.000Z</time>
      </trkpt>
      <trkpt lat="48.68546" lon="1.70468">
        <ele>171.39999389648</ele>
        <time>2012-07-24T11:03:34.000Z</time>
      </trkpt>
      <trkpt lat="48.68541" lon="1.70471">
        <ele>171</ele>
        <time>2012-07-24T11:03:41.000Z</time>
      </trkpt>
      <trkpt lat="48.68538" lon="1.70474">
        <ele>170.80000305176</ele>
        <time>2012-07-24T11:03:43.000Z</time>
      </trkpt>
      <trkpt lat="48.68531" lon="1.70478">
        <ele>170.39999389648</ele>
        <time>2012-07-24T11:03:50.000Z</time>
      </trkpt>
      <trkpt lat="48.68527" lon="1.7048">
        <ele>170.19999694824</ele>
        <time>2012-07-24T11:03:53.000Z</time>
      </trkpt>
      <trkpt lat="48.68522" lon="1.70478">
        <ele>169.60000610352</ele>
        <time>2012-07-24T11:03:59.000Z</time>
      </trkpt>
      <trkpt lat="48.6852" lon="1.70479">
        <ele>169.60000610352</ele>
        <time>2012-07-24T11:04:01.000Z</time>
      </trkpt>
      <trkpt lat="48.68511" lon="1.70484">
        <ele>168.80000305176</ele>
        <time>2012-07-24T11:04:08.000Z</time>
      </trkpt>
      <trkpt lat="48.68503" lon="1.70489">
        <ele>168.19999694824</ele>
        <time>2012-07-24T11:04:15.000Z</time>
      </trkpt>
      <trkpt lat="48.68495" lon="1.70492">
        <ele>167.80000305176</ele>
        <time>2012-07-24T11:04:22.000Z</time>
      </trkpt>
      <trkpt lat="48.68493" lon="1.70493">
        <ele>167.80000305176</ele>
        <time>2012-07-24T11:04:23.000Z</time>
      </trkpt>
      <trkpt lat="48.68489" lon="1.70499">
        <ele>167.80000305176</ele>
        <time>2012-07-24T11:04:27.000Z</time>
      </trkpt>
      <trkpt lat="48.68483" lon="1.70503">
        <ele>167.60000610352</ele>
        <time>2012-07-24T11:04:32.000Z</time>
      </trkpt>
      <trkpt lat="48.68477" lon="1.70505">
        <ele>167.60000610352</ele>
        <time>2012-07-24T11:04:36.000Z</time>
      </trkpt>
      <trkpt lat="48.68466" lon="1.70512">
        <ele>167.39999389648</ele>
        <time>2012-07-24T11:04:44.000Z</time>
      </trkpt>
      <trkpt lat="48.68465" lon="1.70513">
        <ele>167.39999389648</ele>
        <time>2012-07-24T11:04:45.000Z</time>
      </trkpt>
      <trkpt lat="48.68453" lon="1.70515">
        <ele>167.19999694824</ele>
        <time>2012-07-24T11:04:53.000Z</time>
      </trkpt>
      <trkpt lat="48.68443" lon="1.70519">
        <ele>167</ele>
        <time>2012-07-24T11:05:00.000Z</time>
      </trkpt>
      <trkpt lat="48.68442" lon="1.70519">
        <ele>167</ele>
        <time>2012-07-24T11:05:01.000Z</time>
      </trkpt>
      <trkpt lat="48.68439" lon="1.70522">
        <ele>166.80000305176</ele>
        <time>2012-07-24T11:05:04.000Z</time>
      </trkpt>
      <trkpt lat="48.68431" lon="1.70527">
        <ele>166.80000305176</ele>
        <time>2012-07-24T11:05:09.000Z</time>
      </trkpt>
      <trkpt lat="48.6842" lon="1.70529">
        <ele>166.39999389648</ele>
        <time>2012-07-24T11:05:16.000Z</time>
      </trkpt>
      <trkpt lat="48.68408" lon="1.70535">
        <ele>166.19999694824</ele>
        <time>2012-07-24T11:05:24.000Z</time>
      </trkpt>
      <trkpt lat="48.684" lon="1.7054">
        <ele>166</ele>
        <time>2012-07-24T11:05:31.000Z</time>
      </trkpt>
      <trkpt lat="48.68387" lon="1.70546">
        <ele>165.80000305176</ele>
        <time>2012-07-24T11:05:39.000Z</time>
      </trkpt>
      <trkpt lat="48.68381" lon="1.70549">
        <ele>165.60000610352</ele>
        <time>2012-07-24T11:05:44.000Z</time>
      </trkpt>
      <trkpt lat="48.68376" lon="1.70553">
        <ele>165.60000610352</ele>
        <time>2012-07-24T11:05:49.000Z</time>
      </trkpt>
      <trkpt lat="48.68367" lon="1.70556">
        <ele>165.19999694824</ele>
        <time>2012-07-24T11:05:55.000Z</time>
      </trkpt>
      <trkpt lat="48.68361" lon="1.70559">
        <ele>165</ele>
        <time>2012-07-24T11:05:58.000Z</time>
      </trkpt>
      <trkpt lat="48.6835" lon="1.70563">
        <ele>164.80000305176</ele>
        <time>2012-07-24T11:06:05.000Z</time>
      </trkpt>
      <trkpt lat="48.68342" lon="1.70567">
        <ele>164.39999389648</ele>
        <time>2012-07-24T11:06:12.000Z</time>
      </trkpt>
      <trkpt lat="48.68338" lon="1.70569">
        <ele>164.39999389648</ele>
        <time>2012-07-24T11:06:15.000Z</time>
      </trkpt>
      <trkpt lat="48.68328" lon="1.70573">
        <ele>164.80000305176</ele>
        <time>2012-07-24T11:06:24.000Z</time>
      </trkpt>
      <trkpt lat="48.68317" lon="1.70579">
        <ele>166</ele>
        <time>2012-07-24T11:06:32.000Z</time>
      </trkpt>
      <trkpt lat="48.68309" lon="1.70583">
        <ele>167</ele>
        <time>2012-07-24T11:06:36.000Z</time>
      </trkpt>
      <trkpt lat="48.68301" lon="1.70586">
        <ele>168</ele>
        <time>2012-07-24T11:06:42.000Z</time>
      </trkpt>
      <trkpt lat="48.68291" lon="1.7059">
        <ele>169.19999694824</ele>
        <time>2012-07-24T11:06:49.000Z</time>
      </trkpt>
      <trkpt lat="48.68277" lon="1.70599">
        <ele>171</ele>
        <time>2012-07-24T11:06:59.000Z</time>
      </trkpt>
      <trkpt lat="48.68268" lon="1.70606">
        <ele>172.19999694824</ele>
        <time>2012-07-24T11:07:07.000Z</time>
      </trkpt>
      <trkpt lat="48.68259" lon="1.7061">
        <ele>173.19999694824</ele>
        <time>2012-07-24T11:07:14.000Z</time>
      </trkpt>
      <trkpt lat="48.6825" lon="1.70615">
        <ele>174.39999389648</ele>
        <time>2012-07-24T11:07:20.000Z</time>
      </trkpt>
      <trkpt lat="48.68242" lon="1.7062">
        <ele>174.60000610352</ele>
        <time>2012-07-24T11:07:25.000Z</time>
      </trkpt>
      <trkpt lat="48.68232" lon="1.70624">
        <ele>175</ele>
        <time>2012-07-24T11:07:32.000Z</time>
      </trkpt>
      <trkpt lat="48.68223" lon="1.70628">
        <ele>175.39999389648</ele>
        <time>2012-07-24T11:07:39.000Z</time>
      </trkpt>
      <trkpt lat="48.68214" lon="1.70633">
        <ele>175.60000610352</ele>
        <time>2012-07-24T11:07:46.000Z</time>
      </trkpt>
      <trkpt lat="48.68211" lon="1.70633">
        <ele>175.80000305176</ele>
        <time>2012-07-24T11:07:49.000Z</time>
      </trkpt>
      <trkpt lat="48.68205" lon="1.70636">
        <ele>176</ele>
        <time>2012-07-24T11:07:56.000Z</time>
      </trkpt>
      <trkpt lat="48.68202" lon="1.70638">
        <ele>176</ele>
        <time>2012-07-24T11:07:59.000Z</time>
      </trkpt>
      <trkpt lat="48.68194" lon="1.70645">
        <ele>176.19999694824</ele>
        <time>2012-07-24T11:08:05.000Z</time>
      </trkpt>
      <trkpt lat="48.68188" lon="1.7065">
        <ele>176.39999389648</ele>
        <time>2012-07-24T11:08:12.000Z</time>
      </trkpt>
      <trkpt lat="48.68179" lon="1.70652">
        <ele>176.60000610352</ele>
        <time>2012-07-24T11:08:18.000Z</time>
      </trkpt>
      <trkpt lat="48.68177" lon="1.70652">
        <ele>176.80000305176</ele>
        <time>2012-07-24T11:08:19.000Z</time>
      </trkpt>
      <trkpt lat="48.68173" lon="1.7066">
        <ele>176.80000305176</ele>
        <time>2012-07-24T11:08:26.000Z</time>
      </trkpt>
      <trkpt lat="48.68173" lon="1.70663">
        <ele>176.80000305176</ele>
        <time>2012-07-24T11:08:29.000Z</time>
      </trkpt>
      <trkpt lat="48.68162" lon="1.70665">
        <ele>177</ele>
        <time>2012-07-24T11:08:36.000Z</time>
      </trkpt>
      <trkpt lat="48.68157" lon="1.70666">
        <ele>177</ele>
        <time>2012-07-24T11:08:41.000Z</time>
      </trkpt>
      <trkpt lat="48.68149" lon="1.70667">
        <ele>177</ele>
        <time>2012-07-24T11:08:49.000Z</time>
      </trkpt>
      <trkpt lat="48.68144" lon="1.70671">
        <ele>177</ele>
        <time>2012-07-24T11:08:55.000Z</time>
      </trkpt>
      <trkpt lat="48.68137" lon="1.70675">
        <ele>177</ele>
        <time>2012-07-24T11:09:02.000Z</time>
      </trkpt>
      <trkpt lat="48.68127" lon="1.70678">
        <ele>177</ele>
        <time>2012-07-24T11:09:09.000Z</time>
      </trkpt>
      <trkpt lat="48.68126" lon="1.7068">
        <ele>177</ele>
        <time>2012-07-24T11:09:11.000Z</time>
      </trkpt>
      <trkpt lat="48.68119" lon="1.70681">
        <ele>177</ele>
        <time>2012-07-24T11:09:15.000Z</time>
      </trkpt>
      <trkpt lat="48.68112" lon="1.70682">
        <ele>177</ele>
        <time>2012-07-24T11:09:19.000Z</time>
      </trkpt>
      <trkpt lat="48.68107" lon="1.70685">
        <ele>177</ele>
        <time>2012-07-24T11:09:23.000Z</time>
      </trkpt>
      <trkpt lat="48.68097" lon="1.7069">
        <ele>176.80000305176</ele>
        <time>2012-07-24T11:09:29.000Z</time>
      </trkpt>
      <trkpt lat="48.68087" lon="1.70694">
        <ele>176.60000610352</ele>
        <time>2012-07-24T11:09:36.000Z</time>
      </trkpt>
      <trkpt lat="48.68075" lon="1.70697">
        <ele>176.19999694824</ele>
        <time>2012-07-24T11:09:44.000Z</time>
      </trkpt>
      <trkpt lat="48.68067" lon="1.70703">
        <ele>175.80000305176</ele>
        <time>2012-07-24T11:09:51.000Z</time>
      </trkpt>
      <trkpt lat="48.68053" lon="1.7071">
        <ele>174.80000305176</ele>
        <time>2012-07-24T11:10:02.000Z</time>
      </trkpt>
      <trkpt lat="48.68044" lon="1.70715">
        <ele>174.19999694824</ele>
        <time>2012-07-24T11:10:08.000Z</time>
      </trkpt>
      <trkpt lat="48.6803" lon="1.70722">
        <ele>173.39999389648</ele>
        <time>2012-07-24T11:10:17.000Z</time>
      </trkpt>
      <trkpt lat="48.68017" lon="1.70729">
        <ele>172.39999389648</ele>
        <time>2012-07-24T11:10:26.000Z</time>
      </trkpt>
      <trkpt lat="48.68006" lon="1.70734">
        <ele>171.80000305176</ele>
        <time>2012-07-24T11:10:34.000Z</time>
      </trkpt>
      <trkpt lat="48.67998" lon="1.70739">
        <ele>171.19999694824</ele>
        <time>2012-07-24T11:10:40.000Z</time>
      </trkpt>
      <trkpt lat="48.6799" lon="1.70743">
        <ele>171.19999694824</ele>
        <time>2012-07-24T11:10:47.000Z</time>
      </trkpt>
      <trkpt lat="48.67989" lon="1.70744">
        <ele>171.19999694824</ele>
        <time>2012-07-24T11:10:48.000Z</time>
      </trkpt>
      <trkpt lat="48.67978" lon="1.70749">
        <ele>171</ele>
        <time>2012-07-24T11:10:55.000Z</time>
      </trkpt>
      <trkpt lat="48.67973" lon="1.70752">
        <ele>171</ele>
        <time>2012-07-24T11:10:59.000Z</time>
      </trkpt>
      <trkpt lat="48.67964" lon="1.7076">
        <ele>170.80000305176</ele>
        <time>2012-07-24T11:11:07.000Z</time>
      </trkpt>
      <trkpt lat="48.67958" lon="1.70762">
        <ele>170.80000305176</ele>
        <time>2012-07-24T11:11:11.000Z</time>
      </trkpt>
      <trkpt lat="48.67946" lon="1.70765">
        <ele>170.80000305176</ele>
        <time>2012-07-24T11:11:19.000Z</time>
      </trkpt>
      <trkpt lat="48.67938" lon="1.70767">
        <ele>170.80000305176</ele>
        <time>2012-07-24T11:11:26.000Z</time>
      </trkpt>
      <trkpt lat="48.67933" lon="1.70769">
        <ele>170.80000305176</ele>
        <time>2012-07-24T11:11:30.000Z</time>
      </trkpt>
      <trkpt lat="48.67925" lon="1.70775">
        <ele>170.60000610352</ele>
        <time>2012-07-24T11:11:37.000Z</time>
      </trkpt>
      <trkpt lat="48.67916" lon="1.70781">
        <ele>170.60000610352</ele>
        <time>2012-07-24T11:11:44.000Z</time>
      </trkpt>
      <trkpt lat="48.67906" lon="1.70787">
        <ele>170.39999389648</ele>
        <time>2012-07-24T11:11:51.000Z</time>
      </trkpt>
      <trkpt lat="48.67895" lon="1.70791">
        <ele>170.19999694824</ele>
        <time>2012-07-24T11:11:58.000Z</time>
      </trkpt>
      <trkpt lat="48.67889" lon="1.70795">
        <ele>170</ele>
        <time>2012-07-24T11:12:03.000Z</time>
      </trkpt>
      <trkpt lat="48.67881" lon="1.70796">
        <ele>169.80000305176</ele>
        <time>2012-07-24T11:12:08.000Z</time>
      </trkpt>
      <trkpt lat="48.67876" lon="1.708">
        <ele>169.60000610352</ele>
        <time>2012-07-24T11:12:12.000Z</time>
      </trkpt>
      <trkpt lat="48.67863" lon="1.70805">
        <ele>169</ele>
        <time>2012-07-24T11:12:21.000Z</time>
      </trkpt>
      <trkpt lat="48.67854" lon="1.70812">
        <ele>168.60000610352</ele>
        <time>2012-07-24T11:12:27.000Z</time>
      </trkpt>
      <trkpt lat="48.67847" lon="1.70817">
        <ele>168.19999694824</ele>
        <time>2012-07-24T11:12:31.000Z</time>
      </trkpt>
      <trkpt lat="48.67841" lon="1.70823">
        <ele>167.80000305176</ele>
        <time>2012-07-24T11:12:38.000Z</time>
      </trkpt>
      <trkpt lat="48.67834" lon="1.70826">
        <ele>167.39999389648</ele>
        <time>2012-07-24T11:12:45.000Z</time>
      </trkpt>
      <trkpt lat="48.67827" lon="1.70826">
        <ele>167</ele>
        <time>2012-07-24T11:12:49.000Z</time>
      </trkpt>
      <trkpt lat="48.67823" lon="1.70826">
        <ele>166.80000305176</ele>
        <time>2012-07-24T11:12:52.000Z</time>
      </trkpt>
      <trkpt lat="48.67813" lon="1.7083">
        <ele>166.19999694824</ele>
        <time>2012-07-24T11:13:00.000Z</time>
      </trkpt>
      <trkpt lat="48.67804" lon="1.70831">
        <ele>165.80000305176</ele>
        <time>2012-07-24T11:13:07.000Z</time>
      </trkpt>
      <trkpt lat="48.67798" lon="1.70834">
        <ele>165.19999694824</ele>
        <time>2012-07-24T11:13:12.000Z</time>
      </trkpt>
      <trkpt lat="48.6779" lon="1.70837">
        <ele>164.80000305176</ele>
        <time>2012-07-24T11:13:16.000Z</time>
      </trkpt>
      <trkpt lat="48.67781" lon="1.70842">
        <ele>164.39999389648</ele>
        <time>2012-07-24T11:13:24.000Z</time>
      </trkpt>
      <trkpt lat="48.67776" lon="1.70844">
        <ele>164</ele>
        <time>2012-07-24T11:13:27.000Z</time>
      </trkpt>
      <trkpt lat="48.67763" lon="1.70854">
        <ele>163.39999389648</ele>
        <time>2012-07-24T11:13:36.000Z</time>
      </trkpt>
      <trkpt lat="48.67759" lon="1.70865">
        <ele>163</ele>
        <time>2012-07-24T11:13:43.000Z</time>
      </trkpt>
      <trkpt lat="48.6776" lon="1.70871">
        <ele>163</ele>
        <time>2012-07-24T11:13:50.000Z</time>
      </trkpt>
      <trkpt lat="48.67763" lon="1.7088">
        <ele>163</ele>
        <time>2012-07-24T11:13:55.000Z</time>
      </trkpt>
      <trkpt lat="48.67764" lon="1.70888">
        <ele>162.80000305176</ele>
        <time>2012-07-24T11:14:00.000Z</time>
      </trkpt>
      <trkpt lat="48.67766" lon="1.70901">
        <ele>162.80000305176</ele>
        <time>2012-07-24T11:14:07.000Z</time>
      </trkpt>
      <trkpt lat="48.67772" lon="1.7092">
        <ele>162.80000305176</ele>
        <time>2012-07-24T11:14:15.000Z</time>
      </trkpt>
      <trkpt lat="48.67775" lon="1.70933">
        <ele>162.80000305176</ele>
        <time>2012-07-24T11:14:21.000Z</time>
      </trkpt>
      <trkpt lat="48.67777" lon="1.70946">
        <ele>162.60000610352</ele>
        <time>2012-07-24T11:14:27.000Z</time>
      </trkpt>
      <trkpt lat="48.67779" lon="1.70959">
        <ele>162.60000610352</ele>
        <time>2012-07-24T11:14:34.000Z</time>
      </trkpt>
      <trkpt lat="48.67779" lon="1.70963">
        <ele>162.39999389648</ele>
        <time>2012-07-24T11:14:36.000Z</time>
      </trkpt>
      <trkpt lat="48.67784" lon="1.70976">
        <ele>162.39999389648</ele>
        <time>2012-07-24T11:14:43.000Z</time>
      </trkpt>
      <trkpt lat="48.67787" lon="1.70991">
        <ele>162.39999389648</ele>
        <time>2012-07-24T11:14:50.000Z</time>
      </trkpt>
      <trkpt lat="48.67788" lon="1.70996">
        <ele>162.39999389648</ele>
        <time>2012-07-24T11:14:53.000Z</time>
      </trkpt>
      <trkpt lat="48.67792" lon="1.7101">
        <ele>162.60000610352</ele>
        <time>2012-07-24T11:15:00.000Z</time>
      </trkpt>
      <trkpt lat="48.67794" lon="1.71023">
        <ele>162.80000305176</ele>
        <time>2012-07-24T11:15:07.000Z</time>
      </trkpt>
      <trkpt lat="48.67795" lon="1.71027">
        <ele>162.80000305176</ele>
        <time>2012-07-24T11:15:09.000Z</time>
      </trkpt>
      <trkpt lat="48.67797" lon="1.71038">
        <ele>162.80000305176</ele>
        <time>2012-07-24T11:15:15.000Z</time>
      </trkpt>
      <trkpt lat="48.67801" lon="1.71056">
        <ele>163</ele>
        <time>2012-07-24T11:15:23.000Z</time>
      </trkpt>
      <trkpt lat="48.67803" lon="1.71063">
        <ele>163</ele>
        <time>2012-07-24T11:15:26.000Z</time>
      </trkpt>
      <trkpt lat="48.67809" lon="1.71072">
        <ele>163</ele>
        <time>2012-07-24T11:15:32.000Z</time>
      </trkpt>
      <trkpt lat="48.6781" lon="1.7108">
        <ele>163</ele>
        <time>2012-07-24T11:15:37.000Z</time>
      </trkpt>
      <trkpt lat="48.67813" lon="1.71088">
        <ele>163.19999694824</ele>
        <time>2012-07-24T11:15:41.000Z</time>
      </trkpt>
      <trkpt lat="48.67816" lon="1.71101">
        <ele>163.39999389648</ele>
        <time>2012-07-24T11:15:47.000Z</time>
      </trkpt>
      <trkpt lat="48.67816" lon="1.71109">
        <ele>163.60000610352</ele>
        <time>2012-07-24T11:15:51.000Z</time>
      </trkpt>
      <trkpt lat="48.67817" lon="1.71118">
        <ele>163.80000305176</ele>
        <time>2012-07-24T11:15:55.000Z</time>
      </trkpt>
      <trkpt lat="48.67821" lon="1.71131">
        <ele>164.19999694824</ele>
        <time>2012-07-24T11:16:02.000Z</time>
      </trkpt>
      <trkpt lat="48.67823" lon="1.71137">
        <ele>164.19999694824</ele>
        <time>2012-07-24T11:16:04.000Z</time>
      </trkpt>
      <trkpt lat="48.67829" lon="1.71154">
        <ele>164.60000610352</ele>
        <time>2012-07-24T11:16:12.000Z</time>
      </trkpt>
      <trkpt lat="48.67832" lon="1.71164">
        <ele>165</ele>
        <time>2012-07-24T11:16:17.000Z</time>
      </trkpt>
      <trkpt lat="48.67834" lon="1.71177">
        <ele>165.19999694824</ele>
        <time>2012-07-24T11:16:24.000Z</time>
      </trkpt>
      <trkpt lat="48.67835" lon="1.71192">
        <ele>165.60000610352</ele>
        <time>2012-07-24T11:16:31.000Z</time>
      </trkpt>
      <trkpt lat="48.67838" lon="1.71198">
        <ele>165.80000305176</ele>
        <time>2012-07-24T11:16:34.000Z</time>
      </trkpt>
      <trkpt lat="48.67843" lon="1.71215">
        <ele>166.39999389648</ele>
        <time>2012-07-24T11:16:42.000Z</time>
      </trkpt>
      <trkpt lat="48.67847" lon="1.71231">
        <ele>166.80000305176</ele>
        <time>2012-07-24T11:16:49.000Z</time>
      </trkpt>
      <trkpt lat="48.6785" lon="1.71245">
        <ele>167.19999694824</ele>
        <time>2012-07-24T11:16:55.000Z</time>
      </trkpt>
      <trkpt lat="48.67851" lon="1.71247">
        <ele>167.39999389648</ele>
        <time>2012-07-24T11:16:56.000Z</time>
      </trkpt>
      <trkpt lat="48.67851" lon="1.71256">
        <ele>167.60000610352</ele>
        <time>2012-07-24T11:17:00.000Z</time>
      </trkpt>
      <trkpt lat="48.67857" lon="1.71275">
        <ele>168.19999694824</ele>
        <time>2012-07-24T11:17:07.000Z</time>
      </trkpt>
      <trkpt lat="48.67863" lon="1.71295">
        <ele>169</ele>
        <time>2012-07-24T11:17:14.000Z</time>
      </trkpt>
      <trkpt lat="48.67865" lon="1.71304">
        <ele>169.39999389648</ele>
        <time>2012-07-24T11:17:19.000Z</time>
      </trkpt>
      <trkpt lat="48.67867" lon="1.71319">
        <ele>169.80000305176</ele>
        <time>2012-07-24T11:17:27.000Z</time>
      </trkpt>
      <trkpt lat="48.67871" lon="1.71332">
        <ele>170.39999389648</ele>
        <time>2012-07-24T11:17:34.000Z</time>
      </trkpt>
      <trkpt lat="48.67876" lon="1.71348">
        <ele>170.60000610352</ele>
        <time>2012-07-24T11:17:42.000Z</time>
      </trkpt>
      <trkpt lat="48.67882" lon="1.71363">
        <ele>171</ele>
        <time>2012-07-24T11:17:50.000Z</time>
      </trkpt>
      <trkpt lat="48.67885" lon="1.71376">
        <ele>171.19999694824</ele>
        <time>2012-07-24T11:17:56.000Z</time>
      </trkpt>
      <trkpt lat="48.67888" lon="1.71389">
        <ele>171.39999389648</ele>
        <time>2012-07-24T11:18:02.000Z</time>
      </trkpt>
      <trkpt lat="48.67891" lon="1.71406">
        <ele>171.60000610352</ele>
        <time>2012-07-24T11:18:10.000Z</time>
      </trkpt>
      <trkpt lat="48.67892" lon="1.71411">
        <ele>171.80000305176</ele>
        <time>2012-07-24T11:18:12.000Z</time>
      </trkpt>
      <trkpt lat="48.67898" lon="1.71428">
        <ele>172.19999694824</ele>
        <time>2012-07-24T11:18:19.000Z</time>
      </trkpt>
      <trkpt lat="48.679" lon="1.71435">
        <ele>172.19999694824</ele>
        <time>2012-07-24T11:18:22.000Z</time>
      </trkpt>
      <trkpt lat="48.67903" lon="1.71447">
        <ele>172.39999389648</ele>
        <time>2012-07-24T11:18:28.000Z</time>
      </trkpt>
      <trkpt lat="48.67906" lon="1.7146">
        <ele>172.60000610352</ele>
        <time>2012-07-24T11:18:34.000Z</time>
      </trkpt>
      <trkpt lat="48.67909" lon="1.71476">
        <ele>172.80000305176</ele>
        <time>2012-07-24T11:18:41.000Z</time>
      </trkpt>
      <trkpt lat="48.67913" lon="1.71497">
        <ele>173</ele>
        <time>2012-07-24T11:18:50.000Z</time>
      </trkpt>
      <trkpt lat="48.67916" lon="1.71512">
        <ele>173</ele>
        <time>2012-07-24T11:18:57.000Z</time>
      </trkpt>
      <trkpt lat="48.67923" lon="1.71532">
        <ele>173.39999389648</ele>
        <time>2012-07-24T11:19:06.000Z</time>
      </trkpt>
      <trkpt lat="48.67926" lon="1.71548">
        <ele>173.39999389648</ele>
        <time>2012-07-24T11:19:13.000Z</time>
      </trkpt>
      <trkpt lat="48.6793" lon="1.71565">
        <ele>173.60000610352</ele>
        <time>2012-07-24T11:19:21.000Z</time>
      </trkpt>
      <trkpt lat="48.67932" lon="1.71578">
        <ele>173.80000305176</ele>
        <time>2012-07-24T11:19:27.000Z</time>
      </trkpt>
      <trkpt lat="48.67935" lon="1.7159">
        <ele>173.80000305176</ele>
        <time>2012-07-24T11:19:33.000Z</time>
      </trkpt>
      <trkpt lat="48.67937" lon="1.71605">
        <ele>173.80000305176</ele>
        <time>2012-07-24T11:19:40.000Z</time>
      </trkpt>
      <trkpt lat="48.67941" lon="1.71623">
        <ele>173.80000305176</ele>
        <time>2012-07-24T11:19:49.000Z</time>
      </trkpt>
      <trkpt lat="48.67944" lon="1.71637">
        <ele>173.80000305176</ele>
        <time>2012-07-24T11:19:57.000Z</time>
      </trkpt>
      <trkpt lat="48.67948" lon="1.71652">
        <ele>174</ele>
        <time>2012-07-24T11:20:04.000Z</time>
      </trkpt>
      <trkpt lat="48.67953" lon="1.71665">
        <ele>174.19999694824</ele>
        <time>2012-07-24T11:20:12.000Z</time>
      </trkpt>
      <trkpt lat="48.67953" lon="1.71666">
        <ele>174.19999694824</ele>
        <time>2012-07-24T11:20:14.000Z</time>
      </trkpt>
      <trkpt lat="48.67959" lon="1.71679">
        <ele>174.39999389648</ele>
        <time>2012-07-24T11:20:27.000Z</time>
      </trkpt>
      <trkpt lat="48.67962" lon="1.71695">
        <ele>174.39999389648</ele>
        <time>2012-07-24T11:20:33.000Z</time>
      </trkpt>
      <trkpt lat="48.67965" lon="1.71706">
        <ele>174.39999389648</ele>
        <time>2012-07-24T11:20:39.000Z</time>
      </trkpt>
      <trkpt lat="48.67967" lon="1.71719">
        <ele>174.39999389648</ele>
        <time>2012-07-24T11:20:45.000Z</time>
      </trkpt>
      <trkpt lat="48.67968" lon="1.71721">
        <ele>174.39999389648</ele>
        <time>2012-07-24T11:20:46.000Z</time>
      </trkpt>
      <trkpt lat="48.67972" lon="1.71738">
        <ele>174.39999389648</ele>
        <time>2012-07-24T11:20:54.000Z</time>
      </trkpt>
      <trkpt lat="48.67973" lon="1.7174">
        <ele>174.39999389648</ele>
        <time>2012-07-24T11:20:55.000Z</time>
      </trkpt>
      <trkpt lat="48.67974" lon="1.7176">
        <ele>174.60000610352</ele>
        <time>2012-07-24T11:21:05.000Z</time>
      </trkpt>
      <trkpt lat="48.67977" lon="1.71771">
        <ele>175</ele>
        <time>2012-07-24T11:21:10.000Z</time>
      </trkpt>
      <trkpt lat="48.67982" lon="1.71783">
        <ele>175.39999389648</ele>
        <time>2012-07-24T11:21:17.000Z</time>
      </trkpt>
      <trkpt lat="48.67985" lon="1.71794">
        <ele>175.80000305176</ele>
        <time>2012-07-24T11:21:23.000Z</time>
      </trkpt>
      <trkpt lat="48.67989" lon="1.71806">
        <ele>176.19999694824</ele>
        <time>2012-07-24T11:21:29.000Z</time>
      </trkpt>
      <trkpt lat="48.67992" lon="1.7181">
        <ele>176.39999389648</ele>
        <time>2012-07-24T11:21:31.000Z</time>
      </trkpt>
      <trkpt lat="48.67997" lon="1.71826">
        <ele>176.80000305176</ele>
        <time>2012-07-24T11:21:40.000Z</time>
      </trkpt>
      <trkpt lat="48.68" lon="1.71835">
        <ele>177</ele>
        <time>2012-07-24T11:21:44.000Z</time>
      </trkpt>
      <trkpt lat="48.68003" lon="1.71854">
        <ele>178</ele>
        <time>2012-07-24T11:21:53.000Z</time>
      </trkpt>
      <trkpt lat="48.68006" lon="1.71864">
        <ele>178.60000610352</ele>
        <time>2012-07-24T11:21:58.000Z</time>
      </trkpt>
      <trkpt lat="48.68009" lon="1.71874">
        <ele>179</ele>
        <time>2012-07-24T11:22:05.000Z</time>
      </trkpt>
      <trkpt lat="48.68011" lon="1.71886">
        <ele>179.60000610352</ele>
        <time>2012-07-24T11:22:12.000Z</time>
      </trkpt>
      <trkpt lat="48.68012" lon="1.71895">
        <ele>179.80000305176</ele>
        <time>2012-07-24T11:22:17.000Z</time>
      </trkpt>
      <trkpt lat="48.68014" lon="1.71911">
        <ele>180.39999389648</ele>
        <time>2012-07-24T11:22:25.000Z</time>
      </trkpt>
      <trkpt lat="48.6802" lon="1.71924">
        <ele>180.80000305176</ele>
        <time>2012-07-24T11:22:32.000Z</time>
      </trkpt>
      <trkpt lat="48.68023" lon="1.7193">
        <ele>181</ele>
        <time>2012-07-24T11:22:35.000Z</time>
      </trkpt>
      <trkpt lat="48.68025" lon="1.71938">
        <ele>181.39999389648</ele>
        <time>2012-07-24T11:22:39.000Z</time>
      </trkpt>
      <trkpt lat="48.68028" lon="1.7195">
        <ele>181.80000305176</ele>
        <time>2012-07-24T11:22:45.000Z</time>
      </trkpt>
      <trkpt lat="48.68029" lon="1.71962">
        <ele>182.19999694824</ele>
        <time>2012-07-24T11:22:51.000Z</time>
      </trkpt>
      <trkpt lat="48.68032" lon="1.71973">
        <ele>182.60000610352</ele>
        <time>2012-07-24T11:22:56.000Z</time>
      </trkpt>
      <trkpt lat="48.68033" lon="1.71975">
        <ele>182.60000610352</ele>
        <time>2012-07-24T11:22:57.000Z</time>
      </trkpt>
      <trkpt lat="48.68036" lon="1.71989">
        <ele>183</ele>
        <time>2012-07-24T11:23:03.000Z</time>
      </trkpt>
      <trkpt lat="48.68037" lon="1.71991">
        <ele>183</ele>
        <time>2012-07-24T11:23:04.000Z</time>
      </trkpt>
      <trkpt lat="48.68039" lon="1.72005">
        <ele>183.19999694824</ele>
        <time>2012-07-24T11:23:11.000Z</time>
      </trkpt>
      <trkpt lat="48.6804" lon="1.7201">
        <ele>183.19999694824</ele>
        <time>2012-07-24T11:23:13.000Z</time>
      </trkpt>
      <trkpt lat="48.68041" lon="1.72017">
        <ele>183</ele>
        <time>2012-07-24T11:23:16.000Z</time>
      </trkpt>
      <trkpt lat="48.68044" lon="1.72025">
        <ele>182.80000305176</ele>
        <time>2012-07-24T11:23:20.000Z</time>
      </trkpt>
      <trkpt lat="48.6805" lon="1.72041">
        <ele>182.60000610352</ele>
        <time>2012-07-24T11:23:28.000Z</time>
      </trkpt>
      <trkpt lat="48.68052" lon="1.72045">
        <ele>182.39999389648</ele>
        <time>2012-07-24T11:23:33.000Z</time>
      </trkpt>
      <trkpt lat="48.68055" lon="1.72052">
        <ele>182.19999694824</ele>
        <time>2012-07-24T11:23:39.000Z</time>
      </trkpt>
      <trkpt lat="48.68056" lon="1.72058">
        <ele>182.19999694824</ele>
        <time>2012-07-24T11:23:41.000Z</time>
      </trkpt>
      <trkpt lat="48.6806" lon="1.72073">
        <ele>182</ele>
        <time>2012-07-24T11:23:49.000Z</time>
      </trkpt>
      <trkpt lat="48.68065" lon="1.72089">
        <ele>181.60000610352</ele>
        <time>2012-07-24T11:23:57.000Z</time>
      </trkpt>
      <trkpt lat="48.68069" lon="1.72106">
        <ele>181</ele>
        <time>2012-07-24T11:24:05.000Z</time>
      </trkpt>
      <trkpt lat="48.68072" lon="1.72119">
        <ele>180.39999389648</ele>
        <time>2012-07-24T11:24:12.000Z</time>
      </trkpt>
      <trkpt lat="48.68075" lon="1.72127">
        <ele>180.19999694824</ele>
        <time>2012-07-24T11:24:19.000Z</time>
      </trkpt>
      <trkpt lat="48.68078" lon="1.72137">
        <ele>179.80000305176</ele>
        <time>2012-07-24T11:24:24.000Z</time>
      </trkpt>
      <trkpt lat="48.68082" lon="1.72155">
        <ele>179.19999694824</ele>
        <time>2012-07-24T11:24:32.000Z</time>
      </trkpt>
      <trkpt lat="48.68089" lon="1.72174">
        <ele>179</ele>
        <time>2012-07-24T11:24:41.000Z</time>
      </trkpt>
      <trkpt lat="48.68094" lon="1.72195">
        <ele>178.39999389648</ele>
        <time>2012-07-24T11:24:51.000Z</time>
      </trkpt>
      <trkpt lat="48.68097" lon="1.72205">
        <ele>178.19999694824</ele>
        <time>2012-07-24T11:24:57.000Z</time>
      </trkpt>
      <trkpt lat="48.68097" lon="1.72205">
        <ele>178.19999694824</ele>
        <time>2012-07-24T11:24:58.000Z</time>
      </trkpt>
      <trkpt lat="48.68098" lon="1.72215">
        <ele>178</ele>
        <time>2012-07-24T11:25:07.000Z</time>
      </trkpt>
      <trkpt lat="48.68102" lon="1.7223">
        <ele>177.60000610352</ele>
        <time>2012-07-24T11:25:13.000Z</time>
      </trkpt>
      <trkpt lat="48.68108" lon="1.72253">
        <ele>177.19999694824</ele>
        <time>2012-07-24T11:25:23.000Z</time>
      </trkpt>
      <trkpt lat="48.68112" lon="1.72271">
        <ele>177.80000305176</ele>
        <time>2012-07-24T11:25:31.000Z</time>
      </trkpt>
      <trkpt lat="48.68116" lon="1.72286">
        <ele>178.19999694824</ele>
        <time>2012-07-24T11:25:38.000Z</time>
      </trkpt>
      <trkpt lat="48.6812" lon="1.72303">
        <ele>178.60000610352</ele>
        <time>2012-07-24T11:25:46.000Z</time>
      </trkpt>
      <trkpt lat="48.68123" lon="1.72317">
        <ele>178.80000305176</ele>
        <time>2012-07-24T11:25:53.000Z</time>
      </trkpt>
      <trkpt lat="48.68127" lon="1.72327">
        <ele>179</ele>
        <time>2012-07-24T11:25:58.000Z</time>
      </trkpt>
      <trkpt lat="48.68129" lon="1.72335">
        <ele>179</ele>
        <time>2012-07-24T11:26:03.000Z</time>
      </trkpt>
      <trkpt lat="48.68133" lon="1.72346">
        <ele>179.19999694824</ele>
        <time>2012-07-24T11:26:11.000Z</time>
      </trkpt>
      <trkpt lat="48.68133" lon="1.72351">
        <ele>179.19999694824</ele>
        <time>2012-07-24T11:26:13.000Z</time>
      </trkpt>
      <trkpt lat="48.68135" lon="1.72363">
        <ele>179.39999389648</ele>
        <time>2012-07-24T11:26:19.000Z</time>
      </trkpt>
      <trkpt lat="48.68138" lon="1.7238">
        <ele>179.39999389648</ele>
        <time>2012-07-24T11:26:27.000Z</time>
      </trkpt>
      <trkpt lat="48.68141" lon="1.72396">
        <ele>179.39999389648</ele>
        <time>2012-07-24T11:26:34.000Z</time>
      </trkpt>
      <trkpt lat="48.68144" lon="1.72408">
        <ele>179.39999389648</ele>
        <time>2012-07-24T11:26:39.000Z</time>
      </trkpt>
      <trkpt lat="48.68146" lon="1.72416">
        <ele>179.19999694824</ele>
        <time>2012-07-24T11:26:43.000Z</time>
      </trkpt>
      <trkpt lat="48.68148" lon="1.72422">
        <ele>179.39999389648</ele>
        <time>2012-07-24T11:26:46.000Z</time>
      </trkpt>
      <trkpt lat="48.68152" lon="1.72435">
        <ele>179.60000610352</ele>
        <time>2012-07-24T11:26:53.000Z</time>
      </trkpt>
      <trkpt lat="48.68156" lon="1.7245">
        <ele>179.80000305176</ele>
        <time>2012-07-24T11:27:00.000Z</time>
      </trkpt>
      <trkpt lat="48.68159" lon="1.72464">
        <ele>180.19999694824</ele>
        <time>2012-07-24T11:27:06.000Z</time>
      </trkpt>
      <trkpt lat="48.6816" lon="1.72467">
        <ele>180.39999389648</ele>
        <time>2012-07-24T11:27:08.000Z</time>
      </trkpt>
      <trkpt lat="48.68162" lon="1.72478">
        <ele>180.60000610352</ele>
        <time>2012-07-24T11:27:13.000Z</time>
      </trkpt>
      <trkpt lat="48.68164" lon="1.72486">
        <ele>180.60000610352</ele>
        <time>2012-07-24T11:27:17.000Z</time>
      </trkpt>
      <trkpt lat="48.6817" lon="1.72501">
        <ele>180.80000305176</ele>
        <time>2012-07-24T11:27:24.000Z</time>
      </trkpt>
      <trkpt lat="48.68178" lon="1.72523">
        <ele>181</ele>
        <time>2012-07-24T11:27:32.000Z</time>
      </trkpt>
      <trkpt lat="48.68182" lon="1.72537">
        <ele>181.19999694824</ele>
        <time>2012-07-24T11:27:38.000Z</time>
      </trkpt>
      <trkpt lat="48.68187" lon="1.72552">
        <ele>181.19999694824</ele>
        <time>2012-07-24T11:27:45.000Z</time>
      </trkpt>
      <trkpt lat="48.68188" lon="1.72565">
        <ele>181.39999389648</ele>
        <time>2012-07-24T11:27:51.000Z</time>
      </trkpt>
      <trkpt lat="48.6819" lon="1.72584">
        <ele>181.80000305176</ele>
        <time>2012-07-24T11:28:00.000Z</time>
      </trkpt>
      <trkpt lat="48.68193" lon="1.72603">
        <ele>181.39999389648</ele>
        <time>2012-07-24T11:28:09.000Z</time>
      </trkpt>
      <trkpt lat="48.68197" lon="1.7262">
        <ele>181</ele>
        <time>2012-07-24T11:28:17.000Z</time>
      </trkpt>
      <trkpt lat="48.68201" lon="1.72642">
        <ele>180.80000305176</ele>
        <time>2012-07-24T11:28:27.000Z</time>
      </trkpt>
      <trkpt lat="48.68204" lon="1.72657">
        <ele>180.39999389648</ele>
        <time>2012-07-24T11:28:34.000Z</time>
      </trkpt>
      <trkpt lat="48.68206" lon="1.72666">
        <ele>180.19999694824</ele>
        <time>2012-07-24T11:28:38.000Z</time>
      </trkpt>
      <trkpt lat="48.68211" lon="1.7268">
        <ele>179.80000305176</ele>
        <time>2012-07-24T11:28:45.000Z</time>
      </trkpt>
      <trkpt lat="48.68215" lon="1.72694">
        <ele>179.19999694824</ele>
        <time>2012-07-24T11:28:52.000Z</time>
      </trkpt>
      <trkpt lat="48.68219" lon="1.72711">
        <ele>178.60000610352</ele>
        <time>2012-07-24T11:28:59.000Z</time>
      </trkpt>
      <trkpt lat="48.68222" lon="1.72725">
        <ele>178.19999694824</ele>
        <time>2012-07-24T11:29:06.000Z</time>
      </trkpt>
      <trkpt lat="48.68228" lon="1.72743">
        <ele>177.39999389648</ele>
        <time>2012-07-24T11:29:14.000Z</time>
      </trkpt>
      <trkpt lat="48.68232" lon="1.72758">
        <ele>176.80000305176</ele>
        <time>2012-07-24T11:29:21.000Z</time>
      </trkpt>
      <trkpt lat="48.68236" lon="1.72774">
        <ele>176.39999389648</ele>
        <time>2012-07-24T11:29:28.000Z</time>
      </trkpt>
      <trkpt lat="48.6824" lon="1.72794">
        <ele>176</ele>
        <time>2012-07-24T11:29:37.000Z</time>
      </trkpt>
      <trkpt lat="48.68245" lon="1.72812">
        <ele>175.39999389648</ele>
        <time>2012-07-24T11:29:45.000Z</time>
      </trkpt>
      <trkpt lat="48.68251" lon="1.72831">
        <ele>175</ele>
        <time>2012-07-24T11:29:54.000Z</time>
      </trkpt>
      <trkpt lat="48.68257" lon="1.72855">
        <ele>175</ele>
        <time>2012-07-24T11:30:05.000Z</time>
      </trkpt>
      <trkpt lat="48.68262" lon="1.72874">
        <ele>175</ele>
        <time>2012-07-24T11:30:14.000Z</time>
      </trkpt>
      <trkpt lat="48.68267" lon="1.72893">
        <ele>175</ele>
        <time>2012-07-24T11:30:22.000Z</time>
      </trkpt>
      <trkpt lat="48.68272" lon="1.72916">
        <ele>175.19999694824</ele>
        <time>2012-07-24T11:30:32.000Z</time>
      </trkpt>
      <trkpt lat="48.68277" lon="1.72935">
        <ele>174.80000305176</ele>
        <time>2012-07-24T11:30:40.000Z</time>
      </trkpt>
      <trkpt lat="48.68281" lon="1.72951">
        <ele>174.60000610352</ele>
        <time>2012-07-24T11:30:47.000Z</time>
      </trkpt>
      <trkpt lat="48.68285" lon="1.72966">
        <ele>174.19999694824</ele>
        <time>2012-07-24T11:30:55.000Z</time>
      </trkpt>
      <trkpt lat="48.68286" lon="1.72966">
        <ele>174.19999694824</ele>
        <time>2012-07-24T11:30:57.000Z</time>
      </trkpt>
      <trkpt lat="48.68286" lon="1.72972">
        <ele>174.19999694824</ele>
        <time>2012-07-24T11:31:04.000Z</time>
      </trkpt>
      <trkpt lat="48.68288" lon="1.7299">
        <ele>173.80000305176</ele>
        <time>2012-07-24T11:31:11.000Z</time>
      </trkpt>
      <trkpt lat="48.68291" lon="1.73">
        <ele>173.39999389648</ele>
        <time>2012-07-24T11:31:16.000Z</time>
      </trkpt>
      <trkpt lat="48.68293" lon="1.73011">
        <ele>173.60000610352</ele>
        <time>2012-07-24T11:31:21.000Z</time>
      </trkpt>
      <trkpt lat="48.68294" lon="1.73027">
        <ele>173.60000610352</ele>
        <time>2012-07-24T11:31:28.000Z</time>
      </trkpt>
      <trkpt lat="48.68294" lon="1.73044">
        <ele>173.80000305176</ele>
        <time>2012-07-24T11:31:36.000Z</time>
      </trkpt>
      <trkpt lat="48.68297" lon="1.73071">
        <ele>173.80000305176</ele>
        <time>2012-07-24T11:31:47.000Z</time>
      </trkpt>
      <trkpt lat="48.68298" lon="1.73092">
        <ele>173.80000305176</ele>
        <time>2012-07-24T11:31:56.000Z</time>
      </trkpt>
      <trkpt lat="48.68299" lon="1.73105">
        <ele>173.80000305176</ele>
        <time>2012-07-24T11:32:03.000Z</time>
      </trkpt>
      <trkpt lat="48.683" lon="1.73119">
        <ele>173.60000610352</ele>
        <time>2012-07-24T11:32:09.000Z</time>
      </trkpt>
      <trkpt lat="48.68302" lon="1.73139">
        <ele>173.39999389648</ele>
        <time>2012-07-24T11:32:17.000Z</time>
      </trkpt>
      <trkpt lat="48.68305" lon="1.73154">
        <ele>173.39999389648</ele>
        <time>2012-07-24T11:32:23.000Z</time>
      </trkpt>
      <trkpt lat="48.68306" lon="1.73169">
        <ele>173.39999389648</ele>
        <time>2012-07-24T11:32:30.000Z</time>
      </trkpt>
      <trkpt lat="48.68307" lon="1.73188">
        <ele>173.39999389648</ele>
        <time>2012-07-24T11:32:39.000Z</time>
      </trkpt>
      <trkpt lat="48.68308" lon="1.73206">
        <ele>173.19999694824</ele>
        <time>2012-07-24T11:32:47.000Z</time>
      </trkpt>
      <trkpt lat="48.68311" lon="1.7323">
        <ele>173.19999694824</ele>
        <time>2012-07-24T11:32:57.000Z</time>
      </trkpt>
      <trkpt lat="48.68314" lon="1.73248">
        <ele>173.19999694824</ele>
        <time>2012-07-24T11:33:05.000Z</time>
      </trkpt>
      <trkpt lat="48.68313" lon="1.73268">
        <ele>173</ele>
        <time>2012-07-24T11:33:14.000Z</time>
      </trkpt>
      <trkpt lat="48.68314" lon="1.73284">
        <ele>172.80000305176</ele>
        <time>2012-07-24T11:33:21.000Z</time>
      </trkpt>
      <trkpt lat="48.68316" lon="1.73304">
        <ele>172.60000610352</ele>
        <time>2012-07-24T11:33:30.000Z</time>
      </trkpt>
      <trkpt lat="48.68318" lon="1.73323">
        <ele>172.39999389648</ele>
        <time>2012-07-24T11:33:38.000Z</time>
      </trkpt>
      <trkpt lat="48.68321" lon="1.73347">
        <ele>172</ele>
        <time>2012-07-24T11:33:48.000Z</time>
      </trkpt>
      <trkpt lat="48.68321" lon="1.73366">
        <ele>171.80000305176</ele>
        <time>2012-07-24T11:33:56.000Z</time>
      </trkpt>
      <trkpt lat="48.68321" lon="1.73384">
        <ele>171.60000610352</ele>
        <time>2012-07-24T11:34:04.000Z</time>
      </trkpt>
      <trkpt lat="48.68319" lon="1.73397">
        <ele>171.60000610352</ele>
        <time>2012-07-24T11:34:11.000Z</time>
      </trkpt>
      <trkpt lat="48.68321" lon="1.7341">
        <ele>171.39999389648</ele>
        <time>2012-07-24T11:34:17.000Z</time>
      </trkpt>
      <trkpt lat="48.6832" lon="1.73414">
        <ele>171.39999389648</ele>
        <time>2012-07-24T11:34:21.000Z</time>
      </trkpt>
      <trkpt lat="48.68321" lon="1.73419">
        <ele>171.39999389648</ele>
        <time>2012-07-24T11:34:25.000Z</time>
      </trkpt>
      <trkpt lat="48.68324" lon="1.7344">
        <ele>171.19999694824</ele>
        <time>2012-07-24T11:34:34.000Z</time>
      </trkpt>
      <trkpt lat="48.68325" lon="1.73453">
        <ele>171.19999694824</ele>
        <time>2012-07-24T11:34:40.000Z</time>
      </trkpt>
      <trkpt lat="48.68326" lon="1.73469">
        <ele>171.19999694824</ele>
        <time>2012-07-24T11:34:47.000Z</time>
      </trkpt>
      <trkpt lat="48.68329" lon="1.73485">
        <ele>171</ele>
        <time>2012-07-24T11:34:54.000Z</time>
      </trkpt>
      <trkpt lat="48.68333" lon="1.73501">
        <ele>171</ele>
        <time>2012-07-24T11:35:01.000Z</time>
      </trkpt>
      <trkpt lat="48.68334" lon="1.73513">
        <ele>170.60000610352</ele>
        <time>2012-07-24T11:35:08.000Z</time>
      </trkpt>
      <trkpt lat="48.68335" lon="1.73516">
        <ele>170.60000610352</ele>
        <time>2012-07-24T11:35:11.000Z</time>
      </trkpt>
      <trkpt lat="48.68346" lon="1.73515">
        <ele>170.60000610352</ele>
        <time>2012-07-24T11:35:18.000Z</time>
      </trkpt>
      <trkpt lat="48.68352" lon="1.73515">
        <ele>170.60000610352</ele>
        <time>2012-07-24T11:35:23.000Z</time>
      </trkpt>
      <trkpt lat="48.68367" lon="1.73515">
        <ele>170.80000305176</ele>
        <time>2012-07-24T11:35:31.000Z</time>
      </trkpt>
      <trkpt lat="48.68378" lon="1.73516">
        <ele>170.80000305176</ele>
        <time>2012-07-24T11:35:36.000Z</time>
      </trkpt>
      <trkpt lat="48.68385" lon="1.73517">
        <ele>170.80000305176</ele>
        <time>2012-07-24T11:35:40.000Z</time>
      </trkpt>
      <trkpt lat="48.68397" lon="1.73516">
        <ele>170.80000305176</ele>
        <time>2012-07-24T11:35:45.000Z</time>
      </trkpt>
      <trkpt lat="48.68405" lon="1.73518">
        <ele>170.80000305176</ele>
        <time>2012-07-24T11:35:50.000Z</time>
      </trkpt>
      <trkpt lat="48.6841" lon="1.73518">
        <ele>170.80000305176</ele>
        <time>2012-07-24T11:35:54.000Z</time>
      </trkpt>
      <trkpt lat="48.68416" lon="1.73517">
        <ele>170.80000305176</ele>
        <time>2012-07-24T11:35:58.000Z</time>
      </trkpt>
      <trkpt lat="48.68418" lon="1.73515">
        <ele>170.80000305176</ele>
        <time>2012-07-24T11:36:02.000Z</time>
      </trkpt>
      <trkpt lat="48.6842" lon="1.73515">
        <ele>170.80000305176</ele>
        <time>2012-07-24T11:36:05.000Z</time>
      </trkpt>
      <trkpt lat="48.68425" lon="1.73519">
        <ele>170.60000610352</ele>
        <time>2012-07-24T11:36:07.000Z</time>
      </trkpt>
      <trkpt lat="48.68432" lon="1.73522">
        <ele>170.39999389648</ele>
        <time>2012-07-24T11:36:12.000Z</time>
      </trkpt>
      <trkpt lat="48.68442" lon="1.73525">
        <ele>170</ele>
        <time>2012-07-24T11:36:19.000Z</time>
      </trkpt>
      <trkpt lat="48.6845" lon="1.73526">
        <ele>169.80000305176</ele>
        <time>2012-07-24T11:36:24.000Z</time>
      </trkpt>
      <trkpt lat="48.68455" lon="1.73528">
        <ele>169.60000610352</ele>
        <time>2012-07-24T11:36:28.000Z</time>
      </trkpt>
      <trkpt lat="48.68462" lon="1.73531">
        <ele>169.39999389648</ele>
        <time>2012-07-24T11:36:32.000Z</time>
      </trkpt>
      <trkpt lat="48.68473" lon="1.73536">
        <ele>169</ele>
        <time>2012-07-24T11:36:37.000Z</time>
      </trkpt>
      <trkpt lat="48.68483" lon="1.73536">
        <ele>168.60000610352</ele>
        <time>2012-07-24T11:36:42.000Z</time>
      </trkpt>
      <trkpt lat="48.68494" lon="1.73536">
        <ele>168.39999389648</ele>
        <time>2012-07-24T11:36:48.000Z</time>
      </trkpt>
      <trkpt lat="48.685" lon="1.73537">
        <ele>168</ele>
        <time>2012-07-24T11:36:53.000Z</time>
      </trkpt>
      <trkpt lat="48.68505" lon="1.73536">
        <ele>167.80000305176</ele>
        <time>2012-07-24T11:36:57.000Z</time>
      </trkpt>
      <trkpt lat="48.68513" lon="1.73537">
        <ele>167.39999389648</ele>
        <time>2012-07-24T11:37:02.000Z</time>
      </trkpt>
      <trkpt lat="48.68521" lon="1.73538">
        <ele>166.80000305176</ele>
        <time>2012-07-24T11:37:07.000Z</time>
      </trkpt>
      <trkpt lat="48.68528" lon="1.7354">
        <ele>166.39999389648</ele>
        <time>2012-07-24T11:37:12.000Z</time>
      </trkpt>
      <trkpt lat="48.68541" lon="1.73543">
        <ele>165.60000610352</ele>
        <time>2012-07-24T11:37:19.000Z</time>
      </trkpt>
      <trkpt lat="48.68546" lon="1.73542">
        <ele>165.19999694824</ele>
        <time>2012-07-24T11:37:23.000Z</time>
      </trkpt>
      <trkpt lat="48.68553" lon="1.73543">
        <ele>164.80000305176</ele>
        <time>2012-07-24T11:37:28.000Z</time>
      </trkpt>
      <trkpt lat="48.68561" lon="1.73542">
        <ele>164.39999389648</ele>
        <time>2012-07-24T11:37:34.000Z</time>
      </trkpt>
      <trkpt lat="48.68575" lon="1.73544">
        <ele>163.39999389648</ele>
        <time>2012-07-24T11:37:42.000Z</time>
      </trkpt>
      <trkpt lat="48.68581" lon="1.73544">
        <ele>163</ele>
        <time>2012-07-24T11:37:46.000Z</time>
      </trkpt>
      <trkpt lat="48.68593" lon="1.73546">
        <ele>163.19999694824</ele>
        <time>2012-07-24T11:37:52.000Z</time>
      </trkpt>
      <trkpt lat="48.68599" lon="1.73549">
        <ele>163.19999694824</ele>
        <time>2012-07-24T11:37:57.000Z</time>
      </trkpt>
      <trkpt lat="48.686" lon="1.73552">
        <ele>163.19999694824</ele>
        <time>2012-07-24T11:38:02.000Z</time>
      </trkpt>
      <trkpt lat="48.68599" lon="1.73555">
        <ele>163.19999694824</ele>
        <time>2012-07-24T11:38:07.000Z</time>
      </trkpt>
      <trkpt lat="48.68594" lon="1.73561">
        <ele>163</ele>
        <time>2012-07-24T11:38:24.000Z</time>
      </trkpt>
      <trkpt lat="48.68593" lon="1.73567">
        <ele>162.80000305176</ele>
        <time>2012-07-24T11:38:26.000Z</time>
      </trkpt>
      <trkpt lat="48.68597" lon="1.73588">
        <ele>162.60000610352</ele>
        <time>2012-07-24T11:38:35.000Z</time>
      </trkpt>
      <trkpt lat="48.6859" lon="1.73599">
        <ele>162.39999389648</ele>
        <time>2012-07-24T11:38:41.000Z</time>
      </trkpt>
      <trkpt lat="48.68586" lon="1.73602">
        <ele>162.19999694824</ele>
        <time>2012-07-24T11:38:44.000Z</time>
      </trkpt>
      <trkpt lat="48.68579" lon="1.73613">
        <ele>162.19999694824</ele>
        <time>2012-07-24T11:38:51.000Z</time>
      </trkpt>
      <trkpt lat="48.68577" lon="1.73619">
        <ele>162.19999694824</ele>
        <time>2012-07-24T11:38:54.000Z</time>
      </trkpt>
      <trkpt lat="48.68569" lon="1.73632">
        <ele>162.39999389648</ele>
        <time>2012-07-24T11:39:02.000Z</time>
      </trkpt>
      <trkpt lat="48.68561" lon="1.73642">
        <ele>162.60000610352</ele>
        <time>2012-07-24T11:39:09.000Z</time>
      </trkpt>
      <trkpt lat="48.68554" lon="1.73655">
        <ele>162.60000610352</ele>
        <time>2012-07-24T11:39:16.000Z</time>
      </trkpt>
      <trkpt lat="48.6855" lon="1.73674">
        <ele>162.60000610352</ele>
        <time>2012-07-24T11:39:24.000Z</time>
      </trkpt>
      <trkpt lat="48.68546" lon="1.7369">
        <ele>163</ele>
        <time>2012-07-24T11:39:32.000Z</time>
      </trkpt>
      <trkpt lat="48.68544" lon="1.73695">
        <ele>163.19999694824</ele>
        <time>2012-07-24T11:39:35.000Z</time>
      </trkpt>
      <trkpt lat="48.68539" lon="1.73706">
        <ele>163.39999389648</ele>
        <time>2012-07-24T11:39:42.000Z</time>
      </trkpt>
      <trkpt lat="48.68538" lon="1.73711">
        <ele>163.39999389648</ele>
        <time>2012-07-24T11:39:44.000Z</time>
      </trkpt>
      <trkpt lat="48.68533" lon="1.73728">
        <ele>163.60000610352</ele>
        <time>2012-07-24T11:39:52.000Z</time>
      </trkpt>
      <trkpt lat="48.6853" lon="1.73741">
        <ele>163.60000610352</ele>
        <time>2012-07-24T11:39:59.000Z</time>
      </trkpt>
      <trkpt lat="48.68527" lon="1.73757">
        <ele>163.60000610352</ele>
        <time>2012-07-24T11:40:07.000Z</time>
      </trkpt>
      <trkpt lat="48.68523" lon="1.73772">
        <ele>163.19999694824</ele>
        <time>2012-07-24T11:40:14.000Z</time>
      </trkpt>
      <trkpt lat="48.68521" lon="1.73779">
        <ele>163.19999694824</ele>
        <time>2012-07-24T11:40:18.000Z</time>
      </trkpt>
      <trkpt lat="48.68518" lon="1.73786">
        <ele>162.80000305176</ele>
        <time>2012-07-24T11:40:22.000Z</time>
      </trkpt>
      <trkpt lat="48.68516" lon="1.738">
        <ele>162.60000610352</ele>
        <time>2012-07-24T11:40:29.000Z</time>
      </trkpt>
      <trkpt lat="48.68515" lon="1.73807">
        <ele>162.39999389648</ele>
        <time>2012-07-24T11:40:32.000Z</time>
      </trkpt>
      <trkpt lat="48.68512" lon="1.7382">
        <ele>162.19999694824</ele>
        <time>2012-07-24T11:40:38.000Z</time>
      </trkpt>
      <trkpt lat="48.68512" lon="1.73826">
        <ele>162.19999694824</ele>
        <time>2012-07-24T11:40:41.000Z</time>
      </trkpt>
      <trkpt lat="48.68512" lon="1.7383">
        <ele>162</ele>
        <time>2012-07-24T11:40:43.000Z</time>
      </trkpt>
      <trkpt lat="48.68512" lon="1.73846">
        <ele>162</ele>
        <time>2012-07-24T11:40:50.000Z</time>
      </trkpt>
      <trkpt lat="48.68513" lon="1.73851">
        <ele>162</ele>
        <time>2012-07-24T11:40:52.000Z</time>
      </trkpt>
      <trkpt lat="48.68509" lon="1.73871">
        <ele>161.60000610352</ele>
        <time>2012-07-24T11:41:01.000Z</time>
      </trkpt>
      <trkpt lat="48.68506" lon="1.73884">
        <ele>161.39999389648</ele>
        <time>2012-07-24T11:41:08.000Z</time>
      </trkpt>
      <trkpt lat="48.68504" lon="1.73891">
        <ele>161.19999694824</ele>
        <time>2012-07-24T11:41:12.000Z</time>
      </trkpt>
      <trkpt lat="48.68503" lon="1.73901">
        <ele>161.19999694824</ele>
        <time>2012-07-24T11:41:18.000Z</time>
      </trkpt>
      <trkpt lat="48.68503" lon="1.73909">
        <ele>161.19999694824</ele>
        <time>2012-07-24T11:41:22.000Z</time>
      </trkpt>
      <trkpt lat="48.68504" lon="1.73919">
        <ele>161.19999694824</ele>
        <time>2012-07-24T11:41:26.000Z</time>
      </trkpt>
      <trkpt lat="48.68504" lon="1.73931">
        <ele>161</ele>
        <time>2012-07-24T11:41:33.000Z</time>
      </trkpt>
      <trkpt lat="48.68505" lon="1.73948">
        <ele>161</ele>
        <time>2012-07-24T11:41:40.000Z</time>
      </trkpt>
      <trkpt lat="48.68507" lon="1.73959">
        <ele>161</ele>
        <time>2012-07-24T11:41:45.000Z</time>
      </trkpt>
      <trkpt lat="48.68509" lon="1.73978">
        <ele>160.80000305176</ele>
        <time>2012-07-24T11:41:53.000Z</time>
      </trkpt>
      <trkpt lat="48.68509" lon="1.7398">
        <ele>160.80000305176</ele>
        <time>2012-07-24T11:41:54.000Z</time>
      </trkpt>
      <trkpt lat="48.68514" lon="1.74">
        <ele>161</ele>
        <time>2012-07-24T11:42:03.000Z</time>
      </trkpt>
      <trkpt lat="48.68515" lon="1.74005">
        <ele>161</ele>
        <time>2012-07-24T11:42:05.000Z</time>
      </trkpt>
      <trkpt lat="48.68518" lon="1.74024">
        <ele>160.80000305176</ele>
        <time>2012-07-24T11:42:12.000Z</time>
      </trkpt>
      <trkpt lat="48.68521" lon="1.74042">
        <ele>160.60000610352</ele>
        <time>2012-07-24T11:42:20.000Z</time>
      </trkpt>
      <trkpt lat="48.68521" lon="1.74057">
        <ele>160.19999694824</ele>
        <time>2012-07-24T11:42:27.000Z</time>
      </trkpt>
      <trkpt lat="48.68519" lon="1.74063">
        <ele>159.80000305176</ele>
        <time>2012-07-24T11:42:30.000Z</time>
      </trkpt>
      <trkpt lat="48.68518" lon="1.7408">
        <ele>159.39999389648</ele>
        <time>2012-07-24T11:42:37.000Z</time>
      </trkpt>
      <trkpt lat="48.68516" lon="1.74096">
        <ele>159</ele>
        <time>2012-07-24T11:42:44.000Z</time>
      </trkpt>
      <trkpt lat="48.68517" lon="1.74108">
        <ele>159</ele>
        <time>2012-07-24T11:42:51.000Z</time>
      </trkpt>
      <trkpt lat="48.68518" lon="1.74109">
        <ele>159</ele>
        <time>2012-07-24T11:42:56.000Z</time>
      </trkpt>
      <trkpt lat="48.68517" lon="1.7412">
        <ele>159</ele>
        <time>2012-07-24T11:43:08.000Z</time>
      </trkpt>
      <trkpt lat="48.68517" lon="1.74131">
        <ele>158.80000305176</ele>
        <time>2012-07-24T11:43:12.000Z</time>
      </trkpt>
      <trkpt lat="48.68519" lon="1.74145">
        <ele>158.80000305176</ele>
        <time>2012-07-24T11:43:18.000Z</time>
      </trkpt>
      <trkpt lat="48.68519" lon="1.74152">
        <ele>158.80000305176</ele>
        <time>2012-07-24T11:43:21.000Z</time>
      </trkpt>
      <trkpt lat="48.68517" lon="1.74168">
        <ele>158.60000610352</ele>
        <time>2012-07-24T11:43:29.000Z</time>
      </trkpt>
      <trkpt lat="48.68516" lon="1.74182">
        <ele>158.19999694824</ele>
        <time>2012-07-24T11:43:36.000Z</time>
      </trkpt>
      <trkpt lat="48.68516" lon="1.74195">
        <ele>157.80000305176</ele>
        <time>2012-07-24T11:43:41.000Z</time>
      </trkpt>
      <trkpt lat="48.68514" lon="1.74211">
        <ele>157.39999389648</ele>
        <time>2012-07-24T11:43:48.000Z</time>
      </trkpt>
      <trkpt lat="48.68513" lon="1.74214">
        <ele>157.39999389648</ele>
        <time>2012-07-24T11:43:50.000Z</time>
      </trkpt>
      <trkpt lat="48.68509" lon="1.74232">
        <ele>156.80000305176</ele>
        <time>2012-07-24T11:43:59.000Z</time>
      </trkpt>
      <trkpt lat="48.68504" lon="1.74242">
        <ele>156.39999389648</ele>
        <time>2012-07-24T11:44:05.000Z</time>
      </trkpt>
      <trkpt lat="48.68504" lon="1.74245">
        <ele>156.19999694824</ele>
        <time>2012-07-24T11:44:06.000Z</time>
      </trkpt>
      <trkpt lat="48.68504" lon="1.74254">
        <ele>156</ele>
        <time>2012-07-24T11:44:10.000Z</time>
      </trkpt>
      <trkpt lat="48.68502" lon="1.74267">
        <ele>155.60000610352</ele>
        <time>2012-07-24T11:44:17.000Z</time>
      </trkpt>
      <trkpt lat="48.68499" lon="1.74284">
        <ele>155.19999694824</ele>
        <time>2012-07-24T11:44:26.000Z</time>
      </trkpt>
      <trkpt lat="48.68495" lon="1.74297">
        <ele>155</ele>
        <time>2012-07-24T11:44:33.000Z</time>
      </trkpt>
      <trkpt lat="48.68492" lon="1.7431">
        <ele>154.60000610352</ele>
        <time>2012-07-24T11:44:40.000Z</time>
      </trkpt>
      <trkpt lat="48.68489" lon="1.74325">
        <ele>154.39999389648</ele>
        <time>2012-07-24T11:44:47.000Z</time>
      </trkpt>
      <trkpt lat="48.68489" lon="1.74335">
        <ele>154</ele>
        <time>2012-07-24T11:44:51.000Z</time>
      </trkpt>
      <trkpt lat="48.68484" lon="1.74351">
        <ele>153.19999694824</ele>
        <time>2012-07-24T11:45:00.000Z</time>
      </trkpt>
      <trkpt lat="48.68484" lon="1.74355">
        <ele>153</ele>
        <time>2012-07-24T11:45:02.000Z</time>
      </trkpt>
      <trkpt lat="48.68485" lon="1.7437">
        <ele>152.19999694824</ele>
        <time>2012-07-24T11:45:09.000Z</time>
      </trkpt>
      <trkpt lat="48.6849" lon="1.74385">
        <ele>151.19999694824</ele>
        <time>2012-07-24T11:45:16.000Z</time>
      </trkpt>
      <trkpt lat="48.68501" lon="1.74388">
        <ele>150.80000305176</ele>
        <time>2012-07-24T11:45:24.000Z</time>
      </trkpt>
      <trkpt lat="48.68509" lon="1.74386">
        <ele>151.39999389648</ele>
        <time>2012-07-24T11:45:30.000Z</time>
      </trkpt>
      <trkpt lat="48.68521" lon="1.74384">
        <ele>152</ele>
        <time>2012-07-24T11:45:36.000Z</time>
      </trkpt>
      <trkpt lat="48.68529" lon="1.74379">
        <ele>152.80000305176</ele>
        <time>2012-07-24T11:45:42.000Z</time>
      </trkpt>
      <trkpt lat="48.68532" lon="1.74373">
        <ele>153</ele>
        <time>2012-07-24T11:45:47.000Z</time>
      </trkpt>
      <trkpt lat="48.68537" lon="1.7436">
        <ele>153.60000610352</ele>
        <time>2012-07-24T11:45:55.000Z</time>
      </trkpt>
      <trkpt lat="48.6854" lon="1.7435">
        <ele>154</ele>
        <time>2012-07-24T11:46:01.000Z</time>
      </trkpt>
      <trkpt lat="48.68543" lon="1.74339">
        <ele>154.39999389648</ele>
        <time>2012-07-24T11:46:07.000Z</time>
      </trkpt>
      <trkpt lat="48.68547" lon="1.74327">
        <ele>154.80000305176</ele>
        <time>2012-07-24T11:46:13.000Z</time>
      </trkpt>
      <trkpt lat="48.68546" lon="1.74322">
        <ele>155</ele>
        <time>2012-07-24T11:46:15.000Z</time>
      </trkpt>
      <trkpt lat="48.6855" lon="1.74306">
        <ele>155.60000610352</ele>
        <time>2012-07-24T11:46:23.000Z</time>
      </trkpt>
      <trkpt lat="48.68554" lon="1.74291">
        <ele>156.39999389648</ele>
        <time>2012-07-24T11:46:30.000Z</time>
      </trkpt>
      <trkpt lat="48.68561" lon="1.74275">
        <ele>157.19999694824</ele>
        <time>2012-07-24T11:46:38.000Z</time>
      </trkpt>
      <trkpt lat="48.68565" lon="1.74265">
        <ele>157.60000610352</ele>
        <time>2012-07-24T11:46:44.000Z</time>
      </trkpt>
      <trkpt lat="48.6857" lon="1.74256">
        <ele>158.19999694824</ele>
        <time>2012-07-24T11:46:51.000Z</time>
      </trkpt>
      <trkpt lat="48.68575" lon="1.74247">
        <ele>158.80000305176</ele>
        <time>2012-07-24T11:46:57.000Z</time>
      </trkpt>
      <trkpt lat="48.68585" lon="1.74237">
        <ele>159.19999694824</ele>
        <time>2012-07-24T11:47:04.000Z</time>
      </trkpt>
      <trkpt lat="48.68588" lon="1.74231">
        <ele>159.39999389648</ele>
        <time>2012-07-24T11:47:08.000Z</time>
      </trkpt>
      <trkpt lat="48.68598" lon="1.74225">
        <ele>159.19999694824</ele>
        <time>2012-07-24T11:47:13.000Z</time>
      </trkpt>
      <trkpt lat="48.68605" lon="1.74219">
        <ele>159.19999694824</ele>
        <time>2012-07-24T11:47:18.000Z</time>
      </trkpt>
      <trkpt lat="48.68607" lon="1.74217">
        <ele>159</ele>
        <time>2012-07-24T11:47:20.000Z</time>
      </trkpt>
      <trkpt lat="48.68626" lon="1.74207">
        <ele>158.80000305176</ele>
        <time>2012-07-24T11:47:30.000Z</time>
      </trkpt>
      <trkpt lat="48.68626" lon="1.74205">
        <ele>158.80000305176</ele>
        <time>2012-07-24T11:47:31.000Z</time>
      </trkpt>
      <trkpt lat="48.68639" lon="1.74203">
        <ele>158.39999389648</ele>
        <time>2012-07-24T11:47:39.000Z</time>
      </trkpt>
      <trkpt lat="48.68639" lon="1.74199">
        <ele>158.39999389648</ele>
        <time>2012-07-24T11:47:44.000Z</time>
      </trkpt>
      <trkpt lat="48.68638" lon="1.74192">
        <ele>158.60000610352</ele>
        <time>2012-07-24T11:47:48.000Z</time>
      </trkpt>
      <trkpt lat="48.6864" lon="1.74183">
        <ele>158.60000610352</ele>
        <time>2012-07-24T11:47:53.000Z</time>
      </trkpt>
      <trkpt lat="48.68647" lon="1.74176">
        <ele>158.60000610352</ele>
        <time>2012-07-24T11:48:00.000Z</time>
      </trkpt>
      <trkpt lat="48.68663" lon="1.74179">
        <ele>158</ele>
        <time>2012-07-24T11:48:08.000Z</time>
      </trkpt>
      <trkpt lat="48.68669" lon="1.74178">
        <ele>157.80000305176</ele>
        <time>2012-07-24T11:48:13.000Z</time>
      </trkpt>
      <trkpt lat="48.68674" lon="1.74178">
        <ele>157.60000610352</ele>
        <time>2012-07-24T11:48:18.000Z</time>
      </trkpt>
      <trkpt lat="48.68683" lon="1.74182">
        <ele>157.39999389648</ele>
        <time>2012-07-24T11:48:23.000Z</time>
      </trkpt>
      <trkpt lat="48.68692" lon="1.74185">
        <ele>157</ele>
        <time>2012-07-24T11:48:30.000Z</time>
      </trkpt>
      <trkpt lat="48.68696" lon="1.7419">
        <ele>157</ele>
        <time>2012-07-24T11:48:36.000Z</time>
      </trkpt>
      <trkpt lat="48.68695" lon="1.74198">
        <ele>157</ele>
        <time>2012-07-24T11:48:40.000Z</time>
      </trkpt>
      <trkpt lat="48.68696" lon="1.74217">
        <ele>157</ele>
        <time>2012-07-24T11:48:48.000Z</time>
      </trkpt>
      <trkpt lat="48.687" lon="1.74227">
        <ele>157</ele>
        <time>2012-07-24T11:48:53.000Z</time>
      </trkpt>
      <trkpt lat="48.68714" lon="1.74226">
        <ele>156.80000305176</ele>
        <time>2012-07-24T11:49:00.000Z</time>
      </trkpt>
      <trkpt lat="48.68728" lon="1.74222">
        <ele>156.60000610352</ele>
        <time>2012-07-24T11:49:07.000Z</time>
      </trkpt>
      <trkpt lat="48.68738" lon="1.74218">
        <ele>156.39999389648</ele>
        <time>2012-07-24T11:49:13.000Z</time>
      </trkpt>
      <trkpt lat="48.68748" lon="1.74218">
        <ele>156.19999694824</ele>
        <time>2012-07-24T11:49:22.000Z</time>
      </trkpt>
      <trkpt lat="48.6875" lon="1.74217">
        <ele>156.19999694824</ele>
        <time>2012-07-24T11:49:26.000Z</time>
      </trkpt>
      <trkpt lat="48.68753" lon="1.74216">
        <ele>156.19999694824</ele>
        <time>2012-07-24T11:49:31.000Z</time>
      </trkpt>
      <trkpt lat="48.68759" lon="1.74217">
        <ele>156.19999694824</ele>
        <time>2012-07-24T11:49:34.000Z</time>
      </trkpt>
      <trkpt lat="48.6877" lon="1.74218">
        <ele>156</ele>
        <time>2012-07-24T11:49:39.000Z</time>
      </trkpt>
      <trkpt lat="48.68783" lon="1.74219">
        <ele>155.80000305176</ele>
        <time>2012-07-24T11:49:46.000Z</time>
      </trkpt>
      <trkpt lat="48.68792" lon="1.74221">
        <ele>155.60000610352</ele>
        <time>2012-07-24T11:49:51.000Z</time>
      </trkpt>
      <trkpt lat="48.68808" lon="1.74227">
        <ele>155.39999389648</ele>
        <time>2012-07-24T11:49:59.000Z</time>
      </trkpt>
      <trkpt lat="48.68816" lon="1.74234">
        <ele>155</ele>
        <time>2012-07-24T11:50:06.000Z</time>
      </trkpt>
      <trkpt lat="48.6882" lon="1.74239">
        <ele>154.80000305176</ele>
        <time>2012-07-24T11:50:10.000Z</time>
      </trkpt>
      <trkpt lat="48.68826" lon="1.74253">
        <ele>154.39999389648</ele>
        <time>2012-07-24T11:50:18.000Z</time>
      </trkpt>
      <trkpt lat="48.68828" lon="1.74265">
        <ele>154.39999389648</ele>
        <time>2012-07-24T11:50:23.000Z</time>
      </trkpt>
      <trkpt lat="48.68829" lon="1.74269">
        <ele>154.60000610352</ele>
        <time>2012-07-24T11:50:25.000Z</time>
      </trkpt>
      <trkpt lat="48.68828" lon="1.74286">
        <ele>154.80000305176</ele>
        <time>2012-07-24T11:50:32.000Z</time>
      </trkpt>
      <trkpt lat="48.68826" lon="1.74301">
        <ele>155.39999389648</ele>
        <time>2012-07-24T11:50:39.000Z</time>
      </trkpt>
      <trkpt lat="48.68827" lon="1.74316">
        <ele>155.60000610352</ele>
        <time>2012-07-24T11:50:45.000Z</time>
      </trkpt>
      <trkpt lat="48.68827" lon="1.74319">
        <ele>155.60000610352</ele>
        <time>2012-07-24T11:50:46.000Z</time>
      </trkpt>
      <trkpt lat="48.68828" lon="1.74336">
        <ele>155.80000305176</ele>
        <time>2012-07-24T11:50:53.000Z</time>
      </trkpt>
      <trkpt lat="48.68828" lon="1.74338">
        <ele>156</ele>
        <time>2012-07-24T11:50:54.000Z</time>
      </trkpt>
      <trkpt lat="48.68831" lon="1.74355">
        <ele>156</ele>
        <time>2012-07-24T11:51:01.000Z</time>
      </trkpt>
      <trkpt lat="48.68836" lon="1.74362">
        <ele>156.19999694824</ele>
        <time>2012-07-24T11:51:07.000Z</time>
      </trkpt>
      <trkpt lat="48.68841" lon="1.74369">
        <ele>156.39999389648</ele>
        <time>2012-07-24T11:51:12.000Z</time>
      </trkpt>
      <trkpt lat="48.68843" lon="1.74381">
        <ele>156.80000305176</ele>
        <time>2012-07-24T11:51:18.000Z</time>
      </trkpt>
      <trkpt lat="48.68839" lon="1.74395">
        <ele>157.19999694824</ele>
        <time>2012-07-24T11:51:24.000Z</time>
      </trkpt>
      <trkpt lat="48.68837" lon="1.74412">
        <ele>157.80000305176</ele>
        <time>2012-07-24T11:51:32.000Z</time>
      </trkpt>
      <trkpt lat="48.68836" lon="1.74418">
        <ele>158</ele>
        <time>2012-07-24T11:51:35.000Z</time>
      </trkpt>
      <trkpt lat="48.68836" lon="1.74425">
        <ele>157.80000305176</ele>
        <time>2012-07-24T11:51:39.000Z</time>
      </trkpt>
      <trkpt lat="48.68836" lon="1.7443">
        <ele>157.60000610352</ele>
        <time>2012-07-24T11:51:42.000Z</time>
      </trkpt>
      <trkpt lat="48.68834" lon="1.74435">
        <ele>157.60000610352</ele>
        <time>2012-07-24T11:51:45.000Z</time>
      </trkpt>
      <trkpt lat="48.68835" lon="1.74443">
        <ele>157.39999389648</ele>
        <time>2012-07-24T11:51:49.000Z</time>
      </trkpt>
      <trkpt lat="48.68836" lon="1.74463">
        <ele>157</ele>
        <time>2012-07-24T11:51:58.000Z</time>
      </trkpt>
      <trkpt lat="48.68836" lon="1.74476">
        <ele>156.60000610352</ele>
        <time>2012-07-24T11:52:04.000Z</time>
      </trkpt>
      <trkpt lat="48.68836" lon="1.74482">
        <ele>156.39999389648</ele>
        <time>2012-07-24T11:52:07.000Z</time>
      </trkpt>
      <trkpt lat="48.68837" lon="1.74494">
        <ele>156.19999694824</ele>
        <time>2012-07-24T11:52:12.000Z</time>
      </trkpt>
      <trkpt lat="48.68836" lon="1.74517">
        <ele>156</ele>
        <time>2012-07-24T11:52:22.000Z</time>
      </trkpt>
      <trkpt lat="48.68837" lon="1.74536">
        <ele>156</ele>
        <time>2012-07-24T11:52:31.000Z</time>
      </trkpt>
      <trkpt lat="48.68837" lon="1.74553">
        <ele>156</ele>
        <time>2012-07-24T11:52:39.000Z</time>
      </trkpt>
      <trkpt lat="48.68838" lon="1.74565">
        <ele>156.19999694824</ele>
        <time>2012-07-24T11:52:44.000Z</time>
      </trkpt>
      <trkpt lat="48.68837" lon="1.74578">
        <ele>156</ele>
        <time>2012-07-24T11:52:51.000Z</time>
      </trkpt>
      <trkpt lat="48.68836" lon="1.74596">
        <ele>156.19999694824</ele>
        <time>2012-07-24T11:52:59.000Z</time>
      </trkpt>
      <trkpt lat="48.68838" lon="1.74613">
        <ele>156.60000610352</ele>
        <time>2012-07-24T11:53:06.000Z</time>
      </trkpt>
      <trkpt lat="48.68841" lon="1.74633">
        <ele>156.80000305176</ele>
        <time>2012-07-24T11:53:15.000Z</time>
      </trkpt>
      <trkpt lat="48.68842" lon="1.74651">
        <ele>157.19999694824</ele>
        <time>2012-07-24T11:53:23.000Z</time>
      </trkpt>
      <trkpt lat="48.68842" lon="1.74663">
        <ele>157.39999389648</ele>
        <time>2012-07-24T11:53:28.000Z</time>
      </trkpt>
      <trkpt lat="48.68843" lon="1.74679">
        <ele>157.39999389648</ele>
        <time>2012-07-24T11:53:35.000Z</time>
      </trkpt>
      <trkpt lat="48.68846" lon="1.74696">
        <ele>157.39999389648</ele>
        <time>2012-07-24T11:53:44.000Z</time>
      </trkpt>
      <trkpt lat="48.68847" lon="1.74709">
        <ele>157.39999389648</ele>
        <time>2012-07-24T11:53:51.000Z</time>
      </trkpt>
      <trkpt lat="48.6885" lon="1.74718">
        <ele>157.39999389648</ele>
        <time>2012-07-24T11:53:56.000Z</time>
      </trkpt>
      <trkpt lat="48.68851" lon="1.7473">
        <ele>157.39999389648</ele>
        <time>2012-07-24T11:54:02.000Z</time>
      </trkpt>
      <trkpt lat="48.68854" lon="1.74748">
        <ele>157.60000610352</ele>
        <time>2012-07-24T11:54:11.000Z</time>
      </trkpt>
      <trkpt lat="48.68857" lon="1.74771">
        <ele>157.39999389648</ele>
        <time>2012-07-24T11:54:22.000Z</time>
      </trkpt>
      <trkpt lat="48.68862" lon="1.74791">
        <ele>157.60000610352</ele>
        <time>2012-07-24T11:54:31.000Z</time>
      </trkpt>
      <trkpt lat="48.68865" lon="1.74807">
        <ele>157.60000610352</ele>
        <time>2012-07-24T11:54:38.000Z</time>
      </trkpt>
      <trkpt lat="48.6887" lon="1.74826">
        <ele>157.39999389648</ele>
        <time>2012-07-24T11:54:47.000Z</time>
      </trkpt>
      <trkpt lat="48.68871" lon="1.74845">
        <ele>157.19999694824</ele>
        <time>2012-07-24T11:54:56.000Z</time>
      </trkpt>
      <trkpt lat="48.68873" lon="1.74866">
        <ele>157</ele>
        <time>2012-07-24T11:55:06.000Z</time>
      </trkpt>
      <trkpt lat="48.68875" lon="1.74878">
        <ele>157</ele>
        <time>2012-07-24T11:55:12.000Z</time>
      </trkpt>
      <trkpt lat="48.6888" lon="1.74893">
        <ele>156.80000305176</ele>
        <time>2012-07-24T11:55:20.000Z</time>
      </trkpt>
      <trkpt lat="48.68883" lon="1.74914">
        <ele>156.60000610352</ele>
        <time>2012-07-24T11:55:29.000Z</time>
      </trkpt>
      <trkpt lat="48.68887" lon="1.74931">
        <ele>156.19999694824</ele>
        <time>2012-07-24T11:55:37.000Z</time>
      </trkpt>
      <trkpt lat="48.68891" lon="1.74946">
        <ele>155.80000305176</ele>
        <time>2012-07-24T11:55:44.000Z</time>
      </trkpt>
      <trkpt lat="48.68893" lon="1.74958">
        <ele>155.39999389648</ele>
        <time>2012-07-24T11:55:49.000Z</time>
      </trkpt>
      <trkpt lat="48.68895" lon="1.74975">
        <ele>155</ele>
        <time>2012-07-24T11:55:57.000Z</time>
      </trkpt>
      <trkpt lat="48.68897" lon="1.74988">
        <ele>154.60000610352</ele>
        <time>2012-07-24T11:56:03.000Z</time>
      </trkpt>
      <trkpt lat="48.68897" lon="1.75003">
        <ele>154.19999694824</ele>
        <time>2012-07-24T11:56:10.000Z</time>
      </trkpt>
      <trkpt lat="48.68903" lon="1.75022">
        <ele>154.19999694824</ele>
        <time>2012-07-24T11:56:19.000Z</time>
      </trkpt>
      <trkpt lat="48.68905" lon="1.75039">
        <ele>154.19999694824</ele>
        <time>2012-07-24T11:56:27.000Z</time>
      </trkpt>
      <trkpt lat="48.68907" lon="1.75058">
        <ele>154.19999694824</ele>
        <time>2012-07-24T11:56:36.000Z</time>
      </trkpt>
      <trkpt lat="48.68908" lon="1.75071">
        <ele>154</ele>
        <time>2012-07-24T11:56:43.000Z</time>
      </trkpt>
      <trkpt lat="48.6891" lon="1.75085">
        <ele>154</ele>
        <time>2012-07-24T11:56:50.000Z</time>
      </trkpt>
      <trkpt lat="48.68911" lon="1.75101">
        <ele>153.80000305176</ele>
        <time>2012-07-24T11:56:58.000Z</time>
      </trkpt>
      <trkpt lat="48.68914" lon="1.75116">
        <ele>153.60000610352</ele>
        <time>2012-07-24T11:57:05.000Z</time>
      </trkpt>
      <trkpt lat="48.68914" lon="1.75123">
        <ele>153.60000610352</ele>
        <time>2012-07-24T11:57:08.000Z</time>
      </trkpt>
      <trkpt lat="48.68918" lon="1.75135">
        <ele>153.39999389648</ele>
        <time>2012-07-24T11:57:16.000Z</time>
      </trkpt>
      <trkpt lat="48.68917" lon="1.75147">
        <ele>153.19999694824</ele>
        <time>2012-07-24T11:57:22.000Z</time>
      </trkpt>
      <trkpt lat="48.68918" lon="1.75149">
        <ele>153.19999694824</ele>
        <time>2012-07-24T11:57:23.000Z</time>
      </trkpt>
      <trkpt lat="48.68921" lon="1.7516">
        <ele>153.19999694824</ele>
        <time>2012-07-24T11:57:28.000Z</time>
      </trkpt>
      <trkpt lat="48.68927" lon="1.7517">
        <ele>153.19999694824</ele>
        <time>2012-07-24T11:57:33.000Z</time>
      </trkpt>
      <trkpt lat="48.68928" lon="1.75174">
        <ele>153.19999694824</ele>
        <time>2012-07-24T11:57:35.000Z</time>
      </trkpt>
      <trkpt lat="48.68926" lon="1.75188">
        <ele>153.19999694824</ele>
        <time>2012-07-24T11:57:41.000Z</time>
      </trkpt>
      <trkpt lat="48.68931" lon="1.75201">
        <ele>153.19999694824</ele>
        <time>2012-07-24T11:57:48.000Z</time>
      </trkpt>
      <trkpt lat="48.68935" lon="1.75217">
        <ele>153.39999389648</ele>
        <time>2012-07-24T11:57:55.000Z</time>
      </trkpt>
      <trkpt lat="48.68937" lon="1.75224">
        <ele>153.39999389648</ele>
        <time>2012-07-24T11:57:58.000Z</time>
      </trkpt>
      <trkpt lat="48.68939" lon="1.75237">
        <ele>153.39999389648</ele>
        <time>2012-07-24T11:58:04.000Z</time>
      </trkpt>
      <trkpt lat="48.6894" lon="1.75238">
        <ele>153.60000610352</ele>
        <time>2012-07-24T11:58:05.000Z</time>
      </trkpt>
      <trkpt lat="48.68945" lon="1.75254">
        <ele>153.80000305176</ele>
        <time>2012-07-24T11:58:13.000Z</time>
      </trkpt>
      <trkpt lat="48.68951" lon="1.75266">
        <ele>154</ele>
        <time>2012-07-24T11:58:21.000Z</time>
      </trkpt>
      <trkpt lat="48.68955" lon="1.75279">
        <ele>154.39999389648</ele>
        <time>2012-07-24T11:58:28.000Z</time>
      </trkpt>
      <trkpt lat="48.68964" lon="1.75298">
        <ele>155</ele>
        <time>2012-07-24T11:58:37.000Z</time>
      </trkpt>
      <trkpt lat="48.68967" lon="1.75303">
        <ele>155.19999694824</ele>
        <time>2012-07-24T11:58:41.000Z</time>
      </trkpt>
      <trkpt lat="48.68974" lon="1.75313">
        <ele>155.60000610352</ele>
        <time>2012-07-24T11:58:47.000Z</time>
      </trkpt>
      <trkpt lat="48.68983" lon="1.75325">
        <ele>156.19999694824</ele>
        <time>2012-07-24T11:58:54.000Z</time>
      </trkpt>
      <trkpt lat="48.68991" lon="1.75336">
        <ele>156.80000305176</ele>
        <time>2012-07-24T11:59:00.000Z</time>
      </trkpt>
      <trkpt lat="48.68999" lon="1.75348">
        <ele>157.19999694824</ele>
        <time>2012-07-24T11:59:07.000Z</time>
      </trkpt>
      <trkpt lat="48.69001" lon="1.75349">
        <ele>157.19999694824</ele>
        <time>2012-07-24T11:59:08.000Z</time>
      </trkpt>
      <trkpt lat="48.69009" lon="1.75357">
        <ele>157.39999389648</ele>
        <time>2012-07-24T11:59:13.000Z</time>
      </trkpt>
      <trkpt lat="48.69018" lon="1.75368">
        <ele>157.39999389648</ele>
        <time>2012-07-24T11:59:20.000Z</time>
      </trkpt>
      <trkpt lat="48.69022" lon="1.75378">
        <ele>157.39999389648</ele>
        <time>2012-07-24T11:59:25.000Z</time>
      </trkpt>
      <trkpt lat="48.69027" lon="1.75388">
        <ele>157.39999389648</ele>
        <time>2012-07-24T11:59:31.000Z</time>
      </trkpt>
      <trkpt lat="48.69034" lon="1.75401">
        <ele>157.39999389648</ele>
        <time>2012-07-24T11:59:38.000Z</time>
      </trkpt>
      <trkpt lat="48.6904" lon="1.75412">
        <ele>157</ele>
        <time>2012-07-24T11:59:45.000Z</time>
      </trkpt>
      <trkpt lat="48.69048" lon="1.75427">
        <ele>157</ele>
        <time>2012-07-24T11:59:54.000Z</time>
      </trkpt>
      <trkpt lat="48.69057" lon="1.75444">
        <ele>157.19999694824</ele>
        <time>2012-07-24T12:00:04.000Z</time>
      </trkpt>
      <trkpt lat="48.69067" lon="1.75461">
        <ele>157.19999694824</ele>
        <time>2012-07-24T12:00:14.000Z</time>
      </trkpt>
      <trkpt lat="48.69077" lon="1.75478">
        <ele>157</ele>
        <time>2012-07-24T12:00:24.000Z</time>
      </trkpt>
      <trkpt lat="48.69084" lon="1.75489">
        <ele>156.80000305176</ele>
        <time>2012-07-24T12:00:31.000Z</time>
      </trkpt>
      <trkpt lat="48.69093" lon="1.75502">
        <ele>157</ele>
        <time>2012-07-24T12:00:39.000Z</time>
      </trkpt>
      <trkpt lat="48.69098" lon="1.75516">
        <ele>157.60000610352</ele>
        <time>2012-07-24T12:00:46.000Z</time>
      </trkpt>
      <trkpt lat="48.69104" lon="1.75527">
        <ele>157.80000305176</ele>
        <time>2012-07-24T12:00:54.000Z</time>
      </trkpt>
      <trkpt lat="48.69111" lon="1.75541">
        <ele>158.19999694824</ele>
        <time>2012-07-24T12:01:03.000Z</time>
      </trkpt>
      <trkpt lat="48.69118" lon="1.75554">
        <ele>158.19999694824</ele>
        <time>2012-07-24T12:01:12.000Z</time>
      </trkpt>
      <trkpt lat="48.6912" lon="1.75561">
        <ele>158.19999694824</ele>
        <time>2012-07-24T12:01:17.000Z</time>
      </trkpt>
      <trkpt lat="48.69131" lon="1.75572">
        <ele>158</ele>
        <time>2012-07-24T12:01:26.000Z</time>
      </trkpt>
      <trkpt lat="48.69137" lon="1.75583">
        <ele>157.80000305176</ele>
        <time>2012-07-24T12:01:32.000Z</time>
      </trkpt>
      <trkpt lat="48.69138" lon="1.75586">
        <ele>157.80000305176</ele>
        <time>2012-07-24T12:01:34.000Z</time>
      </trkpt>
      <trkpt lat="48.69146" lon="1.756">
        <ele>158.19999694824</ele>
        <time>2012-07-24T12:01:43.000Z</time>
      </trkpt>
      <trkpt lat="48.69152" lon="1.75613">
        <ele>158.80000305176</ele>
        <time>2012-07-24T12:01:51.000Z</time>
      </trkpt>
      <trkpt lat="48.69157" lon="1.75623">
        <ele>159.19999694824</ele>
        <time>2012-07-24T12:01:57.000Z</time>
      </trkpt>
      <trkpt lat="48.69164" lon="1.75633">
        <ele>159.60000610352</ele>
        <time>2012-07-24T12:02:04.000Z</time>
      </trkpt>
      <trkpt lat="48.69176" lon="1.75643">
        <ele>160.19999694824</ele>
        <time>2012-07-24T12:02:12.000Z</time>
      </trkpt>
      <trkpt lat="48.69182" lon="1.75653">
        <ele>160.60000610352</ele>
        <time>2012-07-24T12:02:18.000Z</time>
      </trkpt>
      <trkpt lat="48.69189" lon="1.75665">
        <ele>161</ele>
        <time>2012-07-24T12:02:25.000Z</time>
      </trkpt>
      <trkpt lat="48.69196" lon="1.75679">
        <ele>161.39999389648</ele>
        <time>2012-07-24T12:02:34.000Z</time>
      </trkpt>
      <trkpt lat="48.69204" lon="1.75695">
        <ele>161.39999389648</ele>
        <time>2012-07-24T12:02:43.000Z</time>
      </trkpt>
      <trkpt lat="48.69214" lon="1.75709">
        <ele>161.60000610352</ele>
        <time>2012-07-24T12:02:51.000Z</time>
      </trkpt>
      <trkpt lat="48.69223" lon="1.75723">
        <ele>161.60000610352</ele>
        <time>2012-07-24T12:03:00.000Z</time>
      </trkpt>
      <trkpt lat="48.69229" lon="1.75733">
        <ele>161.60000610352</ele>
        <time>2012-07-24T12:03:06.000Z</time>
      </trkpt>
      <trkpt lat="48.69233" lon="1.75746">
        <ele>161.60000610352</ele>
        <time>2012-07-24T12:03:14.000Z</time>
      </trkpt>
      <trkpt lat="48.69239" lon="1.75754">
        <ele>161.60000610352</ele>
        <time>2012-07-24T12:03:20.000Z</time>
      </trkpt>
      <trkpt lat="48.69251" lon="1.75763">
        <ele>161.60000610352</ele>
        <time>2012-07-24T12:03:28.000Z</time>
      </trkpt>
      <trkpt lat="48.69258" lon="1.75776">
        <ele>162.19999694824</ele>
        <time>2012-07-24T12:03:36.000Z</time>
      </trkpt>
      <trkpt lat="48.69258" lon="1.75784">
        <ele>162.39999389648</ele>
        <time>2012-07-24T12:03:40.000Z</time>
      </trkpt>
      <trkpt lat="48.69264" lon="1.75796">
        <ele>163</ele>
        <time>2012-07-24T12:03:48.000Z</time>
      </trkpt>
      <trkpt lat="48.69267" lon="1.75805">
        <ele>163.39999389648</ele>
        <time>2012-07-24T12:03:54.000Z</time>
      </trkpt>
      <trkpt lat="48.69272" lon="1.75814">
        <ele>163.60000610352</ele>
        <time>2012-07-24T12:03:59.000Z</time>
      </trkpt>
      <trkpt lat="48.6928" lon="1.75817">
        <ele>164</ele>
        <time>2012-07-24T12:04:05.000Z</time>
      </trkpt>
      <trkpt lat="48.69289" lon="1.75814">
        <ele>164</ele>
        <time>2012-07-24T12:04:10.000Z</time>
      </trkpt>
      <trkpt lat="48.69298" lon="1.75815">
        <ele>164.19999694824</ele>
        <time>2012-07-24T12:04:16.000Z</time>
      </trkpt>
      <trkpt lat="48.69306" lon="1.75818">
        <ele>164.39999389648</ele>
        <time>2012-07-24T12:04:22.000Z</time>
      </trkpt>
      <trkpt lat="48.69313" lon="1.75818">
        <ele>164.39999389648</ele>
        <time>2012-07-24T12:04:26.000Z</time>
      </trkpt>
      <trkpt lat="48.69324" lon="1.7582">
        <ele>164.60000610352</ele>
        <time>2012-07-24T12:04:35.000Z</time>
      </trkpt>
      <trkpt lat="48.69331" lon="1.7582">
        <ele>164.80000305176</ele>
        <time>2012-07-24T12:04:40.000Z</time>
      </trkpt>
      <trkpt lat="48.69339" lon="1.75821">
        <ele>165</ele>
        <time>2012-07-24T12:04:45.000Z</time>
      </trkpt>
      <trkpt lat="48.69343" lon="1.7582">
        <ele>165</ele>
        <time>2012-07-24T12:04:48.000Z</time>
      </trkpt>
      <trkpt lat="48.69351" lon="1.75822">
        <ele>165</ele>
        <time>2012-07-24T12:04:55.000Z</time>
      </trkpt>
      <trkpt lat="48.6936" lon="1.75823">
        <ele>165.19999694824</ele>
        <time>2012-07-24T12:04:59.000Z</time>
      </trkpt>
      <trkpt lat="48.69371" lon="1.75825">
        <ele>165.39999389648</ele>
        <time>2012-07-24T12:05:05.000Z</time>
      </trkpt>
      <trkpt lat="48.69372" lon="1.75825">
        <ele>165.39999389648</ele>
        <time>2012-07-24T12:05:06.000Z</time>
      </trkpt>
      <trkpt lat="48.6938" lon="1.75827">
        <ele>165.39999389648</ele>
        <time>2012-07-24T12:05:12.000Z</time>
      </trkpt>
      <trkpt lat="48.69385" lon="1.75828">
        <ele>165.60000610352</ele>
        <time>2012-07-24T12:05:16.000Z</time>
      </trkpt>
      <trkpt lat="48.69395" lon="1.75829">
        <ele>165.60000610352</ele>
        <time>2012-07-24T12:05:23.000Z</time>
      </trkpt>
      <trkpt lat="48.69404" lon="1.75834">
        <ele>165.80000305176</ele>
        <time>2012-07-24T12:05:30.000Z</time>
      </trkpt>
      <trkpt lat="48.69411" lon="1.75838">
        <ele>166.19999694824</ele>
        <time>2012-07-24T12:05:35.000Z</time>
      </trkpt>
      <trkpt lat="48.69419" lon="1.75844">
        <ele>166.39999389648</ele>
        <time>2012-07-24T12:05:42.000Z</time>
      </trkpt>
      <trkpt lat="48.69428" lon="1.75847">
        <ele>166.19999694824</ele>
        <time>2012-07-24T12:05:48.000Z</time>
      </trkpt>
      <trkpt lat="48.69431" lon="1.75847">
        <ele>166.19999694824</ele>
        <time>2012-07-24T12:05:50.000Z</time>
      </trkpt>
      <trkpt lat="48.69441" lon="1.75846">
        <ele>166</ele>
        <time>2012-07-24T12:05:56.000Z</time>
      </trkpt>
      <trkpt lat="48.69455" lon="1.75848">
        <ele>166</ele>
        <time>2012-07-24T12:06:04.000Z</time>
      </trkpt>
      <trkpt lat="48.69458" lon="1.75848">
        <ele>165.80000305176</ele>
        <time>2012-07-24T12:06:08.000Z</time>
      </trkpt>
      <trkpt lat="48.69463" lon="1.75849">
        <ele>165.80000305176</ele>
        <time>2012-07-24T12:06:11.000Z</time>
      </trkpt>
      <trkpt lat="48.69473" lon="1.7585">
        <ele>165.80000305176</ele>
        <time>2012-07-24T12:06:19.000Z</time>
      </trkpt>
      <trkpt lat="48.69483" lon="1.75849">
        <ele>165.60000610352</ele>
        <time>2012-07-24T12:06:25.000Z</time>
      </trkpt>
      <trkpt lat="48.69493" lon="1.75847">
        <ele>165.19999694824</ele>
        <time>2012-07-24T12:06:30.000Z</time>
      </trkpt>
      <trkpt lat="48.695" lon="1.75848">
        <ele>165.19999694824</ele>
        <time>2012-07-24T12:06:34.000Z</time>
      </trkpt>
      <trkpt lat="48.69509" lon="1.75848">
        <ele>165.39999389648</ele>
        <time>2012-07-24T12:06:41.000Z</time>
      </trkpt>
      <trkpt lat="48.69514" lon="1.7585">
        <ele>165.60000610352</ele>
        <time>2012-07-24T12:06:47.000Z</time>
      </trkpt>
      <trkpt lat="48.69531" lon="1.7585">
        <ele>165.80000305176</ele>
        <time>2012-07-24T12:07:01.000Z</time>
      </trkpt>
      <trkpt lat="48.69539" lon="1.75851">
        <ele>166</ele>
        <time>2012-07-24T12:07:07.000Z</time>
      </trkpt>
      <trkpt lat="48.69545" lon="1.7585">
        <ele>166</ele>
        <time>2012-07-24T12:07:11.000Z</time>
      </trkpt>
      <trkpt lat="48.69556" lon="1.7585">
        <ele>166.19999694824</ele>
        <time>2012-07-24T12:07:18.000Z</time>
      </trkpt>
      <trkpt lat="48.6956" lon="1.75849">
        <ele>166.19999694824</ele>
        <time>2012-07-24T12:07:22.000Z</time>
      </trkpt>
      <trkpt lat="48.69568" lon="1.75851">
        <ele>166.39999389648</ele>
        <time>2012-07-24T12:07:27.000Z</time>
      </trkpt>
      <trkpt lat="48.69574" lon="1.7585">
        <ele>166.39999389648</ele>
        <time>2012-07-24T12:07:33.000Z</time>
      </trkpt>
      <trkpt lat="48.69577" lon="1.7585">
        <ele>166.60000610352</ele>
        <time>2012-07-24T12:07:34.000Z</time>
      </trkpt>
      <trkpt lat="48.6959" lon="1.75849">
        <ele>166.19999694824</ele>
        <time>2012-07-24T12:07:42.000Z</time>
      </trkpt>
      <trkpt lat="48.69598" lon="1.75853">
        <ele>166</ele>
        <time>2012-07-24T12:07:49.000Z</time>
      </trkpt>
      <trkpt lat="48.69608" lon="1.75858">
        <ele>165.60000610352</ele>
        <time>2012-07-24T12:07:56.000Z</time>
      </trkpt>
      <trkpt lat="48.69611" lon="1.75858">
        <ele>165.60000610352</ele>
        <time>2012-07-24T12:07:58.000Z</time>
      </trkpt>
      <trkpt lat="48.6962" lon="1.75861">
        <ele>165.19999694824</ele>
        <time>2012-07-24T12:08:03.000Z</time>
      </trkpt>
      <trkpt lat="48.69629" lon="1.75863">
        <ele>165</ele>
        <time>2012-07-24T12:08:08.000Z</time>
      </trkpt>
      <trkpt lat="48.69636" lon="1.75869">
        <ele>165</ele>
        <time>2012-07-24T12:08:15.000Z</time>
      </trkpt>
      <trkpt lat="48.69643" lon="1.75874">
        <ele>164.80000305176</ele>
        <time>2012-07-24T12:08:21.000Z</time>
      </trkpt>
      <trkpt lat="48.69648" lon="1.75875">
        <ele>164.80000305176</ele>
        <time>2012-07-24T12:08:26.000Z</time>
      </trkpt>
      <trkpt lat="48.69654" lon="1.75879">
        <ele>164.80000305176</ele>
        <time>2012-07-24T12:08:29.000Z</time>
      </trkpt>
      <trkpt lat="48.6966" lon="1.75886">
        <ele>165</ele>
        <time>2012-07-24T12:08:34.000Z</time>
      </trkpt>
      <trkpt lat="48.69665" lon="1.75888">
        <ele>165</ele>
        <time>2012-07-24T12:08:39.000Z</time>
      </trkpt>
      <trkpt lat="48.69671" lon="1.75894">
        <ele>165.39999389648</ele>
        <time>2012-07-24T12:08:45.000Z</time>
      </trkpt>
      <trkpt lat="48.69674" lon="1.75896">
        <ele>165.39999389648</ele>
        <time>2012-07-24T12:08:48.000Z</time>
      </trkpt>
      <trkpt lat="48.69682" lon="1.75901">
        <ele>165.80000305176</ele>
        <time>2012-07-24T12:08:55.000Z</time>
      </trkpt>
      <trkpt lat="48.69684" lon="1.75902">
        <ele>165.80000305176</ele>
        <time>2012-07-24T12:08:57.000Z</time>
      </trkpt>
      <trkpt lat="48.69693" lon="1.75909">
        <ele>166.19999694824</ele>
        <time>2012-07-24T12:09:04.000Z</time>
      </trkpt>
      <trkpt lat="48.69703" lon="1.75916">
        <ele>166.60000610352</ele>
        <time>2012-07-24T12:09:12.000Z</time>
      </trkpt>
      <trkpt lat="48.69711" lon="1.75921">
        <ele>166.80000305176</ele>
        <time>2012-07-24T12:09:18.000Z</time>
      </trkpt>
      <trkpt lat="48.6972" lon="1.75927">
        <ele>167</ele>
        <time>2012-07-24T12:09:24.000Z</time>
      </trkpt>
      <trkpt lat="48.69732" lon="1.75932">
        <ele>167.19999694824</ele>
        <time>2012-07-24T12:09:31.000Z</time>
      </trkpt>
      <trkpt lat="48.69743" lon="1.75933">
        <ele>167.19999694824</ele>
        <time>2012-07-24T12:09:39.000Z</time>
      </trkpt>
      <trkpt lat="48.69743" lon="1.75933">
        <ele>167</ele>
        <time>2012-07-24T12:09:40.000Z</time>
      </trkpt>
      <trkpt lat="48.69752" lon="1.75935">
        <ele>167</ele>
        <time>2012-07-24T12:09:47.000Z</time>
      </trkpt>
      <trkpt lat="48.69761" lon="1.75942">
        <ele>167.39999389648</ele>
        <time>2012-07-24T12:09:54.000Z</time>
      </trkpt>
      <trkpt lat="48.6977" lon="1.75947">
        <ele>167.39999389648</ele>
        <time>2012-07-24T12:10:00.000Z</time>
      </trkpt>
      <trkpt lat="48.6978" lon="1.75952">
        <ele>167.60000610352</ele>
        <time>2012-07-24T12:10:06.000Z</time>
      </trkpt>
      <trkpt lat="48.69784" lon="1.75956">
        <ele>167.60000610352</ele>
        <time>2012-07-24T12:10:09.000Z</time>
      </trkpt>
      <trkpt lat="48.6979" lon="1.75961">
        <ele>167.60000610352</ele>
        <time>2012-07-24T12:10:13.000Z</time>
      </trkpt>
      <trkpt lat="48.69797" lon="1.75965">
        <ele>167.60000610352</ele>
        <time>2012-07-24T12:10:18.000Z</time>
      </trkpt>
      <trkpt lat="48.69803" lon="1.75971">
        <ele>167.60000610352</ele>
        <time>2012-07-24T12:10:24.000Z</time>
      </trkpt>
      <trkpt lat="48.69812" lon="1.75975">
        <ele>167.39999389648</ele>
        <time>2012-07-24T12:10:31.000Z</time>
      </trkpt>
      <trkpt lat="48.69814" lon="1.75977">
        <ele>167.39999389648</ele>
        <time>2012-07-24T12:10:33.000Z</time>
      </trkpt>
      <trkpt lat="48.69818" lon="1.75981">
        <ele>167.39999389648</ele>
        <time>2012-07-24T12:10:37.000Z</time>
      </trkpt>
      <trkpt lat="48.6983" lon="1.75985">
        <ele>167</ele>
        <time>2012-07-24T12:10:44.000Z</time>
      </trkpt>
      <trkpt lat="48.69842" lon="1.75995">
        <ele>166.80000305176</ele>
        <time>2012-07-24T12:10:52.000Z</time>
      </trkpt>
      <trkpt lat="48.6985" lon="1.76002">
        <ele>166.80000305176</ele>
        <time>2012-07-24T12:10:58.000Z</time>
      </trkpt>
      <trkpt lat="48.69857" lon="1.76005">
        <ele>167</ele>
        <time>2012-07-24T12:11:02.000Z</time>
      </trkpt>
      <trkpt lat="48.69866" lon="1.76011">
        <ele>167</ele>
        <time>2012-07-24T12:11:08.000Z</time>
      </trkpt>
      <trkpt lat="48.69875" lon="1.76014">
        <ele>167</ele>
        <time>2012-07-24T12:11:12.000Z</time>
      </trkpt>
      <trkpt lat="48.69889" lon="1.7602">
        <ele>166.80000305176</ele>
        <time>2012-07-24T12:11:20.000Z</time>
      </trkpt>
      <trkpt lat="48.69896" lon="1.76027">
        <ele>166.60000610352</ele>
        <time>2012-07-24T12:11:26.000Z</time>
      </trkpt>
      <trkpt lat="48.69896" lon="1.76042">
        <ele>166.80000305176</ele>
        <time>2012-07-24T12:11:34.000Z</time>
      </trkpt>
      <trkpt lat="48.69902" lon="1.76053">
        <ele>166.80000305176</ele>
        <time>2012-07-24T12:11:42.000Z</time>
      </trkpt>
      <trkpt lat="48.69907" lon="1.76056">
        <ele>166.60000610352</ele>
        <time>2012-07-24T12:11:45.000Z</time>
      </trkpt>
      <trkpt lat="48.69914" lon="1.7606">
        <ele>166.19999694824</ele>
        <time>2012-07-24T12:11:50.000Z</time>
      </trkpt>
      <trkpt lat="48.6992" lon="1.76065">
        <ele>166</ele>
        <time>2012-07-24T12:11:56.000Z</time>
      </trkpt>
      <trkpt lat="48.69922" lon="1.76068">
        <ele>166</ele>
        <time>2012-07-24T12:11:58.000Z</time>
      </trkpt>
      <trkpt lat="48.6993" lon="1.76076">
        <ele>165.80000305176</ele>
        <time>2012-07-24T12:12:05.000Z</time>
      </trkpt>
      <trkpt lat="48.69938" lon="1.76084">
        <ele>165.80000305176</ele>
        <time>2012-07-24T12:12:12.000Z</time>
      </trkpt>
      <trkpt lat="48.69943" lon="1.76094">
        <ele>166</ele>
        <time>2012-07-24T12:12:18.000Z</time>
      </trkpt>
      <trkpt lat="48.69952" lon="1.76104">
        <ele>166.19999694824</ele>
        <time>2012-07-24T12:12:26.000Z</time>
      </trkpt>
      <trkpt lat="48.6996" lon="1.76113">
        <ele>166.39999389648</ele>
        <time>2012-07-24T12:12:33.000Z</time>
      </trkpt>
      <trkpt lat="48.69969" lon="1.76122">
        <ele>166.39999389648</ele>
        <time>2012-07-24T12:12:40.000Z</time>
      </trkpt>
      <trkpt lat="48.69975" lon="1.76129">
        <ele>166.39999389648</ele>
        <time>2012-07-24T12:12:45.000Z</time>
      </trkpt>
      <trkpt lat="48.69983" lon="1.76147">
        <ele>166.39999389648</ele>
        <time>2012-07-24T12:12:55.000Z</time>
      </trkpt>
      <trkpt lat="48.69988" lon="1.7616">
        <ele>166.39999389648</ele>
        <time>2012-07-24T12:13:03.000Z</time>
      </trkpt>
      <trkpt lat="48.69994" lon="1.76172">
        <ele>166.39999389648</ele>
        <time>2012-07-24T12:13:10.000Z</time>
      </trkpt>
      <trkpt lat="48.70002" lon="1.76183">
        <ele>166.39999389648</ele>
        <time>2012-07-24T12:13:17.000Z</time>
      </trkpt>
      <trkpt lat="48.70006" lon="1.76187">
        <ele>166.39999389648</ele>
        <time>2012-07-24T12:13:21.000Z</time>
      </trkpt>
      <trkpt lat="48.70019" lon="1.76194">
        <ele>166.60000610352</ele>
        <time>2012-07-24T12:13:29.000Z</time>
      </trkpt>
      <trkpt lat="48.70028" lon="1.762">
        <ele>166.80000305176</ele>
        <time>2012-07-24T12:13:36.000Z</time>
      </trkpt>
      <trkpt lat="48.70038" lon="1.76205">
        <ele>167</ele>
        <time>2012-07-24T12:13:42.000Z</time>
      </trkpt>
      <trkpt lat="48.70049" lon="1.76215">
        <ele>167.19999694824</ele>
        <time>2012-07-24T12:13:52.000Z</time>
      </trkpt>
      <trkpt lat="48.70057" lon="1.76221">
        <ele>167.39999389648</ele>
        <time>2012-07-24T12:13:59.000Z</time>
      </trkpt>
      <trkpt lat="48.7006" lon="1.76224">
        <ele>167.39999389648</ele>
        <time>2012-07-24T12:14:02.000Z</time>
      </trkpt>
      <trkpt lat="48.70068" lon="1.76232">
        <ele>167.60000610352</ele>
        <time>2012-07-24T12:14:09.000Z</time>
      </trkpt>
      <trkpt lat="48.70084" lon="1.76245">
        <ele>167.80000305176</ele>
        <time>2012-07-24T12:14:19.000Z</time>
      </trkpt>
      <trkpt lat="48.70091" lon="1.76257">
        <ele>168</ele>
        <time>2012-07-24T12:14:26.000Z</time>
      </trkpt>
      <trkpt lat="48.70097" lon="1.76273">
        <ele>168.39999389648</ele>
        <time>2012-07-24T12:14:34.000Z</time>
      </trkpt>
      <trkpt lat="48.70102" lon="1.76294">
        <ele>168.60000610352</ele>
        <time>2012-07-24T12:14:44.000Z</time>
      </trkpt>
      <trkpt lat="48.7011" lon="1.76306">
        <ele>168.80000305176</ele>
        <time>2012-07-24T12:14:52.000Z</time>
      </trkpt>
      <trkpt lat="48.70118" lon="1.76314">
        <ele>169</ele>
        <time>2012-07-24T12:15:00.000Z</time>
      </trkpt>
      <trkpt lat="48.70129" lon="1.76321">
        <ele>169.39999389648</ele>
        <time>2012-07-24T12:15:07.000Z</time>
      </trkpt>
      <trkpt lat="48.70137" lon="1.76326">
        <ele>169.39999389648</ele>
        <time>2012-07-24T12:15:13.000Z</time>
      </trkpt>
      <trkpt lat="48.70143" lon="1.76329">
        <ele>169.60000610352</ele>
        <time>2012-07-24T12:15:19.000Z</time>
      </trkpt>
      <trkpt lat="48.70152" lon="1.76332">
        <ele>169.80000305176</ele>
        <time>2012-07-24T12:15:26.000Z</time>
      </trkpt>
      <trkpt lat="48.70162" lon="1.76336">
        <ele>170</ele>
        <time>2012-07-24T12:15:34.000Z</time>
      </trkpt>
      <trkpt lat="48.70168" lon="1.76339">
        <ele>170.19999694824</ele>
        <time>2012-07-24T12:15:39.000Z</time>
      </trkpt>
      <trkpt lat="48.70181" lon="1.76344">
        <ele>170.60000610352</ele>
        <time>2012-07-24T12:15:46.000Z</time>
      </trkpt>
      <trkpt lat="48.70195" lon="1.76349">
        <ele>171</ele>
        <time>2012-07-24T12:15:54.000Z</time>
      </trkpt>
      <trkpt lat="48.70201" lon="1.76352">
        <ele>171.19999694824</ele>
        <time>2012-07-24T12:15:57.000Z</time>
      </trkpt>
      <trkpt lat="48.70208" lon="1.76357">
        <ele>171.39999389648</ele>
        <time>2012-07-24T12:16:04.000Z</time>
      </trkpt>
      <trkpt lat="48.70221" lon="1.76367">
        <ele>171.80000305176</ele>
        <time>2012-07-24T12:16:12.000Z</time>
      </trkpt>
      <trkpt lat="48.70229" lon="1.76377">
        <ele>172.19999694824</ele>
        <time>2012-07-24T12:16:19.000Z</time>
      </trkpt>
      <trkpt lat="48.70239" lon="1.7639">
        <ele>172.60000610352</ele>
        <time>2012-07-24T12:16:27.000Z</time>
      </trkpt>
      <trkpt lat="48.70248" lon="1.76397">
        <ele>172.80000305176</ele>
        <time>2012-07-24T12:16:32.000Z</time>
      </trkpt>
      <trkpt lat="48.70255" lon="1.76404">
        <ele>173</ele>
        <time>2012-07-24T12:16:37.000Z</time>
      </trkpt>
      <trkpt lat="48.7026" lon="1.76408">
        <ele>173.19999694824</ele>
        <time>2012-07-24T12:16:41.000Z</time>
      </trkpt>
      <trkpt lat="48.7027" lon="1.7642">
        <ele>173.80000305176</ele>
        <time>2012-07-24T12:16:50.000Z</time>
      </trkpt>
      <trkpt lat="48.7028" lon="1.76425">
        <ele>174.39999389648</ele>
        <time>2012-07-24T12:16:58.000Z</time>
      </trkpt>
      <trkpt lat="48.70281" lon="1.76425">
        <ele>174.39999389648</ele>
        <time>2012-07-24T12:16:59.000Z</time>
      </trkpt>
      <trkpt lat="48.70287" lon="1.76427">
        <ele>174.60000610352</ele>
        <time>2012-07-24T12:17:04.000Z</time>
      </trkpt>
      <trkpt lat="48.70304" lon="1.76426">
        <ele>175.19999694824</ele>
        <time>2012-07-24T12:17:14.000Z</time>
      </trkpt>
      <trkpt lat="48.70307" lon="1.76426">
        <ele>175.39999389648</ele>
        <time>2012-07-24T12:17:16.000Z</time>
      </trkpt>
      <trkpt lat="48.70315" lon="1.76421">
        <ele>175.39999389648</ele>
        <time>2012-07-24T12:17:21.000Z</time>
      </trkpt>
      <trkpt lat="48.7032" lon="1.76419">
        <ele>175.60000610352</ele>
        <time>2012-07-24T12:17:24.000Z</time>
      </trkpt>
      <trkpt lat="48.7033" lon="1.76416">
        <ele>175.80000305176</ele>
        <time>2012-07-24T12:17:32.000Z</time>
      </trkpt>
      <trkpt lat="48.70338" lon="1.76412">
        <ele>175.80000305176</ele>
        <time>2012-07-24T12:17:39.000Z</time>
      </trkpt>
      <trkpt lat="48.70345" lon="1.7641">
        <ele>176</ele>
        <time>2012-07-24T12:17:43.000Z</time>
      </trkpt>
      <trkpt lat="48.70352" lon="1.76408">
        <ele>176</ele>
        <time>2012-07-24T12:17:49.000Z</time>
      </trkpt>
      <trkpt lat="48.70363" lon="1.76407">
        <ele>176.19999694824</ele>
        <time>2012-07-24T12:17:57.000Z</time>
      </trkpt>
      <trkpt lat="48.70374" lon="1.76407">
        <ele>176.60000610352</ele>
        <time>2012-07-24T12:18:04.000Z</time>
      </trkpt>
      <trkpt lat="48.70381" lon="1.76407">
        <ele>176.60000610352</ele>
        <time>2012-07-24T12:18:10.000Z</time>
      </trkpt>
      <trkpt lat="48.70389" lon="1.76403">
        <ele>176.60000610352</ele>
        <time>2012-07-24T12:18:19.000Z</time>
      </trkpt>
      <trkpt lat="48.70394" lon="1.76399">
        <ele>176.60000610352</ele>
        <time>2012-07-24T12:18:24.000Z</time>
      </trkpt>
      <trkpt lat="48.70402" lon="1.76395">
        <ele>176.60000610352</ele>
        <time>2012-07-24T12:18:31.000Z</time>
      </trkpt>
      <trkpt lat="48.70407" lon="1.76395">
        <ele>176.80000305176</ele>
        <time>2012-07-24T12:18:34.000Z</time>
      </trkpt>
      <trkpt lat="48.70415" lon="1.76389">
        <ele>176.60000610352</ele>
        <time>2012-07-24T12:18:40.000Z</time>
      </trkpt>
      <trkpt lat="48.70427" lon="1.76384">
        <ele>176</ele>
        <time>2012-07-24T12:18:46.000Z</time>
      </trkpt>
      <trkpt lat="48.70432" lon="1.76381">
        <ele>175.80000305176</ele>
        <time>2012-07-24T12:18:49.000Z</time>
      </trkpt>
      <trkpt lat="48.70434" lon="1.76379">
        <ele>175.60000610352</ele>
        <time>2012-07-24T12:18:51.000Z</time>
      </trkpt>
      <trkpt lat="48.70444" lon="1.7637">
        <ele>174.80000305176</ele>
        <time>2012-07-24T12:18:59.000Z</time>
      </trkpt>
      <trkpt lat="48.70444" lon="1.76368">
        <ele>174.60000610352</ele>
        <time>2012-07-24T12:19:00.000Z</time>
      </trkpt>
      <trkpt lat="48.70444" lon="1.76355">
        <ele>174</ele>
        <time>2012-07-24T12:19:07.000Z</time>
      </trkpt>
      <trkpt lat="48.70444" lon="1.76341">
        <ele>173.39999389648</ele>
        <time>2012-07-24T12:19:15.000Z</time>
      </trkpt>
      <trkpt lat="48.70445" lon="1.76339">
        <ele>173.19999694824</ele>
        <time>2012-07-24T12:19:16.000Z</time>
      </trkpt>
      <trkpt lat="48.70442" lon="1.76324">
        <ele>173</ele>
        <time>2012-07-24T12:19:22.000Z</time>
      </trkpt>
      <trkpt lat="48.70441" lon="1.7632">
        <ele>173</ele>
        <time>2012-07-24T12:19:25.000Z</time>
      </trkpt>
      <trkpt lat="48.70439" lon="1.76313">
        <ele>173.19999694824</ele>
        <time>2012-07-24T12:19:29.000Z</time>
      </trkpt>
      <trkpt lat="48.70439" lon="1.763">
        <ele>173</ele>
        <time>2012-07-24T12:19:35.000Z</time>
      </trkpt>
      <trkpt lat="48.70439" lon="1.76293">
        <ele>173</ele>
        <time>2012-07-24T12:19:38.000Z</time>
      </trkpt>
      <trkpt lat="48.70439" lon="1.76282">
        <ele>173</ele>
        <time>2012-07-24T12:19:45.000Z</time>
      </trkpt>
      <trkpt lat="48.70442" lon="1.7627">
        <ele>172.80000305176</ele>
        <time>2012-07-24T12:19:50.000Z</time>
      </trkpt>
      <trkpt lat="48.7045" lon="1.76252">
        <ele>172.39999389648</ele>
        <time>2012-07-24T12:19:59.000Z</time>
      </trkpt>
      <trkpt lat="48.70453" lon="1.76239">
        <ele>172.60000610352</ele>
        <time>2012-07-24T12:20:05.000Z</time>
      </trkpt>
      <trkpt lat="48.70455" lon="1.76227">
        <ele>172.80000305176</ele>
        <time>2012-07-24T12:20:11.000Z</time>
      </trkpt>
      <trkpt lat="48.70455" lon="1.76226">
        <ele>172.80000305176</ele>
        <time>2012-07-24T12:20:12.000Z</time>
      </trkpt>
      <trkpt lat="48.70456" lon="1.76223">
        <ele>172.80000305176</ele>
        <time>2012-07-24T12:20:14.000Z</time>
      </trkpt>
      <trkpt lat="48.70452" lon="1.76208">
        <ele>173.39999389648</ele>
        <time>2012-07-24T12:20:20.000Z</time>
      </trkpt>
      <trkpt lat="48.70447" lon="1.76194">
        <ele>173.80000305176</ele>
        <time>2012-07-24T12:20:26.000Z</time>
      </trkpt>
      <trkpt lat="48.70445" lon="1.76179">
        <ele>174.39999389648</ele>
        <time>2012-07-24T12:20:32.000Z</time>
      </trkpt>
      <trkpt lat="48.70444" lon="1.76161">
        <ele>174.80000305176</ele>
        <time>2012-07-24T12:20:39.000Z</time>
      </trkpt>
      <trkpt lat="48.70445" lon="1.76158">
        <ele>174.80000305176</ele>
        <time>2012-07-24T12:20:40.000Z</time>
      </trkpt>
      <trkpt lat="48.70447" lon="1.76147">
        <ele>174.80000305176</ele>
        <time>2012-07-24T12:20:45.000Z</time>
      </trkpt>
      <trkpt lat="48.70451" lon="1.76134">
        <ele>174.80000305176</ele>
        <time>2012-07-24T12:20:52.000Z</time>
      </trkpt>
      <trkpt lat="48.70454" lon="1.76126">
        <ele>174.60000610352</ele>
        <time>2012-07-24T12:20:57.000Z</time>
      </trkpt>
      <trkpt lat="48.70459" lon="1.76114">
        <ele>174.60000610352</ele>
        <time>2012-07-24T12:21:04.000Z</time>
      </trkpt>
      <trkpt lat="48.70463" lon="1.76099">
        <ele>174.60000610352</ele>
        <time>2012-07-24T12:21:12.000Z</time>
      </trkpt>
      <trkpt lat="48.70467" lon="1.76086">
        <ele>174.60000610352</ele>
        <time>2012-07-24T12:21:20.000Z</time>
      </trkpt>
      <trkpt lat="48.70468" lon="1.76083">
        <ele>174.60000610352</ele>
        <time>2012-07-24T12:21:22.000Z</time>
      </trkpt>
      <trkpt lat="48.70471" lon="1.76068">
        <ele>175.19999694824</ele>
        <time>2012-07-24T12:21:29.000Z</time>
      </trkpt>
      <trkpt lat="48.70475" lon="1.76055">
        <ele>175.80000305176</ele>
        <time>2012-07-24T12:21:36.000Z</time>
      </trkpt>
      <trkpt lat="48.70478" lon="1.76043">
        <ele>176.39999389648</ele>
        <time>2012-07-24T12:21:43.000Z</time>
      </trkpt>
      <trkpt lat="48.70479" lon="1.7604">
        <ele>176.39999389648</ele>
        <time>2012-07-24T12:21:44.000Z</time>
      </trkpt>
      <trkpt lat="48.70481" lon="1.76023">
        <ele>177.39999389648</ele>
        <time>2012-07-24T12:21:51.000Z</time>
      </trkpt>
      <trkpt lat="48.70486" lon="1.76011">
        <ele>177.80000305176</ele>
        <time>2012-07-24T12:21:57.000Z</time>
      </trkpt>
      <trkpt lat="48.70489" lon="1.76002">
        <ele>178.19999694824</ele>
        <time>2012-07-24T12:22:02.000Z</time>
      </trkpt>
      <trkpt lat="48.70491" lon="1.75992">
        <ele>178.60000610352</ele>
        <time>2012-07-24T12:22:07.000Z</time>
      </trkpt>
      <trkpt lat="48.70497" lon="1.75978">
        <ele>179.19999694824</ele>
        <time>2012-07-24T12:22:14.000Z</time>
      </trkpt>
      <trkpt lat="48.70499" lon="1.75966">
        <ele>179.60000610352</ele>
        <time>2012-07-24T12:22:20.000Z</time>
      </trkpt>
      <trkpt lat="48.70507" lon="1.75954">
        <ele>179.80000305176</ele>
        <time>2012-07-24T12:22:27.000Z</time>
      </trkpt>
      <trkpt lat="48.70512" lon="1.75944">
        <ele>179.80000305176</ele>
        <time>2012-07-24T12:22:33.000Z</time>
      </trkpt>
      <trkpt lat="48.7052" lon="1.75935">
        <ele>179.80000305176</ele>
        <time>2012-07-24T12:22:40.000Z</time>
      </trkpt>
      <trkpt lat="48.70521" lon="1.75933">
        <ele>179.80000305176</ele>
        <time>2012-07-24T12:22:41.000Z</time>
      </trkpt>
      <trkpt lat="48.70526" lon="1.75927">
        <ele>179.80000305176</ele>
        <time>2012-07-24T12:22:47.000Z</time>
      </trkpt>
      <trkpt lat="48.70532" lon="1.75917">
        <ele>179.60000610352</ele>
        <time>2012-07-24T12:22:53.000Z</time>
      </trkpt>
      <trkpt lat="48.70539" lon="1.75904">
        <ele>179.39999389648</ele>
        <time>2012-07-24T12:23:00.000Z</time>
      </trkpt>
      <trkpt lat="48.70541" lon="1.75896">
        <ele>179.19999694824</ele>
        <time>2012-07-24T12:23:06.000Z</time>
      </trkpt>
      <trkpt lat="48.70544" lon="1.75889">
        <ele>179.19999694824</ele>
        <time>2012-07-24T12:23:11.000Z</time>
      </trkpt>
      <trkpt lat="48.70548" lon="1.75879">
        <ele>179</ele>
        <time>2012-07-24T12:23:17.000Z</time>
      </trkpt>
      <trkpt lat="48.70555" lon="1.75867">
        <ele>178.39999389648</ele>
        <time>2012-07-24T12:23:25.000Z</time>
      </trkpt>
      <trkpt lat="48.70558" lon="1.75857">
        <ele>178.19999694824</ele>
        <time>2012-07-24T12:23:30.000Z</time>
      </trkpt>
      <trkpt lat="48.7056" lon="1.7585">
        <ele>178.19999694824</ele>
        <time>2012-07-24T12:23:34.000Z</time>
      </trkpt>
      <trkpt lat="48.70565" lon="1.7584">
        <ele>177.80000305176</ele>
        <time>2012-07-24T12:23:40.000Z</time>
      </trkpt>
      <trkpt lat="48.70566" lon="1.75838">
        <ele>177.60000610352</ele>
        <time>2012-07-24T12:23:41.000Z</time>
      </trkpt>
      <trkpt lat="48.70572" lon="1.75825">
        <ele>177.39999389648</ele>
        <time>2012-07-24T12:23:48.000Z</time>
      </trkpt>
      <trkpt lat="48.70577" lon="1.75817">
        <ele>177.19999694824</ele>
        <time>2012-07-24T12:23:52.000Z</time>
      </trkpt>
      <trkpt lat="48.70585" lon="1.75801">
        <ele>177</ele>
        <time>2012-07-24T12:24:00.000Z</time>
      </trkpt>
      <trkpt lat="48.70594" lon="1.75787">
        <ele>177.19999694824</ele>
        <time>2012-07-24T12:24:08.000Z</time>
      </trkpt>
      <trkpt lat="48.70599" lon="1.75773">
        <ele>177.19999694824</ele>
        <time>2012-07-24T12:24:15.000Z</time>
      </trkpt>
      <trkpt lat="48.70601" lon="1.75767">
        <ele>177.39999389648</ele>
        <time>2012-07-24T12:24:21.000Z</time>
      </trkpt>
      <trkpt lat="48.70608" lon="1.75753">
        <ele>177.39999389648</ele>
        <time>2012-07-24T12:24:29.000Z</time>
      </trkpt>
      <trkpt lat="48.70615" lon="1.75743">
        <ele>177.39999389648</ele>
        <time>2012-07-24T12:24:37.000Z</time>
      </trkpt>
      <trkpt lat="48.7062" lon="1.75732">
        <ele>177.60000610352</ele>
        <time>2012-07-24T12:24:44.000Z</time>
      </trkpt>
      <trkpt lat="48.70624" lon="1.75721">
        <ele>177.80000305176</ele>
        <time>2012-07-24T12:24:50.000Z</time>
      </trkpt>
      <trkpt lat="48.70625" lon="1.75718">
        <ele>177.80000305176</ele>
        <time>2012-07-24T12:24:54.000Z</time>
      </trkpt>
      <trkpt lat="48.7064" lon="1.75693">
        <ele>177.39999389648</ele>
        <time>2012-07-24T12:26:24.000Z</time>
      </trkpt>
      <trkpt lat="48.7064" lon="1.75683">
        <ele>177.60000610352</ele>
        <time>2012-07-24T12:26:30.000Z</time>
      </trkpt>
      <trkpt lat="48.7064" lon="1.75673">
        <ele>178</ele>
        <time>2012-07-24T12:26:36.000Z</time>
      </trkpt>
      <trkpt lat="48.7064" lon="1.75662">
        <ele>178.19999694824</ele>
        <time>2012-07-24T12:26:42.000Z</time>
      </trkpt>
      <trkpt lat="48.70639" lon="1.75658">
        <ele>178.19999694824</ele>
        <time>2012-07-24T12:26:44.000Z</time>
      </trkpt>
      <trkpt lat="48.70639" lon="1.75651">
        <ele>178.19999694824</ele>
        <time>2012-07-24T12:26:48.000Z</time>
      </trkpt>
      <trkpt lat="48.70641" lon="1.7564">
        <ele>177.80000305176</ele>
        <time>2012-07-24T12:26:55.000Z</time>
      </trkpt>
      <trkpt lat="48.70645" lon="1.75627">
        <ele>177.39999389648</ele>
        <time>2012-07-24T12:27:02.000Z</time>
      </trkpt>
      <trkpt lat="48.70647" lon="1.75617">
        <ele>177</ele>
        <time>2012-07-24T12:27:07.000Z</time>
      </trkpt>
      <trkpt lat="48.70652" lon="1.75606">
        <ele>176.60000610352</ele>
        <time>2012-07-24T12:27:14.000Z</time>
      </trkpt>
      <trkpt lat="48.70652" lon="1.75603">
        <ele>176.39999389648</ele>
        <time>2012-07-24T12:27:16.000Z</time>
      </trkpt>
      <trkpt lat="48.70655" lon="1.75592">
        <ele>176.19999694824</ele>
        <time>2012-07-24T12:27:23.000Z</time>
      </trkpt>
      <trkpt lat="48.70659" lon="1.75583">
        <ele>175.80000305176</ele>
        <time>2012-07-24T12:27:29.000Z</time>
      </trkpt>
      <trkpt lat="48.70663" lon="1.75572">
        <ele>175</ele>
        <time>2012-07-24T12:27:35.000Z</time>
      </trkpt>
      <trkpt lat="48.70665" lon="1.75569">
        <ele>174.80000305176</ele>
        <time>2012-07-24T12:27:37.000Z</time>
      </trkpt>
      <trkpt lat="48.70669" lon="1.75563">
        <ele>174.39999389648</ele>
        <time>2012-07-24T12:27:41.000Z</time>
      </trkpt>
      <trkpt lat="48.70675" lon="1.75551">
        <ele>174</ele>
        <time>2012-07-24T12:27:49.000Z</time>
      </trkpt>
      <trkpt lat="48.7068" lon="1.75543">
        <ele>173.60000610352</ele>
        <time>2012-07-24T12:27:55.000Z</time>
      </trkpt>
      <trkpt lat="48.70683" lon="1.75533">
        <ele>173.39999389648</ele>
        <time>2012-07-24T12:28:01.000Z</time>
      </trkpt>
      <trkpt lat="48.70689" lon="1.75523">
        <ele>173</ele>
        <time>2012-07-24T12:28:08.000Z</time>
      </trkpt>
      <trkpt lat="48.70693" lon="1.75514">
        <ele>172.60000610352</ele>
        <time>2012-07-24T12:28:14.000Z</time>
      </trkpt>
      <trkpt lat="48.70698" lon="1.75503">
        <ele>172.39999389648</ele>
        <time>2012-07-24T12:28:21.000Z</time>
      </trkpt>
      <trkpt lat="48.70699" lon="1.75498">
        <ele>172.19999694824</ele>
        <time>2012-07-24T12:28:24.000Z</time>
      </trkpt>
      <trkpt lat="48.707" lon="1.7549">
        <ele>172</ele>
        <time>2012-07-24T12:28:29.000Z</time>
      </trkpt>
      <trkpt lat="48.70701" lon="1.75484">
        <ele>172</ele>
        <time>2012-07-24T12:28:33.000Z</time>
      </trkpt>
      <trkpt lat="48.70699" lon="1.75482">
        <ele>172</ele>
        <time>2012-07-24T12:28:39.000Z</time>
      </trkpt>
      <trkpt lat="48.70699" lon="1.75484">
        <ele>172</ele>
        <time>2012-07-24T12:28:44.000Z</time>
      </trkpt>
      <trkpt lat="48.70696" lon="1.75484">
        <ele>172.19999694824</ele>
        <time>2012-07-24T12:29:09.000Z</time>
      </trkpt>
      <trkpt lat="48.70698" lon="1.75484">
        <ele>172</ele>
        <time>2012-07-24T12:29:12.000Z</time>
      </trkpt>
    </trkseg>
  </trk>
</gpx>